GFSCGP_sfc_temp_000.txt.gz
Temp
80 73 66 69 72 72 72 70 69 72 75 71 72 72 75 79 80 78 79 79 80 79 80 80 79 79 80 80 82 79 74 74 76 74 71 68 66 69 69 70 70 70 69 68
74 66 72 75 74 72 71 68 68 72 74 71 72 71 74 76 76 77 77 77 77 77 78 78 77 77 76 76 75 73 73 73 73 72 69 68 68 68 69 69 68 69 66 67
66 69 74 72 71 68 70 66 64 64 71 74 70 67 69 74 76 76 77 77 77 75 74 75 75 73 72 72 72 73 72 70 68 70 71 68 68 66 65 65 65 66 66 67
69 73 70 70 68 67 63 68 66 65 63 58 71 55 65 69 69 71 72 73 74 75 76 76 73 71 70 69 70 71 71 71 70 68 67 65 63 62 64 64 64 64 64 63
66 68 68 66 65 68 64 68 66 66 63 63 65 59 63 70 65 67 69 71 72 73 73 72 72 71 71 69 68 70 70 71 70 67 65 63 62 61 61 60 60 61 61 61
69 75 71 68 70 70 71 67 67 66 63 50 62 60 54 62 64 66 69 70 72 72 72 72 73 72 70 69 68 68 69 70 69 67 65 62 60 59 59 59 57 57 57 57
68 67 71 72 66 71 70 64 50 46 47 46 62 58 57 66 68 69 68 69 70 71 71 72 72 71 70 69 69 69 69 69 69 66 65 64 62 60 59 57 55 54 54 54
59 52 66 71 65 62 64 62 48 39 41 48 62 54 56 67 69 70 70 70 71 70 70 70 70 70 70 69 69 68 68 67 68 66 65 63 61 59 58 56 54 53 52 53
58 56 68 68 69 68 62 55 63 51 47 43 55 59 64 67 66 68 68 69 69 70 70 70 72 70 70 69 68 67 67 67 67 65 62 59 58 57 56 55 54 54 54 56
62 54 65 67 69 69 65 67 52 53 38 37 49 53 50 59 63 66 66 67 69 70 70 69 70 69 69 68 66 65 65 65 64 61 58 58 57 58 57 56 54 53 52 52
65 60 58 65 61 59 61 59 59 58 50 40 39 48 64 63 64 63 65 68 68 68 68 69 68 68 68 67 66 64 62 62 61 60 58 57 56 56 56 54 52 51 50 50
62 58 48 58 65 67 64 60 59 44 44 45 42 45 67 66 65 65 65 66 67 67 66 66 65 64 64 63 63 62 60 59 59 58 57 56 56 56 54 52 51 50 49 49
61 55 46 52 58 64 59 62 60 55 46 41 37 44 67 61 64 66 65 65 65 65 65 65 63 63 63 62 61 60 59 59 59 59 57 57 55 53 51 51 50 50 48 48
58 59 50 45 52 59 54 58 61 57 43 43 45 51 59 61 60 63 64 63 63 63 61 61 61 60 60 59 59 60 59 57 57 58 56 54 52 51 50 50 49 48 48 47
61 49 53 55 58 59 57 57 58 55 54 44 50 53 59 61 61 59 60 61 60 59 59 58 57 58 59 58 59 60 59 59 57 55 55 53 53 52 51 49 48 48 47 47
60 46 43 43 57 57 51 56 57 57 58 57 56 54 64 61 61 58 57 57 56 56 56 57 58 58 58 58 58 59 58 59 58 57 54 55 54 51 49 48 47 46 46 45
47 44 43 40 47 44 38 47 56 58 60 57 46 56 60 56 57 57 56 56 54 54 55 55 57 58 58 57 58 57 58 59 57 56 56 53 47 46 47 48 48 46 43 43
40 41 41 37 38 34 54 63 62 57 59 61 61 59 58 56 57 59 56 53 53 53 54 56 57 57 57 58 58 57 58 56 56 56 55 51 48 47 48 47 46 45 43 41
54 46 36 35 38 45 51 56 54 50 50 60 57 56 56 56 56 54 56 56 54 55 57 58 59 58 57 57 57 55 54 55 55 54 51 50 47 48 47 45 44 43 41 40
52 44 43 36 32 32 49 60 62 59 42 57 55 51 50 52 41 48 55 55 56 58 59 59 58 58 57 56 55 53 52 52 50 48 48 48 49 47 45 44 43 42 41 41
37 39 37 37 34 40 56 61 61 39 42 53 51 51 50 47 47 52 56 56 58 59 59 58 58 55 55 55 54 51 51 49 51 50 48 46 46 47 46 44 43 41 40 37
39 37 34 38 34 32 59 58 44 51 54 52 52 52 50 51 52 55 56 56 57 57 57 58 55 54 54 55 53 50 49 50 49 48 46 46 46 47 48 43 40 40 38 34
46 48 45 46 44 58 60 57 58 53 51 51 50 53 53 52 53 54 54 55 56 56 56 57 54 52 53 54 53 49 49 49 47 46 45 45 46 47 45 40 38 37 36 31
57 63 48 47 56 59 59 59 56 55 54 55 55 54 54 53 54 53 54 55 55 56 55 55 52 52 51 52 52 49 49 48 45 43 43 43 42 41 41 42 40 36 31 29
53 58 53 51 57 59 56 55 55 54 55 55 56 56 56 54 54 54 53 54 54 54 54 53 51 50 49 50 49 48 47 45 43 41 41 39 36 38 39 41 35 32 32 30
57 53 47 45 56 53 52 54 55 53 53 56 55 55 56 56 54 54 52 52 52 50 51 51 50 49 49 49 46 45 44 42 37 35 36 36 35 35 36 36 35 33 32 32

GFSCGP_sfc_temp_006.txt.gz
Temp
64 57 51 54 57 60 60 54 52 53 62 60 56 54 55 57 60 59 59 60 60 60 63 63 63 63 63 62 61 59 59 63 63 57 56 55 57 58 58 58 59 59 60 59
57 51 60 64 63 60 58 55 53 58 64 59 55 52 55 59 58 60 59 59 59 59 61 62 61 59 57 59 59 58 59 59 59 57 56 57 56 56 57 60 61 58 57 57
53 59 65 63 58 57 54 53 51 53 56 58 57 51 54 58 60 60 59 59 60 59 59 60 59 56 56 57 58 60 59 59 58 59 57 56 56 56 56 55 54 56 55 55
58 64 62 58 57 55 49 57 57 55 50 45 52 38 49 53 55 57 57 56 58 58 60 60 57 56 56 55 56 59 60 60 60 59 56 56 54 52 52 51 51 51 52 53
54 57 57 55 56 58 54 58 55 54 48 45 48 42 47 54 51 52 52 55 55 56 57 56 57 57 57 56 56 57 59 60 59 58 57 54 53 51 50 49 49 50 50 52
58 61 59 56 61 60 60 55 54 51 47 35 47 44 43 46 52 54 55 55 56 55 55 57 57 59 57 56 57 57 59 60 59 57 56 55 52 50 48 48 47 48 48 49
56 56 60 62 56 59 56 47 34 34 30 32 50 43 43 53 57 57 54 54 55 55 54 55 56 56 57 55 57 57 58 59 59 56 52 51 49 48 48 48 50 51 51 49
45 41 55 61 55 51 52 48 34 31 27 35 48 39 44 56 58 59 60 57 57 57 56 55 55 55 55 56 55 55 55 53 53 52 50 50 50 51 52 52 48 48 47 46
45 46 57 58 59 56 52 43 51 38 32 31 39 45 52 57 57 61 61 61 54 53 54 55 54 54 55 55 53 55 56 54 52 52 51 51 53 53 52 52 49 48 45 47
51 44 55 59 60 59 54 56 41 36 29 27 36 39 41 48 52 54 51 50 52 53 53 54 54 52 52 53 55 56 55 53 52 51 52 55 53 52 49 46 44 44 44 45
51 48 48 54 50 48 50 47 46 44 34 28 24 34 48 50 52 49 50 51 51 51 51 52 52 52 52 53 52 52 50 51 50 50 50 49 48 48 46 44 46 44 44 45
51 44 32 46 55 57 53 49 46 31 35 29 27 34 52 51 53 53 53 53 53 52 52 51 51 51 50 50 50 49 49 50 50 49 49 48 47 47 45 44 43 43 44 43
50 40 31 40 48 52 50 51 49 42 33 33 25 31 53 52 52 52 49 50 50 49 49 49 49 49 49 48 49 48 47 46 47 48 47 46 47 45 44 43 43 43 42 44
51 45 39 33 40 45 41 47 47 43 29 33 32 41 45 46 47 48 48 47 46 47 48 48 48 47 47 47 47 46 46 46 46 46 45 44 45 45 42 41 41 43 43 43
48 38 41 44 46 46 45 45 45 44 42 35 40 41 44 46 46 47 48 48 48 47 48 49 47 46 45 46 45 46 45 45 46 45 44 43 42 41 42 43 42 42 42 43
45 35 33 35 44 43 40 44 44 45 47 45 42 40 47 48 47 46 46 46 46 48 47 47 47 46 47 46 44 45 45 45 45 43 43 43 43 43 41 41 40 39 39 41
37 31 30 30 35 34 31 40 45 46 46 46 37 42 46 44 44 43 43 45 45 45 46 46 45 47 45 44 45 44 44 45 44 43 43 43 42 41 40 40 39 39 38 41
34 33 28 25 27 21 43 50 50 44 45 45 44 44 45 44 44 44 45 44 45 46 47 46 46 46 45 44 44 44 44 43 42 41 41 41 41 39 39 39 38 38 40 37
42 29 26 23 24 34 43 48 46 42 39 46 44 44 45 45 43 41 47 47 46 46 47 46 46 46 43 43 44 43 42 42 41 41 40 40 40 39 38 38 37 37 36 33
40 32 30 27 21 20 37 48 52 50 33 46 45 43 43 43 29 37 45 46 46 47 47 47 45 44 43 44 43 42 41 40 39 40 40 40 39 38 38 36 35 34 34 33
27 25 24 24 17 29 43 49 51 33 36 44 44 42 42 38 38 43 44 45 47 47 47 47 44 43 43 43 42 41 40 39 41 41 40 39 39 37 37 35 34 34 32 31
31 27 24 23 19 25 48 49 39 42 42 44 43 43 42 43 44 45 47 45 46 44 44 44 43 42 42 42 42 40 38 40 40 39 38 37 37 38 39 35 34 32 31 27
36 36 32 36 34 45 48 48 47 46 43 43 43 45 45 44 44 46 44 43 43 41 41 43 40 40 41 42 41 39 39 39 38 36 35 35 35 35 35 32 29 28 26 22
45 47 35 37 46 46 49 46 48 47 45 45 46 46 48 45 45 43 42 41 40 40 40 40 40 38 38 40 40 39 39 39 36 35 34 33 32 32 32 31 30 27 20 19
41 46 42 38 45 44 46 46 46 47 47 47 49 48 49 46 42 41 40 39 39 39 39 39 37 37 37 39 38 38 38 37 35 34 34 32 28 29 30 30 28 27 28 27
45 44 37 39 46 46 45 46 48 47 47 49 50 46 46 45 41 41 38 39 38 37 37 37 37 36 37 37 36 36 35 34 34 32 31 28 26 25 29 29 29 33 33 32

GFSCGP_sfc_temp_009.txt.gz
Temp
60 56 49 51 53 56 54 50 50 49 58 52 48 48 50 53 54 53 53 54 54 55 56 58 58 58 59 57 58 57 59 60 58 56 55 54 53 54 54 56 56 56 57 57
56 50 56 60 58 57 55 51 48 54 58 54 50 47 51 54 52 54 54 54 54 56 57 58 58 57 55 56 56 58 57 57 56 55 54 54 53 54 57 58 57 56 54 53
51 55 62 59 55 55 51 48 49 51 53 53 52 47 49 55 55 56 54 54 56 56 55 56 57 55 55 56 56 57 57 58 57 57 55 54 54 54 53 51 50 51 52 52
56 59 58 56 54 53 48 54 54 53 47 41 48 34 45 49 50 52 52 53 54 56 57 56 55 54 55 53 55 57 58 58 58 57 56 55 53 52 49 48 48 49 50 50
52 53 54 54 53 55 52 55 52 51 45 43 44 38 42 49 46 48 50 54 56 56 55 55 55 56 55 54 54 55 57 58 57 56 55 52 50 48 47 47 47 48 48 48
55 58 56 54 57 56 58 53 50 47 44 33 43 40 40 43 48 49 52 54 56 53 52 54 56 56 54 53 53 53 55 55 55 54 52 50 48 46 46 46 46 46 46 47
53 53 56 58 53 55 53 46 33 33 29 31 45 41 41 51 53 53 53 52 52 52 53 56 57 54 52 50 51 54 52 50 50 49 48 48 47 47 48 50 50 50 48 46
43 39 52 58 52 48 48 46 34 31 26 34 45 36 42 52 55 56 55 53 52 53 54 52 51 50 50 51 50 50 51 50 51 50 50 49 50 49 51 52 50 47 44 44
43 44 55 55 56 54 48 41 47 35 31 31 36 42 50 52 52 54 54 53 49 50 50 50 50 50 50 50 50 50 51 51 51 51 50 50 49 49 48 47 45 43 42 45
50 42 51 56 56 55 52 53 40 34 28 25 33 36 37 46 49 50 49 47 48 49 49 49 49 50 50 50 50 50 50 50 49 49 48 49 47 47 46 45 43 42 43 46
49 46 45 52 48 45 48 45 42 41 32 27 23 33 45 48 49 47 45 47 48 47 48 49 49 51 50 49 49 47 48 48 46 46 46 45 45 45 44 43 42 42 42 44
48 42 32 44 52 53 49 45 43 30 33 28 25 32 48 48 49 49 48 48 47 48 48 49 49 50 49 47 46 46 45 45 45 45 44 44 44 44 42 42 41 43 43 41
48 39 31 39 46 50 46 48 44 39 32 32 23 31 49 49 48 48 46 47 47 47 47 47 47 47 47 46 47 45 45 44 44 44 42 42 41 41 40 40 42 43 41 41
50 42 38 33 38 42 40 44 44 41 29 32 31 37 42 43 44 44 44 45 44 45 47 46 46 47 48 46 45 44 43 43 43 43 42 41 40 41 40 39 40 40 40 39
47 38 39 40 42 43 42 43 43 41 40 35 38 39 43 43 43 44 45 44 45 45 47 47 45 46 46 44 44 43 43 44 43 43 41 41 40 40 40 39 39 39 39 40
43 34 32 34 41 40 38 43 42 42 42 41 39 38 44 45 44 44 44 44 44 46 49 48 48 47 46 44 43 44 43 43 43 42 41 42 41 41 40 39 38 40 39 38
35 30 30 29 33 34 30 38 43 43 44 42 34 41 43 41 43 42 42 43 44 46 47 46 45 45 44 43 43 42 43 43 42 41 41 41 40 39 38 38 38 37 36 36
33 29 26 24 26 22 41 46 47 44 42 42 41 42 44 43 43 43 44 43 44 45 45 45 44 44 43 42 41 42 42 41 40 40 39 39 38 38 37 37 36 35 36 34
40 29 27 23 23 33 42 45 42 41 40 44 42 42 43 42 41 40 45 45 44 44 45 44 44 43 42 41 42 41 40 40 39 39 38 38 38 37 36 35 34 34 33 31
38 31 29 25 20 21 37 45 49 47 33 44 43 41 40 40 30 37 44 45 45 46 45 44 43 42 41 41 41 39 39 38 38 38 38 38 37 36 35 34 32 32 31 31
27 23 22 19 17 29 41 48 49 34 36 43 44 43 41 39 39 43 44 44 44 44 43 42 42 40 40 40 40 39 38 37 39 39 38 37 36 35 34 33 33 32 31 30
31 27 22 25 19 27 46 46 39 43 41 45 43 43 43 43 43 44 44 44 42 41 41 41 40 39 40 40 38 36 35 38 38 37 36 35 34 35 36 31 30 30 28 27
33 36 32 35 34 44 46 46 46 46 44 43 43 44 45 44 43 44 40 40 40 40 38 39 38 38 39 38 37 35 36 37 36 35 34 33 33 33 32 30 28 27 25 21
41 44 34 37 44 45 46 47 47 46 45 44 45 45 45 45 44 41 39 39 39 37 37 37 37 35 35 36 37 36 36 36 34 33 33 34 33 31 30 30 30 27 21 21
40 43 40 36 43 44 47 47 47 46 45 45 47 47 47 43 40 42 41 39 38 37 37 36 34 34 34 35 34 34 34 33 32 32 34 32 31 29 29 30 28 27 29 28
43 42 35 36 45 45 45 48 47 45 45 47 46 45 44 45 42 41 37 37 37 35 35 34 34 33 34 34 32 32 33 32 31 32 32 31 31 29 29 28 27 33 33 33

GFSCGP_sfc_temp_015.txt.gz
Temp
64 61 58 61 61 60 59 57 56 56 56 55 50 51 53 56 57 57 58 59 60 60 60 62 62 63 64 65 65 65 63 63 64 65 63 63 63 64 64 65 63 63 63 62
62 56 61 62 61 59 58 55 51 55 56 55 53 51 54 56 54 56 58 58 59 59 60 60 62 64 65 65 65 65 64 66 68 67 66 67 65 64 63 62 61 61 61 61
57 60 62 60 58 57 55 55 53 53 55 56 55 51 52 55 56 56 57 58 59 60 59 60 61 62 62 62 63 65 66 66 66 65 65 64 64 63 62 62 61 60 60 61
58 61 59 58 56 58 53 58 55 52 53 50 54 49 50 52 53 55 57 58 59 60 62 62 60 60 61 61 63 64 64 64 64 63 64 62 64 62 59 60 61 63 60 61
56 57 57 56 56 59 55 58 57 54 52 52 51 52 49 53 51 54 57 57 58 60 62 61 61 61 62 62 62 62 61 62 61 62 61 61 59 59 60 60 59 58 59 58
57 62 61 60 58 59 58 56 54 52 51 45 48 50 48 49 54 55 57 58 58 60 60 61 62 62 60 60 59 59 60 60 61 61 61 60 59 58 60 59 58 59 58 59
56 56 60 60 58 59 58 53 44 42 41 41 47 46 52 56 57 59 57 59 59 60 59 59 60 60 59 58 58 59 60 58 59 58 58 58 57 57 56 57 57 56 57 57
49 47 57 60 58 55 53 53 43 35 36 42 47 44 53 56 60 62 62 61 59 59 58 59 58 58 57 57 58 59 59 58 58 57 57 58 57 58 58 57 56 55 55 55
48 48 59 58 60 60 52 49 52 40 37 39 45 49 55 53 55 57 57 58 58 58 58 57 56 57 57 57 57 57 58 57 56 56 57 55 56 55 54 54 54 54 53 53
53 47 54 58 60 58 56 55 46 44 35 33 41 42 48 49 52 55 55 56 57 57 56 56 56 55 56 57 56 56 57 56 56 56 55 54 54 54 54 53 52 52 52 51
54 51 50 55 53 52 52 49 45 46 40 37 34 44 52 54 55 55 57 57 56 55 55 55 55 55 56 56 57 55 52 57 55 55 53 53 53 53 53 53 52 51 51 51
53 47 43 49 55 56 55 51 49 42 38 35 36 44 53 53 56 56 56 54 55 55 54 55 55 54 54 55 54 50 56 56 55 53 52 52 53 53 51 51 51 51 49 49
52 46 40 46 51 54 52 50 46 43 40 36 36 45 52 51 52 55 55 52 51 52 53 53 53 54 52 51 52 55 53 53 53 52 53 52 51 50 50 50 50 49 48 48
51 45 44 41 45 48 46 47 47 47 40 39 40 47 50 51 50 50 50 51 52 52 51 53 53 53 52 52 54 51 51 52 52 52 52 50 50 50 49 49 49 48 48 47
51 44 44 43 44 46 47 47 46 46 46 43 45 44 51 54 53 51 50 50 49 50 50 51 51 52 53 51 50 52 52 51 51 51 51 50 50 49 49 48 48 47 47 47
46 40 40 40 42 42 43 46 46 46 45 46 45 46 54 52 51 48 48 48 48 49 51 52 52 52 50 53 53 51 50 50 50 50 49 49 48 48 48 47 46 46 46 46
41 36 38 36 37 38 37 42 46 46 47 49 43 52 49 48 48 50 49 49 49 50 51 51 51 53 53 53 51 51 51 50 49 48 48 48 47 46 46 46 46 45 44 44
35 35 33 35 31 32 48 49 49 47 48 50 48 50 50 50 49 50 52 50 49 50 52 51 52 52 53 52 50 49 49 48 46 46 46 47 46 45 45 44 44 44 43 42
42 36 30 34 33 39 48 46 45 44 49 52 50 50 47 47 49 50 51 52 53 52 53 53 53 51 50 50 48 48 47 46 45 46 46 46 45 44 44 43 43 43 42 42
40 36 38 30 33 31 44 49 51 52 41 52 51 46 45 48 44 53 52 51 50 52 51 50 49 48 48 46 47 46 45 44 44 43 44 44 44 43 42 42 42 42 42 41
33 31 33 26 33 37 46 50 52 41 45 48 49 48 46 47 52 52 50 49 52 50 47 45 47 47 45 45 45 44 43 42 43 43 43 43 43 42 42 42 42 41 41 38
37 33 31 27 29 33 48 50 44 50 49 49 49 49 48 51 47 48 47 47 47 46 46 46 45 44 44 44 43 42 42 42 42 41 41 41 41 41 41 40 41 40 38 36
38 41 39 39 40 48 50 50 52 51 50 51 49 51 51 47 47 47 45 45 45 45 44 46 45 43 43 43 43 41 41 41 39 39 39 39 40 40 41 40 39 38 37 35
42 44 40 40 48 45 48 52 52 53 52 53 52 53 49 49 47 45 44 44 44 45 44 44 43 42 41 41 40 40 39 39 37 37 38 39 38 37 40 40 39 38 36 35
43 44 41 40 45 48 51 51 54 54 51 51 52 51 49 49 46 45 44 40 40 39 39 42 41 40 40 40 39 39 38 37 37 37 38 37 36 36 36 37 39 37 38 37
44 45 41 41 51 51 52 54 53 51 51 52 49 47 47 48 45 44 40 41 39 38 41 41 40 39 39 38 37 37 37 36 35 35 37 36 36 35 36 36 37 34 34 33

GFSCGP_sfc_temp_018.txt.gz
Temp
71 68 65 70 72 70 70 67 66 67 66 68 66 67 67 69 71 71 73 73 74 75 74 74 74 75 76 76 75 73 70 70 71 74 73 73 72 74 74 74 71 71 71 70
67 64 69 70 70 69 69 66 64 63 65 67 67 65 66 67 68 71 72 73 74 73 73 71 73 74 74 74 74 73 73 73 76 78 78 78 76 75 73 72 69 70 69 70
67 67 68 69 68 66 65 64 62 63 64 67 67 63 64 64 66 67 69 73 73 73 71 71 71 73 73 71 73 75 75 76 76 75 76 74 73 72 73 72 73 70 69 69
66 68 67 68 65 66 61 66 66 62 63 59 66 58 63 64 64 66 66 69 70 71 72 72 72 72 73 73 75 76 75 74 73 73 74 71 73 71 69 70 70 71 67 67
62 65 66 65 63 66 62 66 67 65 66 62 62 60 62 63 62 64 66 68 69 71 71 71 72 73 74 72 72 72 72 72 72 72 71 71 68 69 69 70 66 67 67 67
66 71 69 67 66 68 67 66 64 64 64 52 61 59 63 62 65 66 67 67 68 70 71 72 72 72 71 71 70 70 71 70 71 70 69 67 66 66 66 65 65 66 67 67
65 65 69 69 65 67 67 64 53 49 49 48 57 56 63 68 67 70 67 68 69 70 70 70 69 70 69 68 68 69 69 67 68 67 67 66 65 65 64 64 64 62 63 63
59 53 64 67 66 64 64 64 53 41 44 52 56 53 65 67 70 73 72 71 70 69 70 70 70 69 68 67 68 68 68 67 67 66 66 66 64 63 65 63 62 61 61 61
58 56 66 65 67 67 60 57 62 51 47 48 57 61 67 65 66 69 70 70 69 70 69 69 68 68 67 67 66 67 67 67 65 62 60 62 61 62 61 60 61 60 60 60
62 54 62 63 67 66 64 65 54 56 41 40 54 55 60 60 62 66 68 67 69 71 70 68 67 66 67 67 66 66 66 64 60 58 60 64 62 62 61 60 59 58 58 58
66 61 57 61 61 61 59 59 57 58 52 46 44 57 64 63 66 65 67 69 70 70 69 67 66 66 66 66 65 65 64 59 55 62 62 61 61 61 60 59 58 58 57 57
63 61 52 58 62 64 64 61 61 51 47 48 46 54 65 64 66 69 69 70 71 70 69 67 65 65 64 64 64 63 61 57 63 62 61 60 61 61 59 58 57 57 56 56
62 57 49 52 58 62 60 61 60 56 52 46 43 54 64 65 65 67 68 71 69 67 67 65 64 63 63 63 62 61 57 59 61 62 61 61 60 59 57 57 57 56 55 55
58 58 55 50 55 60 55 57 60 60 49 51 51 59 62 64 65 67 67 69 67 64 64 64 63 63 63 61 60 57 55 61 62 62 61 60 58 58 57 56 56 55 54 53
61 54 55 55 54 55 56 58 58 57 58 50 58 58 65 67 68 69 67 66 64 62 62 62 62 63 62 60 58 53 63 62 61 60 60 59 58 57 57 55 55 54 53 53
57 52 50 48 51 52 51 57 59 59 60 58 60 58 70 70 68 66 63 62 61 61 61 62 62 63 62 61 54 62 61 60 60 59 58 58 57 56 55 54 53 52 52 52
53 48 48 46 47 48 40 51 58 59 60 59 53 62 67 62 62 64 64 62 61 61 62 62 62 62 62 60 61 60 60 59 57 57 57 56 55 53 53 53 53 52 51 51
46 48 45 43 39 35 57 59 59 59 61 65 63 65 64 65 64 64 67 65 62 62 62 63 64 62 62 63 62 61 60 58 56 55 54 54 53 52 53 53 51 51 51 49
54 49 40 39 44 51 58 56 54 53 58 65 64 66 64 59 59 63 64 65 65 64 65 65 65 62 57 58 58 57 56 56 54 53 52 53 51 51 51 50 50 50 49 49
50 49 50 40 38 36 54 56 59 59 50 62 62 61 58 59 52 66 66 64 63 65 65 63 61 59 58 57 55 55 55 53 51 50 50 51 51 50 49 49 49 49 49 48
42 42 40 41 39 48 58 58 59 46 51 62 60 61 59 57 64 63 64 64 65 64 62 61 58 58 55 54 54 52 52 51 51 50 50 50 50 49 48 48 49 48 48 46
46 42 39 39 36 37 58 57 50 58 61 61 62 62 60 63 60 59 59 61 61 60 58 58 55 52 50 50 51 52 51 50 49 49 48 48 48 47 48 47 47 47 46 44
46 52 51 51 53 58 60 62 64 61 59 61 61 64 62 60 60 59 57 56 56 55 56 53 48 46 48 51 51 49 49 48 47 46 46 46 46 46 46 46 46 45 46 43
53 54 50 49 59 59 60 62 63 64 62 64 65 64 63 60 62 59 56 54 52 54 50 51 42 43 48 48 47 48 48 47 45 44 44 45 44 42 41 42 43 44 43 42
54 53 52 51 57 60 62 63 63 64 64 63 64 62 60 60 59 58 54 53 51 43 43 41 42 47 47 46 47 48 46 44 43 44 44 43 43 41 40 40 39 41 45 42
55 55 50 50 60 58 60 62 62 60 60 60 59 59 56 56 56 55 51 47 44 40 38 40 44 45 46 43 43 43 43 42 40 40 42 43 42 41 40 39 40 36 35 34

GFSCGP_sfc_temp_024.txt.gz
Temp
74 65 62 63 67 70 67 65 65 71 76 72 71 70 73 77 78 76 76 76 76 77 80 80 80 81 80 78 74 72 67 65 68 65 65 68 66 68 68 69 68 68 67 67
68 60 69 72 71 70 69 65 65 71 74 72 71 70 74 76 76 78 78 77 77 77 79 78 78 78 78 77 72 69 68 67 69 69 70 71 69 69 68 66 66 66 66 65
61 61 67 71 70 67 67 65 63 65 71 73 65 66 70 76 78 80 80 81 81 79 76 76 76 76 75 71 70 71 70 70 71 72 74 71 69 66 65 65 63 64 65 65
60 70 66 69 66 70 61 69 68 65 64 56 67 50 53 62 72 76 77 78 79 80 78 77 76 74 68 69 69 72 72 73 74 73 71 67 66 64 64 63 63 64 65 64
58 66 67 65 64 70 60 69 67 68 65 58 57 52 58 62 62 70 74 76 78 79 78 76 75 72 71 72 72 73 74 73 72 71 69 67 64 63 63 62 61 62 61 61
69 75 70 66 72 72 72 67 68 68 64 43 56 51 56 60 61 53 73 75 76 77 77 77 77 75 74 73 71 70 70 71 70 68 66 63 60 60 59 58 56 58 58 57
65 67 75 73 69 73 71 64 51 42 41 44 65 60 55 66 60 56 59 74 75 75 74 74 73 72 71 69 68 68 69 68 67 64 63 61 60 58 56 55 56 56 55 54
57 50 69 74 70 56 58 64 51 33 32 49 63 55 63 72 76 72 76 75 74 73 73 73 72 71 69 68 68 69 68 67 66 64 62 60 59 57 56 58 57 55 54 53
50 53 67 73 75 72 65 59 68 53 54 48 56 64 72 74 73 76 74 73 72 72 72 72 72 70 69 68 67 66 67 67 65 62 60 57 57 56 56 58 57 54 54 56
49 40 60 70 73 72 67 71 55 57 41 40 53 57 59 65 68 71 72 71 71 72 72 72 72 69 69 69 67 66 67 65 63 61 58 58 57 58 58 57 55 54 53 53
69 59 62 67 64 63 63 60 63 62 56 43 41 52 68 68 71 70 72 72 72 71 72 72 72 71 70 69 67 66 66 63 61 60 58 56 57 58 58 56 55 54 53 53
71 64 53 61 71 73 69 63 64 48 48 51 45 50 72 71 73 73 73 75 74 73 73 73 72 71 69 67 67 65 63 63 62 60 58 57 58 58 56 56 56 54 53 53
69 60 48 55 64 69 63 66 66 64 55 47 41 50 73 72 71 73 72 74 75 74 74 74 72 69 68 67 65 64 63 62 61 61 60 59 58 57 57 56 55 55 53 52
64 63 57 47 56 63 59 63 66 63 46 47 49 58 67 69 69 72 72 73 74 73 74 74 71 69 68 67 65 64 62 62 61 61 60 57 57 56 56 55 54 53 53 51
65 55 60 63 65 64 62 62 64 61 61 51 56 60 67 71 71 73 74 74 73 73 74 74 72 69 68 66 65 65 63 61 60 58 58 56 58 58 56 55 54 53 51 51
66 54 56 52 61 62 58 62 63 63 64 63 64 62 73 75 74 71 72 73 71 72 73 74 73 71 68 67 66 64 62 60 60 57 56 59 58 57 55 54 52 51 50 50
60 52 48 45 55 52 42 53 59 62 66 64 55 64 72 70 71 70 70 71 70 70 71 71 70 70 68 68 65 62 62 60 58 57 58 58 57 55 53 53 53 51 49 49
53 51 48 43 40 35 58 69 67 63 65 68 68 69 71 67 69 71 72 70 70 71 70 70 70 69 69 68 66 63 63 60 57 56 56 55 55 54 52 50 50 49 48 47
63 52 44 38 43 52 58 64 61 59 59 66 65 66 68 69 68 67 72 71 69 68 69 70 71 69 68 67 65 62 60 58 56 53 52 53 53 51 50 49 47 47 46 45
59 54 48 43 38 35 55 63 67 66 49 65 65 63 64 66 50 60 67 69 69 71 71 70 70 69 67 64 63 57 55 52 50 49 50 50 51 49 47 47 46 46 45 46
44 45 39 42 39 46 64 65 66 46 49 64 64 64 63 59 61 65 67 67 69 71 70 70 66 61 56 56 55 49 47 45 46 47 49 49 48 48 48 46 45 44 44 43
45 43 39 44 35 35 66 63 51 59 64 64 64 64 62 63 64 65 67 68 66 67 66 62 54 50 49 49 47 44 43 47 47 48 47 46 46 47 48 44 43 42 42 38
49 55 50 51 48 63 67 64 68 67 64 64 64 65 65 63 64 65 65 65 63 62 54 54 47 44 44 44 45 43 45 48 46 44 42 43 45 46 45 42 40 39 38 37
62 64 54 54 63 65 67 69 69 68 64 66 66 65 65 62 62 63 64 60 59 54 51 47 44 42 42 45 46 46 45 45 43 41 42 44 42 42 42 42 41 39 34 33
60 62 57 56 62 65 66 64 63 63 64 63 63 61 59 59 60 59 53 50 49 45 44 44 42 41 40 43 44 46 45 43 42 42 41 40 37 38 40 41 40 35 37 36
63 59 51 49 59 58 58 59 61 58 57 58 57 54 54 55 52 50 45 44 42 41 41 41 41 42 43 43 44 45 45 43 40 38 38 36 35 36 39 39 38 40 37 37

GFSCGP_sfc_temp_027.txt.gz
Temp
63 54 50 55 61 62 61 57 55 60 66 63 60 60 62 66 64 62 62 64 67 67 70 72 71 71 72 69 68 65 64 62 61 59 58 59 59 60 59 60 61 61 61 61
57 51 61 65 67 61 62 59 58 62 67 62 61 59 63 66 65 64 61 63 65 66 69 71 70 68 70 68 64 64 64 63 62 61 62 62 61 59 59 59 59 60 60 60
53 58 67 66 60 58 60 54 56 57 59 59 57 52 57 64 69 68 66 69 70 68 68 68 69 66 65 64 62 63 64 65 65 64 66 62 61 58 57 56 56 58 60 60
54 65 64 61 58 63 56 64 61 62 55 46 57 41 53 59 65 68 68 66 69 69 70 70 68 64 63 63 63 63 65 64 66 65 63 63 61 58 55 55 56 57 59 58
55 59 59 57 58 65 57 63 60 60 55 52 52 45 49 60 61 63 59 64 64 69 69 68 67 63 64 66 65 66 64 65 68 68 67 58 57 56 55 54 53 54 54 56
61 67 63 62 66 66 66 62 59 57 51 37 52 48 47 50 60 59 62 68 68 64 66 67 65 66 65 65 62 62 64 64 61 59 58 57 56 53 52 50 50 54 55 51
61 64 64 68 60 64 61 52 39 36 32 34 54 48 50 58 61 64 66 67 61 64 65 64 64 64 64 62 65 65 61 59 59 57 55 54 53 52 51 51 50 54 50 49
50 45 58 64 59 57 56 53 39 30 31 37 55 45 53 64 68 68 67 63 63 63 64 63 62 61 60 60 60 60 60 58 58 56 54 53 53 50 51 51 51 51 51 49
46 48 60 64 65 62 57 48 59 42 42 36 44 56 62 63 60 59 59 61 60 61 61 62 62 61 60 59 59 58 58 58 56 54 52 52 52 52 51 52 52 51 50 53
50 45 55 58 64 65 59 61 46 44 34 32 42 45 47 55 59 59 57 59 61 62 61 62 62 60 61 59 59 57 57 57 54 53 51 52 52 52 52 52 52 50 49 50
53 50 50 57 55 54 55 52 53 52 41 32 29 40 56 58 60 59 59 63 63 63 63 62 61 62 62 61 59 57 56 54 53 52 52 51 51 52 53 52 52 52 51 50
54 50 39 53 63 66 61 56 52 35 40 35 32 38 60 61 62 62 62 64 64 65 64 63 62 62 61 60 59 57 54 55 53 52 52 51 52 55 55 54 53 51 49 49
57 49 34 44 53 59 55 58 58 53 41 37 29 38 61 63 61 63 61 64 63 64 63 63 62 62 61 60 60 57 56 56 53 53 52 52 55 55 54 53 52 51 48 48
58 53 45 35 46 54 50 54 56 52 34 35 37 47 56 58 59 61 63 62 61 64 66 64 63 63 62 61 60 58 56 55 55 54 52 54 54 54 54 53 51 49 50 47
56 46 49 52 55 57 56 55 57 53 50 41 46 50 56 57 59 59 61 62 64 64 63 62 62 61 61 59 58 57 55 54 55 52 53 54 54 54 53 52 51 50 49 48
57 43 44 42 55 54 49 53 54 54 55 52 52 51 60 61 61 61 62 63 62 62 63 63 62 60 60 59 57 57 55 54 55 54 54 55 54 53 51 50 50 49 46 47
49 40 37 35 45 45 35 46 52 53 55 53 45 52 57 57 59 58 59 61 61 62 61 62 61 60 59 58 59 55 55 55 54 54 54 53 51 51 48 48 48 47 46 46
44 42 35 31 33 26 47 59 59 55 55 55 55 55 56 57 57 59 59 57 58 60 61 62 61 61 59 57 56 57 58 56 53 52 51 49 47 48 48 48 46 45 45 44
52 39 34 30 30 41 50 54 52 50 48 55 53 55 56 58 55 53 59 59 59 59 60 60 61 59 55 55 55 56 54 50 49 48 48 48 47 47 45 44 43 43 43 42
52 43 35 30 27 25 43 55 60 58 37 54 55 53 53 54 36 46 58 60 59 59 56 51 52 50 48 48 50 46 44 43 43 45 45 46 45 44 43 42 42 42 43 43
33 33 30 26 25 35 53 58 58 37 39 54 55 53 52 48 49 55 57 59 56 53 49 47 45 43 43 45 44 42 41 40 43 44 44 43 45 43 43 43 43 41 39 37
36 32 28 32 29 29 57 55 45 47 52 55 54 53 52 53 56 57 57 53 51 46 44 43 41 41 43 45 44 42 41 43 43 43 43 44 43 43 45 41 40 39 37 33
37 42 36 40 36 50 55 55 56 56 54 53 53 54 55 53 53 55 52 46 44 42 40 42 41 42 44 45 43 42 43 44 43 42 40 40 41 42 41 38 36 34 34 29
50 55 41 44 52 54 55 56 56 56 54 54 53 52 53 51 51 48 47 44 42 41 41 43 41 40 40 43 43 42 42 42 40 38 38 38 37 37 36 36 35 33 26 26
47 52 49 46 51 52 52 53 53 53 53 51 50 49 48 47 44 43 40 40 40 41 41 41 40 38 38 40 41 41 40 40 38 37 37 35 31 33 33 34 34 31 32 32
51 49 39 35 51 48 47 50 52 49 48 49 46 43 44 45 42 41 39 40 40 39 39 39 37 38 39 39 39 40 40 38 35 34 32 30 28 30 32 32 32 35 36 36

GFSCGP_sfc_temp_030.txt.gz
Temp
59 52 48 53 56 61 59 56 52 58 63 60 58 56 59 60 61 60 56 59 63 65 69 70 69 68 67 67 64 63 61 60 60 58 57 57 57 57 57 58 59 59 58 57
54 49 57 63 64 58 56 53 52 58 62 59 56 55 58 59 62 62 62 62 63 63 65 67 67 67 67 65 65 62 62 61 62 60 58 59 58 57 56 56 56 57 57 56
51 57 63 62 58 56 54 52 52 54 57 58 54 50 52 60 62 64 66 67 67 66 66 66 65 65 65 64 62 62 61 62 62 62 60 58 57 55 54 53 54 55 57 57
53 60 60 58 56 57 50 60 57 57 51 44 51 39 49 56 59 62 62 60 65 66 68 66 66 64 63 61 62 62 63 63 62 61 60 59 59 58 53 53 53 54 56 54
53 56 55 53 57 60 54 60 57 56 50 46 48 43 48 52 56 59 61 62 62 65 67 65 63 63 64 62 61 61 62 62 62 61 59 58 56 54 53 52 52 52 51 52
57 61 61 59 63 62 63 58 54 51 47 37 47 44 44 49 57 59 62 63 64 61 63 63 62 63 61 62 61 61 60 60 61 61 59 58 54 52 51 49 49 49 49 50
55 57 62 64 57 60 57 49 37 35 32 33 50 45 47 56 59 60 62 60 60 63 60 59 60 60 60 60 60 61 61 57 56 56 54 54 52 53 52 49 49 49 50 50
45 42 56 61 58 52 53 50 36 32 29 37 50 42 50 60 64 64 62 60 59 58 62 61 60 60 60 60 59 59 59 54 54 55 53 53 53 52 50 50 52 51 50 49
44 46 57 59 62 59 53 46 53 40 38 34 41 49 57 58 57 57 56 59 56 55 57 58 58 57 55 56 56 58 58 57 54 52 54 53 52 52 51 52 51 50 49 51
52 44 54 58 62 60 57 60 45 41 33 32 39 41 44 53 56 57 54 56 56 56 57 58 58 58 58 57 56 54 57 56 54 52 52 53 53 52 51 51 51 51 51 51
52 50 48 55 52 52 52 50 50 47 38 33 29 38 52 55 58 56 55 56 57 58 59 59 60 60 60 60 57 56 56 53 52 52 50 51 52 51 52 52 51 51 51 51
55 48 36 50 59 58 55 52 50 34 38 32 30 38 56 57 58 57 57 59 59 61 61 61 60 59 58 58 56 57 55 54 54 53 50 50 50 52 53 52 52 49 50 49
54 45 34 42 51 55 52 55 53 47 38 36 29 37 58 57 58 59 57 58 61 60 59 60 59 59 59 59 58 57 55 54 53 52 51 49 51 52 52 52 49 48 46 46
56 49 43 36 44 49 46 51 52 48 33 35 35 45 53 55 56 58 58 58 58 60 61 60 59 59 60 60 59 55 53 53 53 52 51 50 53 53 50 50 47 46 46 47
54 45 47 49 51 51 50 51 52 49 47 39 45 46 54 54 53 56 58 58 57 57 58 57 57 58 57 56 54 53 53 53 53 52 51 52 53 52 50 46 46 46 46 46
53 43 41 40 49 49 46 50 50 51 50 49 49 47 53 54 54 55 56 58 57 57 58 59 59 57 56 56 54 53 53 52 52 53 52 53 52 50 48 47 46 45 46 47
46 39 35 35 42 42 34 43 49 51 51 51 41 48 52 52 54 53 53 56 55 56 56 57 56 56 55 55 54 53 52 52 52 51 52 51 49 47 46 47 46 45 44 44
42 39 33 30 32 25 45 54 53 49 49 51 51 51 51 52 51 52 53 53 54 56 56 55 54 55 54 53 53 51 52 50 51 49 48 48 46 45 45 44 43 42 42 42
49 37 33 29 29 38 48 52 50 47 44 50 49 51 51 53 51 51 55 53 51 49 47 46 46 47 48 50 51 48 47 46 45 45 45 44 43 43 42 41 40 41 41 40
45 39 34 29 27 25 41 51 56 53 35 52 51 49 50 50 35 45 52 50 47 45 45 44 44 43 43 43 44 42 40 41 40 42 43 43 42 41 40 40 40 41 41 40
32 31 29 23 24 33 47 54 54 38 38 51 51 51 50 46 46 49 47 44 44 43 43 44 43 42 42 43 44 40 41 40 42 43 43 42 41 41 42 41 40 38 36 35
36 31 27 31 25 30 52 52 44 45 48 51 51 51 49 49 48 47 46 43 42 40 41 42 41 41 43 44 43 41 41 43 43 42 41 41 42 42 41 37 36 36 33 31
38 40 34 37 36 48 51 51 52 52 50 49 49 49 51 49 47 44 41 40 40 39 39 42 42 42 42 41 40 39 41 42 41 39 38 38 38 38 37 34 33 32 31 26
46 50 40 42 47 47 49 50 51 51 48 48 49 48 49 44 43 41 40 40 39 39 40 42 41 39 39 41 41 39 39 39 38 36 36 36 34 34 33 33 32 31 26 26
45 49 46 42 44 48 48 48 49 47 46 45 46 45 43 42 40 40 39 39 39 40 40 40 39 38 38 38 38 39 38 38 36 35 34 33 29 31 31 32 31 31 31 30
48 46 38 36 49 45 44 46 47 45 44 44 42 41 42 41 39 38 36 37 39 38 39 39 38 38 36 37 37 38 38 36 34 33 32 29 28 28 30 30 31 34 34 35

GFSCGP_sfc_temp_036.txt.gz
Temp
54 49 44 48 51 54 51 47 46 48 56 55 54 51 53 54 55 54 53 54 55 57 62 62 61 61 60 60 60 60 58 57 58 56 56 55 55 55 55 55 56 56 55 55
51 45 53 56 54 54 51 48 48 53 55 53 50 50 55 54 55 56 56 56 57 59 59 61 60 60 61 61 60 59 59 57 59 59 56 56 55 54 54 54 54 54 54 53
47 51 57 57 53 52 49 47 48 48 52 50 50 46 48 54 56 57 58 59 60 59 59 61 61 61 62 61 60 61 59 58 59 58 56 53 53 52 52 51 51 52 53 53
49 55 54 51 51 53 44 54 51 50 46 42 47 38 45 49 55 56 59 56 59 60 61 61 61 60 61 61 61 61 59 58 59 58 58 55 55 52 51 50 50 50 51 50
50 50 51 49 52 55 51 53 51 50 45 43 43 41 44 48 49 55 58 59 59 61 61 61 61 63 62 60 58 60 60 59 61 60 59 56 54 53 51 50 48 47 47 48
52 55 54 54 57 56 56 51 49 46 43 35 42 40 41 44 52 58 60 61 62 61 59 61 62 61 60 57 58 59 59 60 60 59 57 56 53 50 50 47 46 45 45 45
49 51 54 57 51 53 50 45 35 34 31 32 44 40 44 53 52 55 56 60 62 62 60 57 57 58 57 57 58 58 59 60 59 58 56 55 53 53 54 50 47 46 45 44
42 40 52 56 54 50 47 46 34 31 28 35 44 38 48 53 56 55 56 56 56 55 59 59 59 60 59 58 58 59 59 60 59 58 57 55 56 54 53 50 47 47 47 47
40 43 51 53 55 54 48 42 48 36 33 32 37 45 53 52 52 53 54 52 52 54 57 60 58 59 59 58 59 59 60 61 58 58 55 53 53 52 51 49 49 48 49 49
49 42 49 52 54 54 51 53 40 37 32 30 34 36 41 50 51 50 51 53 53 51 52 54 56 57 58 58 59 58 60 58 55 53 52 52 51 52 51 50 48 48 47 49
49 47 45 49 48 48 47 44 43 43 35 31 27 36 48 51 53 53 52 53 53 53 52 53 55 57 58 58 57 56 54 52 49 50 49 48 48 50 50 50 49 50 49 50
51 45 35 46 51 53 50 47 44 33 36 30 29 35 51 52 52 52 55 54 52 53 53 53 54 53 53 54 53 53 51 50 49 49 48 48 49 49 49 50 51 49 50 49
50 41 33 40 46 49 46 48 46 42 35 33 27 36 53 52 53 54 54 55 54 52 52 52 52 52 53 52 52 52 51 50 48 49 50 49 48 49 49 50 51 49 48 46
53 43 41 37 42 46 42 46 45 43 32 34 33 41 49 52 51 54 55 52 53 53 53 52 51 51 52 52 52 50 49 48 48 49 48 47 48 51 50 48 47 46 47 46
51 42 43 44 47 47 46 47 45 43 42 38 42 41 48 50 51 51 52 51 51 50 51 51 51 51 52 51 50 50 48 47 48 48 47 47 49 47 46 46 46 45 45 45
47 41 40 38 43 43 41 45 44 44 43 43 43 43 50 48 46 48 49 50 50 51 51 52 52 51 51 51 50 49 48 48 48 46 46 47 46 45 45 45 44 44 44 43
43 38 36 35 38 40 34 40 45 44 45 46 40 46 48 45 47 46 47 49 48 47 46 46 46 47 48 49 49 46 46 46 45 46 46 44 44 44 43 43 44 43 41 41
38 37 34 29 31 25 44 46 47 45 45 46 45 45 47 47 45 45 45 46 45 44 42 41 40 42 42 43 44 44 45 43 43 42 42 44 44 43 43 42 41 40 40 39
44 36 32 31 29 36 43 45 44 44 44 47 44 44 45 46 46 44 43 42 40 39 39 38 39 39 39 40 42 42 41 42 42 41 42 43 43 42 41 40 39 39 39 39
42 37 36 27 27 26 40 47 50 49 36 48 47 44 44 45 34 41 41 40 39 39 39 38 38 39 39 39 41 40 39 39 39 40 42 42 42 41 40 39 39 39 39 39
32 30 30 22 25 33 44 48 50 37 39 47 48 46 45 44 42 40 39 38 39 38 38 39 38 37 37 39 41 39 39 38 39 41 41 41 41 41 41 40 39 37 35 34
37 32 27 26 24 30 48 47 42 44 43 46 46 46 45 40 39 38 38 38 38 37 37 38 37 37 38 38 39 37 37 39 40 41 41 41 39 38 38 35 33 33 32 30
38 40 36 38 37 46 47 46 49 47 47 47 47 46 44 40 38 38 37 36 36 35 35 37 37 36 37 38 38 36 37 39 37 35 34 34 34 34 33 32 31 31 30 26
41 43 39 40 44 44 46 45 45 46 46 46 46 45 44 39 38 36 36 36 35 35 35 36 37 36 35 38 38 37 37 35 34 33 32 32 32 32 31 31 31 29 27 27
41 44 39 38 41 42 45 44 44 42 43 43 42 42 40 39 37 37 35 35 35 35 36 38 38 36 35 35 34 34 32 32 31 32 31 31 29 29 30 30 30 30 30 31
44 43 39 40 46 46 46 43 43 42 40 41 40 38 39 39 37 37 35 35 35 35 37 37 35 34 32 32 30 30 31 31 30 30 30 28 27 26 28 28 29 34 34 35

GFSCGP_sfc_temp_039.txt.gz
Temp
61 59 54 57 58 59 57 56 54 57 62 60 59 59 58 58 58 59 61 62 62 63 68 68 68 68 69 68 68 68 67 67 67 64 64 65 65 65 64 65 66 66 66 65
58 53 59 59 59 58 57 55 54 58 60 59 58 57 59 58 59 62 62 62 63 65 65 67 67 67 67 68 68 68 68 67 68 68 68 68 67 65 66 64 65 66 64 65
54 58 61 59 57 56 56 55 53 54 57 58 56 56 56 59 60 62 64 65 65 65 65 65 66 66 67 67 67 67 68 67 68 68 67 64 64 63 61 61 64 64 64 64
57 60 59 58 57 58 53 59 57 54 53 50 55 49 53 57 59 60 63 64 65 66 67 68 67 66 66 67 68 68 68 67 67 66 67 65 66 64 63 63 64 63 62 61
56 57 56 54 57 59 57 58 57 56 53 51 51 52 55 54 56 60 63 64 65 67 67 68 69 70 69 68 66 67 68 68 67 66 67 64 64 63 60 60 59 59 59 60
58 61 60 60 61 60 60 57 54 52 51 45 49 51 53 55 59 63 65 66 67 68 67 69 71 71 71 68 67 66 67 66 66 63 64 63 63 60 58 58 57 57 58 57
55 57 61 62 59 60 58 53 46 43 42 42 49 48 55 61 60 63 64 67 69 71 70 68 68 68 69 66 66 66 66 62 62 62 62 61 60 60 60 58 55 52 53 55
48 46 57 61 60 57 54 54 45 36 37 44 48 46 58 63 65 63 62 63 65 67 69 69 69 70 68 67 66 66 66 64 60 61 61 62 62 60 61 58 54 53 56 54
45 48 58 59 61 61 54 51 54 42 39 41 46 52 61 62 63 63 62 62 63 64 65 68 69 68 68 66 65 65 66 66 61 61 62 61 61 60 59 56 54 55 54 55
54 47 55 58 60 59 58 58 48 46 37 35 43 45 51 58 60 61 62 64 64 64 63 64 66 66 67 67 67 65 66 67 66 64 62 60 61 62 59 54 54 55 54 54
54 53 50 55 54 54 53 51 49 50 45 40 37 46 57 60 62 62 62 62 63 64 65 64 65 65 66 66 66 65 66 67 66 64 62 61 59 59 56 54 55 53 53 55
56 50 44 52 57 59 57 54 52 44 42 40 39 45 60 60 61 60 62 62 64 64 66 65 64 64 64 64 64 64 64 63 63 61 58 58 58 55 54 53 53 53 54 55
54 48 42 47 52 55 54 53 51 47 44 40 39 46 59 59 62 62 61 64 63 63 64 63 62 62 62 62 60 61 61 61 59 58 58 57 55 55 55 54 55 55 55 55
57 48 47 44 49 52 48 50 50 51 42 43 44 51 58 62 60 63 63 62 62 63 62 62 60 61 61 60 61 61 58 57 56 57 57 56 55 55 55 54 53 51 51 49
56 47 47 50 52 52 52 51 49 49 50 46 51 48 57 60 61 61 59 59 60 59 59 59 60 60 60 60 59 58 57 56 57 56 56 54 55 55 54 52 48 47 47 48
51 47 47 45 48 50 48 51 50 50 49 50 50 50 59 59 59 57 55 56 55 54 54 55 57 58 58 58 59 56 55 55 56 55 54 54 51 50 48 46 45 44 45 46
48 43 42 41 44 46 39 46 50 50 51 52 47 56 57 55 55 54 53 54 51 50 50 50 50 51 52 54 55 54 54 54 53 53 52 51 48 46 45 45 45 42 43 44
43 43 41 37 37 34 51 53 54 52 53 54 53 55 56 55 51 51 53 53 49 48 47 46 48 48 49 51 51 51 51 50 50 49 49 49 48 45 45 44 44 42 42 42
48 41 36 36 38 43 48 50 50 49 54 56 54 53 52 51 52 48 46 48 46 45 45 45 46 46 48 48 49 49 49 49 48 47 47 47 46 46 46 42 42 45 44 45
43 44 43 34 35 34 48 54 55 57 44 55 54 51 50 51 49 52 46 45 44 44 45 45 45 46 46 46 48 47 46 46 45 46 47 48 49 48 46 45 43 42 41 41
39 37 37 32 37 41 50 54 55 44 50 53 54 53 52 51 52 49 45 43 44 44 44 45 46 44 45 47 47 45 45 43 46 46 46 45 44 42 42 43 45 45 44 43
41 38 36 34 35 37 52 51 48 54 53 53 53 53 51 45 43 43 43 42 42 43 43 45 44 43 45 46 45 42 41 44 45 43 42 43 44 43 43 43 43 43 42 41
41 45 43 45 45 53 52 56 56 54 55 52 54 53 48 43 43 42 41 41 42 43 43 44 43 42 43 44 45 42 42 44 43 42 41 41 41 41 41 41 41 41 41 39
44 47 46 47 51 51 52 53 54 54 54 54 55 53 50 46 43 41 41 41 41 42 42 43 42 40 39 41 40 41 41 41 41 40 39 39 39 39 40 41 40 40 38 37
45 47 44 46 48 48 51 52 53 50 50 49 50 50 48 44 42 42 40 40 41 41 41 42 40 38 37 37 36 36 38 40 39 38 37 37 36 36 37 38 37 36 38 36
47 47 43 44 54 53 55 55 49 48 48 48 46 44 45 45 42 42 40 41 41 40 40 39 37 35 34 33 32 35 37 37 36 35 34 32 33 33 34 34 34 33 32 32

GFSCGP_sfc_temp_042.txt.gz
Temp
71 67 63 68 69 69 66 65 63 68 72 67 68 69 72 72 70 70 71 72 71 73 75 74 75 77 77 76 75 75 73 74 75 72 73 75 74 77 75 75 75 73 76 74
66 63 68 68 68 66 65 63 63 66 68 67 70 67 72 73 70 72 73 73 73 74 75 75 75 76 75 76 75 75 75 75 75 77 77 77 77 77 77 76 74 74 74 74
64 67 68 66 65 63 64 63 62 62 66 68 65 64 66 71 72 73 74 77 77 76 75 75 74 76 76 75 75 76 77 77 77 77 78 78 78 76 74 71 70 72 72 73
66 70 66 66 64 66 60 68 65 63 61 58 64 55 64 70 69 70 73 74 77 77 78 79 77 77 76 77 78 77 78 78 78 78 77 74 74 73 74 72 72 73 71 72
63 65 64 63 65 68 63 66 64 64 63 61 61 59 65 67 68 72 73 75 77 80 79 79 79 80 80 78 77 77 77 77 77 76 76 74 73 77 77 73 71 70 69 69
69 71 69 68 68 69 68 64 63 63 63 52 59 59 63 67 70 73 77 78 78 79 80 81 83 82 81 80 78 76 76 76 76 74 72 72 72 73 68 69 68 68 67 67
64 65 70 69 64 67 66 62 51 49 49 48 59 57 63 71 72 73 74 77 79 80 80 81 81 82 82 80 77 76 76 75 71 68 65 66 68 70 66 67 67 65 64 61
56 52 65 70 66 64 64 63 52 40 44 52 56 53 65 72 74 75 75 76 77 79 81 82 82 82 82 81 79 75 73 71 71 68 62 66 67 64 64 68 67 65 60 60
56 57 67 68 70 70 61 57 64 53 50 50 58 61 70 71 71 73 74 74 76 77 80 81 82 83 82 81 79 76 75 73 73 69 64 65 66 65 65 67 68 63 59 58
63 54 63 64 68 66 65 68 54 57 42 41 53 55 62 65 69 72 74 76 77 77 77 77 79 80 80 81 79 77 77 77 76 71 67 65 67 66 66 65 64 60 60 60
68 62 57 62 61 62 61 59 60 60 56 46 44 53 70 69 71 72 73 75 77 78 78 76 77 78 78 78 78 76 76 77 77 74 72 66 67 67 65 64 64 62 61 57
68 62 53 59 65 67 68 64 63 52 50 52 49 53 73 73 73 73 74 74 76 77 78 79 77 76 76 75 76 75 76 76 77 76 74 70 66 64 61 60 60 59 57 55
65 58 50 53 58 63 61 64 64 61 56 52 45 54 71 71 71 75 74 76 74 74 77 77 75 75 75 74 73 73 73 73 74 73 71 68 64 59 57 56 55 54 54 55
63 62 56 49 56 63 57 61 63 60 51 53 54 59 68 71 72 75 75 74 74 74 75 76 74 74 74 72 72 72 70 69 67 68 67 65 64 63 63 60 58 56 55 56
65 56 60 62 64 65 63 63 61 59 60 54 59 61 66 71 73 75 71 70 69 69 70 70 73 73 73 71 69 69 67 67 67 66 66 63 63 63 62 60 60 59 59 55
65 57 58 55 61 61 59 63 64 63 63 62 63 62 73 75 73 71 68 67 66 65 66 67 69 69 68 68 68 65 65 64 66 64 63 62 61 59 57 55 54 49 48 48
58 56 52 49 57 56 46 55 61 63 64 63 57 66 73 71 69 70 67 66 64 62 63 63 63 64 65 65 66 64 63 63 63 61 60 59 57 54 52 50 49 45 49 44
55 54 54 48 42 36 60 65 68 64 66 69 67 70 71 71 71 66 68 65 61 61 60 60 61 61 63 63 62 62 62 61 59 58 57 56 55 52 52 51 50 47 47 46
61 56 48 42 45 55 56 58 59 59 62 71 69 71 71 66 63 58 60 64 61 59 59 59 60 60 61 61 61 60 60 59 57 56 55 55 55 54 53 52 51 52 52 50
55 54 52 43 43 38 58 68 69 67 54 72 70 68 67 62 55 64 58 57 56 58 58 57 58 59 59 59 60 58 57 56 54 55 55 55 55 54 52 51 47 43 43 44
45 46 43 46 44 53 63 64 66 51 57 69 71 69 65 60 66 62 58 56 57 57 56 57 58 57 57 58 58 55 55 52 54 53 51 49 47 45 47 51 52 53 52 51
46 45 42 48 41 41 62 61 58 67 65 69 67 68 64 63 58 56 56 54 54 54 54 56 54 54 55 56 55 51 47 49 50 48 47 51 51 50 51 50 51 50 50 47
45 54 53 54 54 67 64 70 70 71 71 66 68 68 66 56 55 55 54 53 54 55 55 55 54 52 53 55 54 50 49 50 50 50 49 49 49 49 49 49 48 49 48 46
54 52 49 52 64 62 65 70 68 68 69 69 69 67 62 58 56 54 53 53 53 55 54 54 51 49 48 51 51 50 50 51 49 48 47 47 45 46 47 49 47 46 43 41
60 53 55 56 64 60 63 66 69 66 64 63 67 65 62 59 56 54 53 52 54 54 52 52 49 47 46 47 46 48 48 49 47 45 45 44 43 44 45 45 43 40 41 35
58 57 51 53 66 63 70 71 69 65 60 63 63 61 62 59 55 55 52 53 52 50 50 49 47 45 44 43 43 43 45 46 45 42 42 38 40 41 43 42 42 32 32 31

GFSCGP_sfc_temp_045.txt.gz
Temp
76 69 65 71 74 73 71 69 66 68 76 71 70 72 68 77 76 74 74 73 72 70 71 73 72 74 73 74 74 75 73 73 72 72 75 76 74 77 79 81 80 79 78 76
71 64 74 74 73 70 69 67 67 71 74 71 71 69 76 77 76 77 76 76 74 76 74 73 75 78 77 77 77 76 75 75 74 74 77 79 78 79 80 80 77 75 77 77
66 71 74 70 69 67 68 66 64 65 71 74 71 68 72 77 78 79 79 79 78 77 76 75 76 78 78 78 77 78 78 78 78 79 80 80 80 80 78 79 78 74 76 78
69 76 70 69 68 70 63 73 68 67 65 58 69 51 59 73 74 75 78 78 79 80 80 79 78 77 78 79 80 80 80 80 76 80 78 77 77 76 78 76 74 74 74 75
66 69 67 66 69 72 66 71 69 68 65 65 65 61 64 74 71 74 77 79 81 82 82 80 79 80 81 80 80 79 80 81 81 80 79 78 76 78 80 79 74 73 75 74
71 79 75 73 74 73 74 68 68 68 65 53 63 63 56 68 72 76 80 81 81 83 83 83 84 83 82 82 80 80 79 80 81 81 79 77 75 76 75 72 72 74 73 72
67 69 74 75 67 72 70 64 52 50 50 49 62 61 64 63 77 77 78 82 83 84 83 83 83 84 83 82 80 80 79 79 80 78 73 74 73 72 65 67 68 69 69 68
58 55 68 74 69 66 66 65 54 37 46 52 63 56 64 77 79 80 82 82 83 84 84 84 86 85 85 84 82 80 80 79 80 75 70 69 71 68 67 64 63 63 63 63
59 60 74 74 74 73 66 60 70 54 58 52 60 66 73 77 76 78 79 80 82 83 85 86 87 87 87 86 84 81 79 80 80 74 65 65 70 69 68 66 66 63 62 65
67 57 70 71 74 74 69 73 57 59 44 42 56 59 61 68 71 75 77 79 81 82 83 85 87 87 88 88 86 83 81 80 77 70 71 71 70 69 69 67 65 63 65 63
71 64 62 68 63 64 65 62 64 63 57 46 46 56 71 71 74 74 77 79 80 82 82 82 84 86 87 88 86 84 82 82 77 75 73 73 72 70 67 65 64 64 62 60
71 65 55 60 71 74 70 66 65 53 53 56 53 55 76 76 78 77 78 79 81 82 83 84 83 82 82 82 83 82 81 81 82 73 72 72 71 71 64 63 62 62 61 62
69 61 52 56 63 69 65 68 69 66 63 54 46 54 76 76 76 78 78 80 81 81 82 83 82 80 80 80 80 80 79 80 81 81 74 69 65 62 61 60 59 58 58 58
65 64 58 51 58 65 59 64 67 64 53 54 56 61 70 73 74 78 79 81 80 81 81 82 81 80 80 78 78 77 77 78 78 77 76 71 64 62 61 59 57 55 54 54
66 57 61 64 67 67 65 64 65 63 63 56 61 64 70 74 76 78 77 78 77 77 78 80 80 80 78 76 76 75 73 72 73 72 72 66 66 66 64 62 60 58 57 55
68 57 61 58 65 66 62 66 67 67 66 65 66 65 76 78 80 78 77 76 76 75 75 76 78 77 75 73 73 71 70 69 70 69 66 66 65 64 62 61 59 58 57 55
62 58 55 50 61 61 51 60 65 67 69 67 60 68 76 75 76 76 76 76 74 73 72 73 73 73 73 71 70 68 68 68 67 65 64 62 61 59 57 57 56 54 53 53
60 57 56 49 46 39 60 71 71 66 69 72 72 73 76 76 79 78 77 76 71 70 69 69 69 69 70 71 69 68 68 66 64 63 61 60 58 56 57 56 55 54 53 52
63 58 51 45 47 55 62 66 65 64 64 74 72 74 77 78 74 69 73 75 71 69 69 69 70 69 68 68 68 67 65 64 62 60 59 59 59 57 57 55 53 53 52 52
61 60 52 49 43 39 58 69 75 74 55 74 75 74 73 73 59 69 69 70 68 68 67 66 67 67 66 66 67 64 62 61 59 59 59 59 59 57 54 52 51 50 50 51
44 46 44 47 46 54 68 72 76 53 57 75 76 75 74 69 71 72 68 65 67 66 65 65 66 64 64 65 64 62 60 58 59 59 57 55 55 53 53 54 55 55 54 54
46 45 43 48 45 41 67 67 60 67 74 75 75 76 73 74 67 66 65 64 64 63 63 65 62 62 63 64 62 59 57 57 56 54 53 54 55 55 55 54 53 53 53 50
46 54 51 55 55 67 67 69 73 77 76 75 75 77 74 69 65 64 63 63 63 63 64 64 62 60 60 61 59 55 54 55 55 55 53 53 53 54 54 53 51 52 51 47
62 61 54 57 64 67 68 70 74 76 75 78 78 77 74 67 65 63 63 62 62 64 63 63 59 57 56 58 58 56 56 56 54 52 52 52 51 50 51 52 51 49 45 43
61 61 57 59 66 68 72 71 72 75 75 75 75 76 73 69 65 64 62 62 63 63 62 59 57 55 55 56 55 55 55 55 53 51 50 48 47 49 48 48 45 42 38 35
66 60 55 54 66 65 66 73 75 73 73 71 70 72 72 69 65 64 62 62 62 60 58 56 55 53 52 52 51 52 54 53 50 46 46 44 44 44 47 46 41 32 33 32

GFSCGP_sfc_temp_048.txt.gz
Temp
72 64 60 66 70 71 70 66 64 67 72 67 69 69 59 59 68 71 70 68 67 66 68 68 69 67 66 64 65 65 64 64 64 64 65 66 67 69 70 71 72 72 72 71
67 61 70 74 74 70 68 65 65 71 74 71 70 69 65 59 67 73 71 69 68 68 67 68 67 69 67 66 66 66 67 66 66 66 68 70 70 70 72 72 73 72 70 71
62 68 76 72 69 66 66 64 65 63 70 73 69 65 67 72 76 76 76 75 72 69 66 67 68 68 69 67 67 68 69 69 70 69 71 72 72 70 69 70 69 70 70 70
67 74 72 69 66 69 61 72 70 66 63 56 68 51 65 70 66 74 75 74 73 74 70 69 69 69 69 71 71 72 72 72 72 72 70 70 70 69 69 68 70 70 69 68
64 68 68 65 67 72 65 72 68 67 63 62 61 56 63 70 66 71 74 75 75 75 75 71 72 74 74 74 73 73 74 74 74 74 72 70 69 69 70 70 68 68 67 68
69 78 74 71 73 74 75 69 67 66 62 49 61 60 54 60 61 71 76 77 77 77 77 77 76 76 76 77 75 74 74 75 75 73 72 68 67 69 67 66 65 65 66 66
66 68 75 76 68 73 70 62 49 47 47 46 64 59 60 66 69 74 76 77 78 79 78 78 77 76 76 75 74 74 74 74 75 72 72 70 68 68 67 66 63 61 60 60
55 52 67 74 68 64 64 62 50 37 37 45 59 54 62 73 78 79 81 81 81 79 79 79 79 77 77 75 75 74 74 73 75 73 70 70 70 67 66 66 62 61 61 61
55 57 73 73 73 70 64 57 67 50 51 45 52 59 70 75 75 77 78 79 78 80 80 80 81 79 78 77 75 74 75 75 75 73 70 67 66 66 65 63 63 61 61 61
63 55 69 72 74 72 67 71 55 57 41 39 53 57 58 66 70 74 75 76 78 80 81 81 82 81 81 80 78 75 75 75 76 75 69 69 66 65 66 65 63 63 61 60
66 60 61 69 64 62 63 61 61 61 56 43 42 51 59 66 73 73 75 77 78 79 78 79 80 82 82 82 80 77 77 77 75 74 69 67 67 67 66 63 63 63 60 58
66 60 53 60 70 72 69 64 63 51 49 53 47 51 74 70 75 76 76 78 79 79 81 79 79 80 79 79 81 78 77 77 71 70 69 68 68 67 62 61 60 59 57 57
65 57 48 54 61 68 63 66 66 64 61 52 41 50 75 76 75 77 75 77 78 78 80 80 79 78 78 77 77 78 77 76 70 74 69 68 65 62 60 58 57 57 56 56
60 60 54 46 54 63 58 63 64 60 48 49 52 58 66 71 71 75 75 77 78 78 79 79 78 77 77 76 76 75 74 75 73 70 67 61 59 58 57 55 53 52 52 51
63 54 58 60 64 65 63 62 63 61 62 54 58 60 67 71 71 71 76 77 77 77 78 78 78 77 76 74 74 74 70 69 69 68 64 59 59 59 57 56 55 53 53 52
65 54 56 52 61 63 59 62 65 64 65 64 65 63 74 77 76 75 77 77 75 76 77 77 78 78 74 74 72 70 68 67 68 64 63 62 61 60 58 56 55 54 52 50
58 55 51 44 57 57 48 59 63 65 68 66 58 66 74 73 74 75 76 77 76 75 75 74 75 74 72 71 69 67 66 67 65 63 63 61 59 56 54 54 53 51 48 48
56 54 51 40 43 37 58 69 69 64 66 69 70 72 74 75 77 78 78 75 74 73 72 72 72 70 68 68 67 66 66 63 62 60 59 58 56 54 54 53 51 48 48 46
60 54 45 40 41 51 59 64 63 60 60 70 69 72 75 77 74 72 75 75 72 71 70 69 70 69 68 66 66 65 63 62 60 58 57 57 56 54 53 51 49 50 50 49
58 56 47 43 38 36 54 66 71 70 51 71 72 70 72 74 57 65 71 72 70 70 69 68 68 67 65 65 65 62 60 59 57 57 57 58 57 54 52 50 49 47 47 47
44 43 40 42 40 48 64 68 71 50 52 70 73 72 72 66 68 69 70 69 70 69 67 67 66 64 64 65 63 60 59 57 58 58 57 55 54 51 51 50 49 49 48 47
39 39 39 43 40 38 65 65 57 63 67 71 72 73 70 71 66 67 68 66 66 65 65 65 63 62 63 64 61 59 56 57 56 54 51 51 52 54 53 49 48 48 46 42
41 47 43 50 50 61 64 63 68 70 70 70 70 74 73 66 65 66 64 64 64 65 63 64 62 60 61 62 61 56 54 54 52 52 52 51 52 52 51 48 45 45 43 38
59 59 50 49 55 59 64 65 68 70 67 73 75 75 73 65 65 64 64 63 63 64 63 63 60 58 57 59 58 55 54 54 53 50 49 49 47 47 47 48 46 41 35 33
56 61 56 55 59 63 66 62 65 68 71 72 72 72 69 68 66 65 63 63 63 63 63 61 57 56 55 56 54 55 54 54 51 49 48 45 43 44 43 38 38 33 32 31
62 58 52 50 62 59 61 64 69 67 68 71 70 68 70 70 66 65 63 63 63 62 60 58 56 55 54 54 52 53 53 52 48 45 42 38 38 39 42 38 34 34 32 32

GFSCGP_sfc_temp_051.txt.gz
Temp
62 53 48 53 58 61 60 58 55 60 65 61 53 54 54 58 57 56 58 57 57 57 60 58 58 57 56 56 56 57 57 59 60 59 61 61 62 63 62 63 66 66 67 66
57 52 61 65 65 64 62 56 55 64 69 60 53 51 54 57 56 61 60 58 58 59 60 60 58 58 58 58 58 58 59 60 60 60 65 64 64 63 66 66 65 67 67 67
54 59 67 65 62 61 59 56 55 57 62 62 56 47 52 58 62 63 64 63 62 60 59 60 58 59 59 58 59 60 61 62 63 62 63 65 65 63 61 61 65 67 68 66
58 66 64 64 62 62 53 64 63 61 54 45 55 40 51 58 57 60 65 62 63 61 62 63 61 60 60 60 62 63 63 63 65 65 63 63 63 63 65 62 63 64 66 65
56 61 61 60 62 65 58 65 62 59 53 49 51 44 51 58 53 55 62 63 64 63 62 63 63 63 63 63 63 64 65 65 66 65 65 63 62 66 64 65 61 64 62 63
61 68 66 64 68 67 67 62 60 56 51 38 51 49 47 55 58 61 65 66 65 65 63 65 66 67 66 66 64 64 65 65 66 66 66 66 64 63 63 61 63 62 61 61
58 61 68 69 60 64 61 52 39 35 34 34 54 51 49 59 63 66 66 67 68 68 65 64 65 65 67 67 66 66 67 66 67 67 67 66 63 64 65 60 62 59 60 58
47 44 61 68 63 57 56 53 38 31 29 38 52 45 52 64 66 68 70 72 71 70 69 66 67 68 69 69 69 68 68 68 69 68 67 68 67 64 63 62 59 61 61 60
48 50 65 68 69 64 55 49 57 45 43 37 44 51 62 65 65 66 68 69 68 69 71 69 70 70 71 71 71 69 70 70 70 69 67 67 66 66 64 60 60 60 58 57
55 47 62 66 69 66 61 62 47 46 33 31 44 45 47 55 63 65 63 63 66 67 70 72 72 71 72 73 73 71 71 71 72 68 67 68 68 61 61 60 58 59 58 57
61 53 52 60 59 58 55 54 54 51 44 34 32 41 54 58 63 64 63 67 66 66 68 66 70 72 74 74 72 70 69 67 69 69 69 67 64 60 61 60 60 59 58 56
62 53 44 52 64 69 62 56 55 40 42 41 34 40 63 62 65 65 67 68 67 67 69 69 69 68 68 72 67 67 67 65 67 67 66 65 62 61 60 59 59 59 57 55
60 48 41 45 54 63 59 60 60 55 49 39 33 40 66 65 65 67 64 66 67 69 68 67 68 69 68 67 69 67 65 65 67 68 66 62 61 62 60 58 57 56 54 55
61 52 46 40 47 56 51 56 59 54 39 42 40 47 57 63 62 65 64 64 65 67 70 66 65 67 68 67 66 67 67 67 67 67 62 58 58 56 56 55 54 53 54 53
58 46 52 53 57 59 58 57 58 55 53 44 49 53 58 62 60 63 66 68 67 67 68 67 65 65 65 65 63 63 62 63 63 61 58 56 55 55 55 53 52 52 51 51
56 45 50 48 55 56 55 59 57 56 57 56 56 54 64 66 66 64 68 68 67 67 69 70 69 66 66 65 62 62 60 59 60 57 56 57 57 56 54 53 51 51 49 48
50 45 43 38 51 51 41 49 57 57 60 58 49 56 64 65 65 66 64 67 67 67 67 67 67 66 64 63 62 59 59 59 58 57 58 57 55 53 53 53 51 48 44 42
44 46 41 35 41 33 51 62 62 59 61 61 60 59 63 66 66 66 66 65 65 65 65 64 63 60 61 61 61 59 59 57 56 54 54 54 52 50 50 49 47 43 42 41
49 43 36 36 38 44 52 58 57 55 54 61 59 61 63 65 64 58 65 65 62 62 60 59 59 60 58 59 59 58 57 55 54 52 52 51 50 49 47 45 44 43 43 42
49 48 39 33 33 32 45 58 64 62 45 61 62 60 61 60 46 53 61 62 60 60 59 58 58 58 58 56 58 56 54 53 52 52 52 52 51 49 46 45 44 43 45 45
39 36 35 29 29 38 54 62 64 44 45 62 63 62 60 56 55 60 60 59 60 60 59 58 57 56 55 56 56 53 52 51 53 53 51 49 48 46 46 46 44 43 42 41
37 35 32 35 32 31 53 57 51 53 61 63 63 62 61 60 58 59 59 60 59 57 57 57 55 53 54 55 55 51 49 50 51 49 48 48 48 49 47 43 42 42 40 36
37 41 37 41 38 52 53 53 58 62 61 59 60 63 62 58 56 57 56 56 57 56 54 55 53 52 53 53 54 49 48 49 48 47 47 46 46 46 45 42 39 39 36 33
46 49 42 43 50 54 58 58 60 59 59 62 64 61 62 60 59 58 56 55 55 53 53 53 52 50 49 51 51 49 49 49 47 45 44 43 42 41 40 41 38 34 29 29
45 49 47 46 52 56 57 59 59 61 61 61 64 62 61 58 56 58 56 55 54 54 53 53 51 49 48 49 49 49 48 47 46 44 42 40 38 35 33 33 32 29 30 31
50 47 41 38 55 53 56 60 60 60 61 64 61 62 64 60 57 57 56 56 55 53 51 51 50 49 47 47 46 46 46 45 42 39 37 33 33 34 34 31 30 33 32 33

GFSCGP_sfc_temp_054.txt.gz
Temp
58 53 46 50 52 54 54 52 50 56 63 58 53 52 54 55 55 53 53 52 52 53 54 54 57 57 58 58 58 58 58 58 59 59 60 60 59 60 60 61 63 63 63 65
54 51 57 59 58 56 55 52 52 58 63 61 50 52 51 53 54 55 54 53 53 54 53 54 54 55 56 56 57 58 58 59 60 60 61 61 61 58 60 61 62 62 63 63
51 56 62 59 57 55 55 52 52 54 60 57 53 48 49 56 58 61 60 57 57 55 53 54 54 53 56 55 54 56 57 58 59 59 60 58 58 58 58 59 60 62 62 63
54 63 60 57 56 57 50 60 58 57 51 44 52 39 47 52 54 58 59 56 56 57 58 56 55 54 54 55 57 58 58 59 59 59 60 60 61 61 63 60 62 62 62 63
52 56 56 54 57 61 55 61 58 57 49 45 47 42 47 53 50 55 58 58 58 58 58 57 57 57 57 58 57 58 59 60 61 61 61 60 58 61 62 60 58 61 60 63
57 63 60 59 63 62 65 58 55 51 47 37 47 45 42 47 55 57 61 62 60 59 59 60 60 60 59 58 58 58 58 60 61 61 61 60 58 59 60 58 57 58 61 60
55 56 62 64 57 60 58 49 37 35 33 34 50 45 47 56 60 61 61 61 62 61 60 60 59 59 60 58 58 60 60 59 61 61 61 62 60 60 60 60 59 58 60 58
44 41 56 62 58 54 53 51 37 32 29 36 48 42 51 61 62 66 65 65 65 63 62 61 61 61 61 61 61 60 61 61 62 62 62 62 63 63 63 63 60 59 61 61
42 45 61 63 64 60 54 48 54 42 40 35 41 49 57 60 60 62 63 66 64 63 63 62 63 63 63 63 62 61 62 63 63 63 62 62 63 63 63 63 60 60 60 58
51 43 57 62 62 61 58 60 44 42 33 30 39 44 45 53 59 61 60 63 64 66 65 64 64 64 65 66 64 63 64 63 65 65 64 64 64 64 65 60 60 59 58 56
56 48 49 56 53 52 52 50 51 49 42 33 31 40 51 54 60 59 60 63 62 65 67 66 66 66 67 68 66 65 64 65 66 66 66 65 64 64 60 60 60 59 59 57
56 50 43 49 58 61 55 54 52 40 39 39 33 41 58 58 62 63 64 64 62 65 68 69 68 68 68 68 67 67 66 66 67 67 68 65 64 61 60 59 59 60 58 57
56 46 36 44 52 56 52 56 57 51 45 39 33 39 59 59 61 63 62 61 63 63 62 64 64 67 68 68 68 67 67 67 67 67 65 63 61 61 60 60 60 58 56 55
52 49 47 40 44 50 48 54 57 52 36 40 40 46 55 59 61 65 63 64 62 62 65 63 62 62 65 67 68 67 66 67 68 66 62 62 60 60 62 61 58 57 56 54
51 45 49 52 55 55 54 53 54 51 49 44 48 49 55 57 59 61 63 63 64 64 63 62 63 61 61 60 64 67 65 64 64 63 62 58 60 60 59 60 56 54 54 53
49 41 46 44 53 54 50 54 55 54 54 53 52 50 60 64 62 60 63 64 63 63 64 64 64 63 62 61 62 62 62 62 63 61 60 58 56 55 55 53 52 51 50 50
43 40 37 39 49 50 40 48 51 54 54 54 46 54 61 60 61 61 61 63 63 63 63 63 65 63 62 60 60 57 58 58 59 58 57 56 55 53 52 52 50 48 47 47
43 40 38 33 38 32 49 60 57 54 58 58 58 59 60 61 62 64 65 64 62 62 63 62 60 59 59 58 57 56 56 56 56 56 55 54 53 52 51 50 47 45 46 44
47 41 33 30 35 42 49 53 53 51 50 59 58 59 61 63 59 56 63 63 63 61 59 58 57 56 56 56 56 55 54 53 52 51 52 52 51 49 49 47 46 43 41 40
46 46 36 34 30 31 44 55 59 58 40 58 60 59 59 58 45 53 62 61 60 59 57 55 54 54 54 53 55 53 51 51 49 50 49 49 49 48 45 44 42 40 41 41
35 35 33 32 29 35 48 54 61 43 44 57 60 60 61 54 55 60 60 58 57 56 56 54 56 55 53 54 54 51 50 49 50 50 49 47 46 44 44 43 43 43 42 41
34 33 32 33 31 29 51 55 48 49 52 57 59 58 57 58 58 56 57 56 55 55 54 54 52 51 51 53 53 49 47 49 49 48 46 45 45 46 45 43 40 40 38 35
35 39 36 37 36 50 51 53 53 56 54 55 54 58 59 55 56 55 55 55 55 55 52 53 51 49 49 50 51 47 45 47 47 46 45 44 44 44 42 40 37 37 36 33
43 48 39 41 48 51 55 54 56 56 55 57 58 59 59 57 55 55 53 52 53 53 52 50 51 49 46 48 49 47 47 48 46 44 42 42 40 37 37 37 36 34 30 31
44 46 45 44 49 53 55 57 58 57 57 58 60 59 57 57 56 55 53 52 54 53 51 53 51 48 45 47 46 47 47 47 44 42 40 35 34 34 32 30 30 30 30 31
47 44 40 38 51 51 52 57 58 58 59 61 58 57 57 57 57 56 53 54 54 52 50 50 47 46 45 45 45 44 45 44 40 37 34 31 31 31 31 30 29 33 33 32

GFSCGP_sfc_temp_057.txt.gz
Temp
56 49 46 52 51 51 50 47 45 51 58 55 52 49 53 53 52 50 50 50 50 50 52 52 57 58 58 57 57 58 56 57 57 61 57 58 58 60 61 62 64 63 63 62
51 47 56 56 55 52 50 47 47 53 59 55 53 51 52 51 51 52 52 50 50 51 51 52 56 56 56 56 57 58 58 58 58 60 63 62 60 60 61 62 62 63 62 62
47 53 60 56 52 50 50 47 48 49 55 52 49 48 47 54 54 56 55 54 53 52 51 51 53 53 56 55 56 57 58 59 60 61 60 59 60 60 59 60 60 61 62 62
50 59 56 53 52 52 45 55 54 52 48 42 49 37 47 49 52 54 55 53 53 53 53 52 54 51 53 56 57 57 56 57 58 60 59 59 60 60 57 58 59 60 60 60
49 52 53 52 54 56 50 56 54 52 47 43 44 39 45 48 49 54 55 55 54 55 54 52 52 52 54 56 52 55 56 57 58 57 58 56 54 56 57 58 57 57 58 59
55 57 56 55 59 58 60 54 51 47 44 35 44 42 40 44 51 56 57 57 56 56 55 55 55 55 53 54 53 53 55 56 58 57 56 56 55 54 55 55 55 56 56 58
51 51 56 59 53 56 53 46 35 34 32 33 46 41 44 53 57 60 59 59 58 58 56 56 54 53 54 53 53 54 55 55 57 57 58 58 57 56 56 57 56 55 54 55
41 37 52 58 55 52 51 48 35 31 29 35 45 39 48 57 62 62 62 63 61 58 59 57 57 56 56 56 55 55 56 56 58 57 58 58 59 59 58 58 58 56 57 58
40 42 57 58 60 58 50 44 52 39 37 33 39 46 54 58 58 56 57 59 59 58 59 59 59 59 58 58 57 56 57 57 58 59 58 58 59 60 59 59 59 59 57 58
47 40 55 58 58 58 55 56 42 40 31 29 36 39 42 51 56 57 56 56 59 62 60 60 61 60 60 60 59 58 59 59 60 59 60 60 60 60 62 61 60 59 59 58
53 45 46 54 49 49 49 47 47 47 39 32 30 36 49 53 56 57 58 58 59 61 61 61 62 63 62 62 60 59 59 60 60 61 62 61 61 61 61 60 61 59 58 59
52 45 41 47 56 57 54 50 49 38 37 36 31 41 55 55 56 57 58 60 58 60 63 64 63 63 63 62 61 60 60 60 61 62 63 62 62 62 61 61 61 60 59 59
51 43 38 42 47 52 49 51 52 48 42 36 33 40 56 56 56 58 59 59 61 59 59 63 63 62 63 63 63 62 62 61 62 63 63 62 62 61 61 61 60 61 61 59
50 45 42 37 43 49 46 51 53 49 37 38 40 47 52 55 57 59 60 61 59 60 60 60 61 63 64 64 64 64 63 63 63 63 63 62 62 61 61 61 61 61 62 58
47 38 42 47 51 53 52 50 50 47 48 43 47 45 54 56 57 60 62 60 61 60 59 59 60 62 63 63 65 66 65 64 64 63 63 63 62 60 61 60 61 60 57 56
49 37 38 39 49 50 48 52 53 52 50 48 49 47 56 60 60 57 60 61 60 60 61 62 62 62 61 62 64 64 64 64 64 63 63 62 60 59 59 60 57 55 53 53
42 38 36 32 41 45 38 46 51 51 52 51 44 50 58 57 57 58 60 59 60 62 62 61 62 63 64 64 62 60 62 60 60 62 60 58 58 58 57 54 52 51 51 49
40 39 37 32 35 28 45 55 57 52 54 55 54 55 58 59 59 60 59 59 61 61 61 60 60 61 62 57 56 54 55 57 58 58 57 57 56 54 52 51 49 47 47 46
45 40 33 32 31 36 47 50 49 49 51 56 55 58 60 59 55 56 63 59 61 61 62 60 58 57 56 55 53 53 53 56 56 55 54 54 53 51 50 48 47 46 45 45
42 40 35 32 28 28 39 51 58 56 43 55 58 57 56 56 46 52 60 59 59 58 57 56 54 53 53 51 53 52 50 52 52 52 52 52 51 50 48 46 45 44 45 43
36 34 33 33 31 33 45 51 54 38 43 53 58 59 55 53 60 62 58 58 56 55 55 53 53 54 52 52 52 49 48 48 51 50 50 49 49 48 47 45 44 44 43 38
31 31 32 33 30 28 48 47 40 47 52 53 54 54 52 54 57 57 60 56 55 54 53 53 51 50 50 51 52 48 47 46 47 46 45 46 46 46 45 43 42 41 36 33
32 35 31 34 35 46 49 48 51 50 51 54 54 55 53 52 53 54 54 53 55 54 51 51 51 48 48 49 51 47 44 46 45 44 43 44 44 43 42 39 37 35 34 31
38 43 37 37 44 48 53 53 55 56 55 56 56 55 56 53 53 53 52 52 52 49 49 48 49 48 46 47 47 46 46 46 44 42 42 42 37 35 36 36 36 34 34 32
39 42 39 39 45 50 53 55 57 57 57 56 58 58 57 55 54 54 53 52 51 50 49 49 48 46 44 45 45 46 46 45 42 40 37 35 33 32 31 31 33 32 32 33
40 38 36 32 43 41 47 51 51 53 54 56 55 56 54 55 55 54 53 52 50 49 48 46 44 44 43 44 43 43 44 43 39 35 34 33 31 32 32 30 28 32 33 32

GFSCGP_sfc_temp_060.txt.gz
Temp
52 46 43 50 49 49 48 44 42 47 53 50 50 48 54 51 49 49 50 51 50 49 51 53 55 57 56 57 57 57 56 56 57 59 58 57 57 59 60 61 62 63 62 62
48 45 53 56 53 51 48 43 44 50 55 52 48 49 51 49 49 51 51 50 49 49 52 54 56 56 56 55 57 57 58 57 57 59 63 59 57 59 61 61 62 63 62 61
47 50 57 54 49 48 46 44 44 46 50 50 46 46 48 52 51 52 52 52 51 50 51 53 54 55 55 55 56 57 58 58 58 58 58 59 59 57 59 59 60 61 62 61
48 55 53 50 49 50 43 52 51 49 44 38 46 34 45 48 50 51 52 51 51 51 52 53 54 53 55 56 57 58 59 59 60 59 58 59 61 57 59 59 61 61 61 59
47 48 50 48 50 53 50 53 50 49 43 40 41 37 43 46 50 52 52 52 52 52 52 51 52 54 56 57 57 57 56 59 60 58 59 56 53 57 57 59 59 59 58 58
51 53 53 54 56 55 58 52 48 44 42 33 43 40 38 44 51 53 54 55 54 52 52 53 53 52 51 52 53 56 53 55 57 57 57 56 55 54 54 54 54 55 55 56
48 49 52 56 50 52 51 44 34 32 31 32 44 39 45 52 54 56 57 55 55 54 53 52 51 50 50 50 51 52 54 53 55 55 56 56 55 54 54 53 53 53 53 53
41 36 49 54 52 47 47 47 34 30 29 34 42 37 47 55 58 59 58 58 55 53 55 53 53 52 52 52 52 52 52 53 55 54 54 55 56 56 56 54 52 52 53 54
39 40 53 54 56 56 47 41 50 37 34 32 37 44 53 57 57 55 54 55 54 53 54 55 55 55 54 53 53 52 53 54 55 55 54 54 55 56 56 54 53 55 54 55
46 39 53 55 56 53 52 53 40 37 30 28 34 37 42 51 54 56 54 54 55 54 55 56 57 56 56 56 55 54 55 55 55 56 56 56 56 56 57 56 56 57 58 55
48 43 45 52 46 46 47 44 44 44 37 32 30 35 47 52 55 54 55 56 55 55 55 57 58 59 59 58 56 55 55 55 55 56 57 57 56 56 56 57 58 57 58 58
50 44 38 46 53 54 49 46 48 37 35 35 32 41 53 54 55 54 55 57 57 57 57 58 58 58 58 58 57 55 55 56 57 57 58 57 58 58 57 57 58 57 58 59
51 41 33 38 45 48 45 48 49 45 40 35 34 38 55 55 55 55 55 57 57 57 55 56 56 58 59 58 59 58 57 57 58 59 58 57 57 58 57 58 58 58 59 60
50 45 38 34 40 47 42 47 50 47 35 35 36 43 51 54 55 58 56 57 58 58 57 56 56 59 60 60 60 59 59 59 59 59 59 58 58 58 59 59 59 59 59 60
46 38 40 43 46 47 48 48 47 44 43 39 43 43 52 54 55 57 59 60 59 61 60 56 57 58 59 59 60 61 61 60 60 59 59 59 59 60 60 59 59 59 59 60
47 36 37 38 44 44 41 47 48 47 46 45 46 45 55 57 56 56 57 58 58 59 61 60 58 58 59 60 61 61 61 60 60 59 59 60 60 60 60 59 58 58 59 59
39 36 33 31 39 39 33 41 46 49 51 48 44 49 56 54 55 56 58 58 59 60 61 59 60 60 61 60 61 61 61 60 60 59 60 60 60 59 59 59 58 58 58 55
39 36 34 30 35 26 42 51 50 47 50 51 50 52 56 56 59 58 58 57 57 57 61 60 61 59 59 59 57 57 56 57 58 59 59 59 59 58 58 57 55 53 52 52
44 37 32 28 29 35 42 47 45 42 44 52 50 53 56 58 54 54 59 58 59 58 57 58 58 60 60 56 54 55 54 54 55 55 55 55 57 57 53 52 48 47 48 47
39 39 34 32 26 25 37 47 51 49 39 50 51 52 52 54 43 50 63 60 59 58 55 56 55 55 55 53 54 54 54 53 54 54 54 54 53 51 50 48 47 46 46 43
34 33 33 32 31 32 43 47 50 35 38 45 47 50 50 47 50 54 55 58 56 57 56 53 53 52 53 52 53 52 52 54 51 51 50 50 50 49 47 45 44 43 41 38
33 31 27 31 28 25 46 45 42 45 46 48 50 49 51 52 53 52 53 54 54 57 55 52 52 50 49 50 52 47 47 47 49 48 47 46 46 46 44 43 41 39 37 34
30 34 31 33 33 43 44 47 49 48 48 49 51 53 53 51 51 51 53 52 51 52 52 50 50 47 48 49 50 46 42 44 45 46 44 43 43 43 42 40 38 36 35 33
37 41 35 36 40 43 46 48 50 50 49 54 57 56 54 52 51 50 50 50 49 48 48 48 48 46 44 46 46 44 44 45 44 43 41 40 38 37 37 37 37 35 33 32
37 39 37 36 40 43 45 46 46 45 50 53 58 56 54 52 53 50 49 48 48 47 47 47 46 43 43 44 44 45 44 44 41 39 38 35 35 34 32 31 32 33 34 35
38 36 33 31 39 39 41 44 43 42 44 45 44 48 45 42 43 46 49 48 48 45 45 43 41 40 39 40 39 41 42 41 37 34 33 32 31 31 32 31 29 32 32 32

GFSCGP_sfc_temp_063.txt.gz
Temp
57 53 49 54 56 56 54 52 51 56 60 58 57 57 62 61 58 58 60 59 55 54 58 58 60 60 58 58 58 58 57 58 60 58 58 58 58 64 65 64 64 67 67 67
52 48 57 57 57 56 55 52 52 57 58 58 59 59 65 60 60 60 61 60 57 55 55 57 59 59 57 58 58 58 58 58 59 60 62 62 62 64 64 65 65 67 65 67
51 55 58 56 53 52 52 51 51 52 55 58 56 56 60 63 60 59 61 63 61 57 54 55 56 57 58 58 58 59 59 58 58 60 59 58 59 59 62 63 66 66 66 67
53 58 54 54 52 55 48 55 55 52 51 48 57 46 56 62 60 59 62 61 61 59 59 58 58 57 58 60 62 61 60 59 58 60 59 60 62 59 63 63 67 64 65 66
50 51 52 51 54 56 54 57 55 54 51 49 50 48 54 56 60 65 66 62 63 61 59 59 59 59 60 61 61 61 60 62 60 60 61 60 60 63 60 60 63 64 64 65
55 58 58 59 57 58 60 56 53 51 49 40 50 49 53 56 61 64 66 65 63 62 60 61 61 60 59 60 61 61 60 62 61 60 61 60 60 59 59 58 59 60 63 62
51 53 58 59 54 56 57 53 42 39 38 40 49 46 54 61 65 64 66 69 64 63 61 59 57 57 57 57 60 60 61 61 62 60 61 61 63 61 62 60 61 62 63 63
43 40 53 58 55 52 52 53 43 35 36 42 47 44 56 64 67 66 67 67 66 62 62 60 59 58 57 56 59 60 59 60 61 61 62 63 64 64 64 63 64 64 65 67
43 44 56 56 58 59 51 47 56 43 41 41 47 51 59 65 66 66 67 64 63 62 62 62 61 60 60 58 58 58 59 59 61 61 62 62 63 64 64 64 64 64 64 64
49 42 54 57 60 58 57 58 46 45 37 34 42 44 50 59 62 65 65 66 65 64 62 63 62 61 61 61 60 59 60 60 61 61 62 62 62 63 64 64 63 64 65 64
52 49 48 54 51 50 52 50 50 51 45 40 38 45 56 60 63 63 64 65 66 65 64 63 64 64 63 63 61 59 60 60 61 62 62 62 62 62 62 62 63 64 64 65
53 47 40 47 55 58 57 53 53 44 40 42 41 47 59 62 62 61 64 65 67 67 67 66 65 64 63 63 62 61 60 60 61 62 62 61 61 61 60 60 62 63 64 65
50 44 38 42 50 53 51 54 53 49 46 44 39 46 60 60 63 64 62 66 67 67 67 65 64 64 64 64 63 62 61 62 62 62 62 61 61 61 60 61 62 63 63 64
51 46 41 37 42 47 45 49 53 52 41 44 44 50 57 60 63 67 66 66 67 67 67 67 65 65 66 65 64 63 62 63 63 63 62 62 61 61 62 63 62 63 63 63
49 39 43 44 46 46 46 47 50 48 50 45 50 49 57 58 62 67 67 64 64 66 64 66 66 67 66 65 64 65 64 64 64 63 63 62 63 63 63 63 63 63 63 64
47 40 41 40 46 47 44 48 49 50 50 50 51 51 60 63 61 61 64 65 66 66 67 68 66 67 65 65 66 65 65 64 64 63 62 64 64 64 63 63 63 63 63 64
41 40 38 36 40 42 39 44 47 50 52 51 46 55 62 61 60 60 63 65 64 65 66 67 66 65 67 68 66 66 66 66 64 64 64 64 64 63 63 64 64 63 62 62
39 39 36 35 36 29 46 51 51 49 51 53 53 54 57 59 63 66 66 65 65 64 65 65 67 67 68 69 68 67 68 65 64 64 64 64 64 63 64 64 63 63 61 59
43 40 34 32 34 39 47 49 48 46 48 49 49 51 54 57 58 61 65 64 63 63 65 65 67 67 68 68 67 66 64 64 64 63 63 64 64 63 63 62 62 55 53 50
41 42 37 33 30 28 43 50 53 51 42 50 51 51 51 54 48 55 61 59 61 65 65 64 65 64 64 65 64 63 63 62 63 63 64 64 63 61 56 52 49 47 48 44
34 35 32 32 32 38 47 51 52 40 43 53 52 53 53 51 54 57 58 59 60 60 62 62 60 60 60 60 61 61 60 60 59 57 56 56 57 53 51 48 46 44 41 39
35 33 33 35 31 29 49 50 44 49 53 52 54 54 54 56 55 56 58 58 57 56 57 58 58 55 54 56 58 55 54 52 53 52 50 49 48 47 47 45 43 40 38 35
35 40 38 39 39 47 50 49 50 50 49 50 51 55 57 54 56 55 57 57 56 55 55 54 54 53 52 54 55 52 47 50 49 48 45 44 44 44 43 40 38 36 35 34
42 44 40 41 46 47 49 50 49 49 48 49 48 50 53 54 56 55 56 55 54 54 52 52 51 48 47 49 49 49 48 48 46 43 42 41 39 38 39 38 37 36 34 33
43 43 41 41 45 47 47 45 45 46 47 46 47 44 43 44 46 49 52 49 49 49 48 47 46 43 41 43 44 47 49 47 43 41 39 36 35 34 32 32 34 33 34 35
43 40 39 39 39 39 42 47 44 43 43 42 41 40 40 39 40 44 41 41 40 40 40 41 41 41 39 38 37 39 42 44 39 36 37 36 35 33 32 30 29 32 32 32

GFSCGP_sfc_temp_066.txt.gz
Temp
64 60 56 63 65 67 66 64 63 68 70 65 67 69 74 78 74 72 74 74 71 70 72 70 67 63 62 59 58 61 59 60 64 63 60 60 60 63 63 64 66 71 72 71
60 54 63 68 68 64 63 61 62 68 68 66 68 68 75 78 76 77 76 75 74 70 69 67 66 65 63 60 61 59 61 64 64 64 64 69 65 66 65 66 65 68 71 68
57 59 64 64 62 59 61 60 62 62 64 68 65 64 70 77 75 75 75 78 77 72 69 66 66 65 62 60 60 61 60 62 66 65 64 64 63 63 64 64 65 67 68 66
59 65 61 61 59 62 56 66 64 62 59 56 65 54 67 72 73 75 77 74 75 74 72 71 68 66 66 62 62 64 62 60 62 63 61 64 61 60 70 69 66 66 68 66
56 58 57 57 61 65 59 67 62 62 59 59 61 56 65 69 68 73 78 78 76 75 73 71 70 70 70 68 64 66 65 62 61 61 61 60 61 64 66 66 68 64 65 67
55 66 62 63 66 66 66 62 61 61 60 48 58 58 61 68 68 72 77 78 77 77 74 74 73 72 71 69 68 67 67 65 61 60 61 61 64 65 66 62 63 63 62 65
49 57 64 65 61 65 63 58 48 46 46 45 61 56 61 71 73 75 75 78 79 78 75 74 72 71 71 68 67 65 67 66 64 60 62 63 63 62 61 62 62 62 62 62
42 41 58 62 62 57 58 58 51 40 43 50 59 51 62 73 77 77 79 79 78 77 75 74 74 73 71 69 69 67 68 69 67 65 65 68 66 65 67 64 64 62 64 67
45 45 61 62 64 64 57 53 64 52 51 50 56 60 67 73 75 76 77 77 77 77 77 75 75 73 72 69 69 68 69 71 69 68 66 65 68 68 71 70 69 68 66 69
55 46 58 60 64 66 62 66 51 53 41 40 51 54 56 65 69 73 75 77 77 76 77 76 76 73 73 72 70 70 70 71 71 70 69 69 70 70 71 72 71 72 73 73
57 53 52 59 55 57 58 56 57 59 55 46 43 53 65 68 71 71 75 77 77 77 76 76 76 76 74 73 71 70 70 71 70 70 70 69 70 71 71 71 71 72 72 73
56 52 48 53 62 66 65 59 59 50 48 52 51 54 68 69 73 72 74 77 78 78 79 79 77 76 74 73 72 71 69 70 70 71 71 69 69 70 69 69 71 71 71 72
54 50 44 47 55 60 57 60 60 59 57 50 44 53 69 67 72 75 74 78 80 78 78 78 78 76 75 74 73 72 70 70 71 71 70 69 68 69 69 69 69 70 70 71
53 51 48 44 48 53 51 56 60 56 48 50 52 56 63 66 69 72 76 78 79 79 79 79 77 77 77 76 75 73 72 71 72 71 71 70 69 69 69 69 69 69 70 69
51 39 46 49 50 51 50 51 55 55 56 50 55 57 63 67 69 72 74 75 76 77 77 78 78 79 79 77 76 75 75 73 72 71 71 70 70 70 70 69 69 69 69 69
51 40 45 44 50 51 48 53 55 56 57 56 57 57 69 70 71 71 70 74 76 77 78 79 80 81 80 79 77 75 75 74 73 71 71 72 71 71 69 69 69 69 69 69
44 41 41 38 47 47 42 50 53 54 58 57 53 59 66 65 66 68 70 69 71 75 75 77 78 79 80 81 79 78 77 76 73 71 72 72 72 71 70 70 69 69 68 68
43 42 43 38 41 30 50 58 58 56 56 59 58 58 61 63 66 68 68 66 66 70 71 75 78 78 79 78 81 80 81 77 74 73 72 72 71 71 71 70 69 69 69 67
49 44 39 36 37 46 52 54 53 53 50 57 57 60 62 64 67 66 66 66 66 69 72 74 76 76 76 76 76 76 79 79 77 74 73 73 72 71 70 69 69 69 68 66
49 48 42 37 34 32 50 55 58 57 47 59 58 59 59 62 53 62 67 66 67 69 70 69 70 71 72 72 73 73 74 76 75 75 75 75 73 71 70 69 68 65 65 57
36 39 35 37 36 44 55 55 57 44 46 57 59 60 59 57 62 65 66 66 69 68 69 67 69 67 65 64 67 68 70 70 73 73 72 71 71 69 70 66 58 51 45 42
39 37 35 39 34 32 55 56 48 52 57 57 58 59 57 59 62 64 66 66 67 67 66 64 63 62 61 62 65 65 63 60 63 64 63 61 59 53 53 48 45 43 41 37
40 47 44 46 45 54 57 55 56 55 53 54 54 56 55 57 60 61 63 65 64 65 64 63 60 58 55 53 57 57 50 51 50 49 47 45 44 44 44 43 40 39 38 36
50 52 48 47 52 54 55 55 55 55 53 54 54 54 53 51 54 55 58 59 59 60 58 58 58 54 50 47 45 46 48 48 46 43 42 42 40 39 40 40 38 37 35 34
51 51 48 49 54 54 52 53 51 52 54 52 52 51 48 48 50 51 52 50 51 51 50 51 51 50 47 46 42 41 43 45 42 40 39 37 36 34 32 32 34 34 35 36
54 50 46 45 45 42 47 50 48 47 48 49 47 46 47 45 45 46 45 45 44 44 44 41 39 37 41 41 39 37 39 40 39 36 36 35 34 34 32 31 30 32 32 32

GFSCGP_sfc_temp_069.txt.gz
Temp
67 61 57 62 64 67 69 68 67 72 78 72 71 72 77 82 82 79 80 81 80 79 82 79 75 73 66 61 61 61 59 59 61 61 61 59 59 60 60 62 66 71 75 74
61 56 64 67 68 67 67 65 65 72 76 70 70 71 77 81 82 82 81 81 82 79 79 76 74 71 66 62 61 62 62 62 61 66 66 65 62 63 64 64 64 74 76 76
51 63 66 64 64 63 65 63 64 65 72 72 69 67 72 79 82 83 83 84 85 81 77 76 73 71 68 64 64 62 63 64 64 66 67 65 64 63 62 63 62 67 72 73
54 65 62 60 60 66 59 69 68 66 64 57 72 57 70 76 77 79 81 81 83 82 80 78 75 73 70 65 64 65 64 65 66 67 68 65 66 62 63 64 65 66 68 70
46 57 59 57 61 66 62 70 68 66 63 62 62 60 67 75 73 77 80 82 82 83 80 78 76 75 75 68 64 64 63 64 66 67 68 64 62 70 65 65 64 64 66 68
48 59 57 61 66 67 70 66 66 65 62 50 59 60 62 70 73 75 80 83 83 83 82 80 79 78 76 73 67 65 62 62 64 66 65 64 64 67 63 63 66 63 64 69
47 50 59 62 59 65 65 60 49 46 47 46 64 61 64 74 77 78 78 82 83 84 82 80 78 77 76 74 71 68 66 62 62 62 64 68 66 63 64 65 66 64 62 64
36 36 54 62 62 58 61 60 51 41 43 51 65 55 65 77 80 81 81 83 84 83 81 80 80 78 77 74 73 72 70 66 64 61 62 67 68 68 68 70 70 66 65 63
42 41 57 58 64 62 59 55 65 55 55 52 59 64 71 75 76 79 80 81 82 83 82 81 81 79 78 76 73 72 72 73 68 64 63 64 68 67 68 68 68 69 70 67
48 41 55 55 62 63 60 67 52 56 41 40 53 58 60 67 71 76 77 78 81 83 83 82 82 79 79 78 75 73 73 74 74 69 66 65 67 69 70 70 69 69 69 69
54 50 48 57 52 53 54 56 59 59 56 45 44 54 71 70 72 74 77 79 80 80 82 82 82 82 80 79 77 74 74 75 75 74 72 68 69 69 70 71 72 72 71 71
55 50 43 51 62 63 61 59 59 50 49 55 52 53 73 74 75 76 77 80 81 82 83 83 83 82 80 79 77 76 75 74 75 76 74 72 71 71 71 71 73 74 73 74
45 47 39 43 53 62 56 60 62 60 57 45 44 53 73 73 72 77 77 80 82 82 82 83 82 81 80 79 78 77 75 75 76 76 75 73 72 72 72 72 73 74 73 74
49 47 44 42 48 57 53 59 62 59 50 51 52 57 66 70 70 72 77 79 81 82 82 83 83 82 82 80 79 79 77 76 76 76 75 73 73 73 73 73 73 73 73 73
49 38 44 52 52 56 55 56 59 57 57 51 56 58 65 68 69 71 74 76 78 80 81 82 83 83 83 81 80 80 79 77 76 75 75 74 74 74 73 73 73 72 72 73
46 38 38 44 53 53 52 56 56 57 58 58 59 57 68 71 73 70 71 74 75 78 80 81 82 84 85 84 83 82 80 79 77 76 75 76 75 75 73 73 72 72 71 72
43 39 35 35 44 47 41 51 53 54 59 59 53 59 65 66 66 68 69 71 68 71 75 77 79 82 83 85 86 83 82 81 79 76 76 76 76 75 73 73 72 71 70 70
43 41 41 33 39 29 48 61 60 55 57 61 61 62 65 66 69 70 70 67 66 68 70 74 77 79 81 82 83 83 86 83 80 78 77 77 76 75 75 73 72 71 71 69
50 44 38 32 34 39 50 53 53 50 51 61 60 62 65 68 69 68 71 69 69 70 70 70 73 74 76 78 78 79 81 84 82 78 77 78 78 76 75 73 71 72 71 70
51 48 41 39 30 29 46 57 60 61 43 61 61 61 62 65 57 64 68 69 69 72 71 68 70 70 67 67 70 71 74 76 77 81 80 80 79 77 75 74 72 71 71 69
41 41 37 37 37 45 57 59 61 42 41 60 62 61 60 58 61 65 69 70 72 71 71 70 68 64 62 62 64 67 69 65 68 73 76 77 78 77 76 75 74 72 63 49
41 38 37 40 37 34 59 58 48 53 59 59 60 59 57 59 61 63 65 68 70 69 69 68 66 62 58 57 60 59 54 55 58 61 59 56 56 58 60 59 53 50 46 40
41 48 44 46 45 57 60 55 58 59 57 56 56 58 57 57 58 59 60 64 64 66 65 64 64 59 54 50 47 46 46 48 48 48 47 45 44 44 44 43 42 40 40 38
53 55 50 48 54 53 56 58 57 58 56 57 57 56 55 53 55 56 59 58 58 59 57 57 57 53 47 44 43 41 44 44 42 39 38 38 37 37 37 38 38 36 35 34
50 54 52 52 53 56 57 55 53 55 56 55 55 54 52 52 52 52 53 52 52 52 50 50 47 45 42 39 38 38 40 42 39 36 35 35 34 33 31 30 32 32 33 34
57 50 47 44 50 51 52 52 52 51 50 51 51 50 51 50 48 49 48 45 43 42 43 42 40 41 40 40 36 36 36 38 37 34 33 32 32 32 31 30 29 32 32 32

GFSCGP_sfc_temp_075.txt.gz
Temp
55 44 41 46 51 53 54 53 51 59 67 65 63 64 66 69 67 64 64 67 65 68 69 68 63 62 59 60 60 60 59 59 60 59 59 59 58 59 60 61 62 63 64 65
48 41 50 56 57 56 54 51 50 58 64 63 62 61 65 66 65 67 68 65 66 66 67 65 60 60 58 60 61 60 59 60 60 61 61 61 59 59 61 62 62 64 64 65
44 51 56 52 52 50 48 47 53 53 61 63 61 58 59 67 69 71 70 72 70 69 64 64 60 58 57 58 60 60 60 60 61 62 62 61 61 59 58 60 61 63 65 65
43 50 48 47 48 51 41 53 56 57 54 41 57 44 54 63 66 70 71 68 68 70 67 65 61 57 57 58 61 61 61 61 62 62 61 59 58 56 59 60 62 63 64 64
42 44 44 42 48 53 46 55 53 52 45 45 47 47 52 60 61 65 69 67 66 70 66 64 62 59 59 59 60 59 61 61 62 62 62 60 58 60 61 61 61 61 62 64
46 52 47 45 53 54 53 48 51 48 45 34 45 47 48 55 60 66 72 70 68 69 68 66 65 62 59 60 62 61 60 61 62 62 61 60 60 59 59 60 60 60 61 61
43 45 50 50 44 51 49 43 33 33 32 32 52 48 52 60 67 69 66 66 67 69 68 66 63 61 59 59 61 61 61 59 62 61 61 61 61 59 60 60 60 59 59 58
32 30 45 50 45 44 47 40 36 29 29 38 54 44 53 66 71 71 72 68 69 68 69 66 65 63 60 59 60 62 61 61 62 62 62 63 63 61 60 60 60 61 61 61
35 37 49 51 52 48 42 36 47 38 43 34 45 53 62 67 69 68 70 70 64 67 68 67 67 65 61 59 59 59 60 63 62 62 62 62 62 63 62 62 62 61 62 63
42 32 48 51 50 49 46 51 36 35 29 29 40 45 47 58 61 65 65 64 67 66 69 68 68 66 63 61 60 60 60 60 60 62 62 63 63 63 64 63 62 62 64 63
47 37 40 45 40 38 41 38 40 40 38 34 32 39 52 57 63 63 63 66 67 65 68 69 69 68 66 64 62 60 60 60 59 60 61 62 63 63 64 63 62 62 63 63
43 38 32 40 50 51 47 41 41 34 36 41 38 38 59 61 66 65 66 69 68 70 67 69 70 69 66 66 64 62 62 61 61 60 60 60 62 63 63 63 63 62 62 64
41 36 30 36 44 51 43 45 45 42 41 35 33 39 59 64 65 67 66 66 67 67 67 67 69 69 67 67 65 65 64 64 63 61 60 59 59 62 63 63 64 63 63 62
44 38 34 30 35 37 35 41 46 42 35 38 40 48 53 55 59 63 64 64 65 67 70 67 65 68 69 68 67 66 65 66 66 63 62 59 59 60 62 64 63 64 62 63
41 31 37 39 42 41 41 39 40 42 41 37 44 49 49 53 55 58 62 63 63 63 64 65 66 66 67 66 67 68 67 66 67 66 64 61 61 61 61 61 62 62 62 63
41 32 35 35 44 40 37 41 41 43 44 44 46 45 51 56 55 59 59 60 61 61 61 63 65 64 62 63 62 64 66 67 67 66 66 66 64 62 61 61 62 62 62 63
38 34 31 28 38 36 32 40 41 44 47 46 40 47 51 51 57 57 57 59 60 60 61 61 60 60 59 59 61 61 62 63 63 66 67 67 65 64 63 63 63 62 62 62
38 35 33 28 33 27 40 51 49 45 47 50 50 53 55 53 58 58 59 59 59 59 60 58 56 54 53 53 58 59 57 57 57 59 60 63 62 65 65 64 64 63 63 62
43 37 30 27 28 36 42 43 42 44 39 45 45 50 52 54 55 53 60 60 59 58 57 54 52 50 49 48 53 53 52 53 52 53 53 52 54 55 63 62 63 64 63 62
44 41 34 31 27 26 39 45 50 50 35 46 48 47 49 53 40 46 57 55 54 54 53 50 49 47 45 45 50 48 47 47 47 49 48 48 47 48 48 51 53 59 61 62
34 35 30 29 28 34 49 49 52 33 35 47 49 50 50 46 48 53 55 53 52 51 50 51 46 42 42 43 45 43 42 42 45 46 45 43 42 43 42 45 46 45 50 50
33 30 28 30 28 27 50 47 39 44 48 49 48 49 49 50 51 50 50 48 47 45 46 47 43 41 41 41 41 39 38 42 43 42 41 39 38 39 39 38 39 40 40 40
33 38 34 36 35 47 50 47 51 51 48 48 48 49 50 48 48 46 45 43 42 41 41 43 41 40 39 38 38 35 37 40 40 38 36 35 35 35 35 34 33 33 36 35
43 49 41 41 44 46 48 50 50 51 49 50 48 47 47 44 45 42 41 40 38 37 37 39 38 35 34 35 34 34 37 39 38 35 33 33 32 31 32 33 32 31 32 31
36 44 39 34 35 40 42 47 47 47 48 47 46 43 42 42 41 39 36 35 35 34 35 34 33 32 32 33 32 33 35 37 35 34 33 31 31 30 30 30 30 30 30 32
37 33 33 32 37 36 37 43 46 43 43 42 41 39 38 38 37 35 32 32 31 30 31 31 30 31 31 31 31 32 34 33 33 31 30 30 29 30 29 29 28 31 32 32

GFSCGP_sfc_temp_078.txt.gz
Temp
51 42 38 42 46 49 49 46 45 50 59 58 54 56 61 68 66 66 65 61 62 65 65 62 61 59 58 57 57 57 57 59 59 60 59 59 59 60 61 62 63 64 65 65
44 39 47 51 51 49 48 45 45 52 59 59 55 54 60 65 64 68 66 61 62 60 61 60 58 59 59 58 57 58 58 59 60 60 60 60 60 60 61 61 62 64 64 65
41 47 53 50 47 45 45 45 45 45 53 57 54 51 53 62 65 66 65 66 64 62 60 57 57 57 58 58 57 59 59 59 59 60 61 60 59 58 58 59 60 61 63 65
43 48 47 44 43 47 39 51 50 48 46 38 49 34 49 57 60 64 64 62 61 64 63 59 57 56 57 57 58 59 60 60 60 60 60 59 58 56 58 60 61 61 62 63
42 43 42 41 43 48 43 52 49 47 42 40 45 37 47 56 56 61 63 62 61 65 62 58 57 56 57 57 57 60 60 60 61 61 59 60 58 60 59 60 59 60 61 61
45 48 47 45 48 50 54 47 47 47 41 31 43 41 44 51 57 63 65 65 63 64 63 61 59 58 55 56 57 60 60 60 61 61 60 59 59 59 58 58 58 59 61 61
40 42 47 49 42 49 46 41 32 29 29 29 49 44 47 58 62 63 66 69 64 64 62 58 55 55 55 55 56 60 60 59 61 60 60 60 58 59 59 59 59 59 60 59
29 29 42 47 44 41 40 40 32 26 27 34 49 39 49 63 68 68 69 61 65 63 62 59 58 57 56 56 57 58 59 59 60 60 60 61 61 60 59 60 59 60 61 61
33 34 45 48 48 47 39 36 45 35 37 32 39 48 60 65 64 65 64 61 62 62 62 61 59 58 57 57 57 58 60 61 61 60 60 60 61 61 58 60 60 59 60 62
40 31 44 47 49 49 43 46 34 35 28 27 38 43 46 54 56 62 60 59 62 64 63 62 60 59 59 59 59 60 62 62 62 61 61 61 62 62 60 59 58 60 60 61
41 37 37 43 40 39 39 38 39 40 36 31 29 37 54 51 54 58 59 61 61 63 63 63 62 60 60 59 58 58 59 61 62 62 62 62 62 62 62 60 59 60 60 60
41 38 31 36 47 49 45 38 41 33 32 38 34 36 53 52 55 61 63 63 60 65 64 64 63 61 59 58 57 57 58 59 59 60 60 61 62 62 61 62 61 61 60 61
40 35 29 33 41 45 41 43 43 41 40 35 32 37 52 55 53 60 58 60 62 62 61 62 63 62 60 59 58 58 58 59 60 60 59 58 59 61 61 62 62 62 61 60
43 35 31 27 33 38 34 37 38 39 33 36 36 43 45 50 51 54 58 58 59 61 61 60 59 60 61 61 60 59 59 60 60 59 58 58 58 59 60 62 62 62 62 62
39 31 33 36 40 41 40 38 40 36 37 35 43 43 46 47 50 54 58 59 58 58 57 57 56 56 57 58 59 62 61 61 61 60 59 58 59 60 60 61 61 63 62 62
39 29 32 31 40 42 38 40 41 42 40 39 43 43 49 51 51 55 56 58 56 55 54 53 54 53 53 56 57 58 59 59 62 60 59 59 59 59 58 59 60 61 61 62
35 33 29 24 37 36 31 37 41 43 44 44 38 47 49 48 48 49 55 56 54 53 52 50 49 49 49 51 53 52 53 55 56 59 60 59 60 59 59 59 59 59 59 60
33 32 30 26 31 24 39 47 46 42 43 49 49 49 47 48 49 49 54 52 49 49 47 46 46 45 46 49 50 50 51 51 51 51 51 51 51 53 55 60 59 58 59 58
40 33 27 24 25 34 40 40 42 36 36 46 46 47 49 51 50 45 48 49 48 47 46 45 45 44 44 46 47 47 46 47 48 48 48 47 49 49 50 50 50 56 59 59
40 37 30 27 24 23 36 46 49 47 33 45 47 46 45 48 37 40 46 47 46 47 44 42 42 41 40 43 45 43 43 43 42 43 43 43 44 45 44 45 45 46 48 53
29 29 28 27 27 33 46 47 48 32 35 45 46 45 45 41 43 44 45 43 43 44 43 43 40 38 38 40 43 40 40 39 40 40 40 38 38 40 40 41 42 42 44 41
32 28 27 28 27 26 49 46 37 41 44 45 45 46 44 43 43 42 41 39 39 38 40 41 38 37 37 38 38 37 36 40 39 36 35 34 34 36 36 35 36 38 38 36
30 36 30 34 34 44 46 44 46 47 43 44 45 46 45 42 40 40 37 36 36 35 36 38 37 36 35 35 35 33 35 39 37 33 31 32 32 32 33 31 31 33 34 33
36 42 38 39 37 39 42 46 46 45 43 43 43 44 44 39 38 36 35 33 33 33 33 35 34 32 31 33 33 33 34 38 36 33 31 31 31 30 31 32 31 30 30 30
33 35 36 33 34 37 37 38 43 43 43 40 39 39 39 37 34 33 31 30 30 31 32 32 32 31 31 32 32 33 33 35 33 32 31 31 30 30 29 29 29 30 31 31
33 30 33 31 34 34 34 38 41 38 36 38 36 33 34 34 31 31 29 29 28 28 29 29 29 29 30 31 30 31 33 32 31 30 29 29 29 29 29 28 27 30 31 31

GFSCGP_sfc_temp_081.txt.gz
Temp
49 42 37 41 43 45 44 43 41 45 52 51 51 51 56 60 58 57 63 63 61 60 62 59 58 58 56 55 55 57 58 59 60 60 59 60 60 61 63 63 63 62 62 63
43 37 46 48 47 45 44 40 40 47 53 52 47 48 55 59 60 61 60 63 61 56 55 57 58 59 58 56 55 56 58 59 60 60 60 60 60 60 62 62 62 63 62 64
39 45 51 47 45 43 43 40 41 42 48 51 48 47 52 59 59 61 63 65 63 59 56 55 58 59 59 58 57 58 57 58 59 60 60 59 59 59 59 60 60 61 62 63
42 47 46 43 42 44 37 47 47 45 41 34 46 33 46 52 55 59 63 59 57 60 60 57 57 58 58 58 59 60 56 59 60 61 59 59 58 57 58 59 60 60 62 62
40 42 41 40 42 46 40 47 46 44 38 38 39 36 40 51 51 56 61 62 57 61 60 57 56 59 60 59 58 59 57 58 61 60 60 59 57 59 58 59 58 59 59 60
42 46 45 44 47 47 48 45 43 41 39 30 38 38 37 45 52 60 64 63 61 60 61 59 57 60 58 58 58 56 56 59 59 60 60 60 58 57 57 57 57 57 58 59
38 40 43 47 39 45 43 38 26 24 26 27 43 38 43 52 58 61 63 65 60 62 59 56 54 56 56 56 57 56 56 57 59 58 57 60 61 59 56 58 58 57 57 58
29 28 40 45 42 38 38 37 29 24 24 30 44 35 44 58 64 66 65 65 62 62 60 56 55 55 56 57 57 57 57 58 59 59 59 58 61 61 59 57 59 59 60 60
31 33 43 45 46 45 40 35 42 34 36 32 35 43 54 55 61 59 59 61 58 61 59 56 56 56 55 56 57 56 57 58 60 60 60 59 58 59 58 59 60 60 60 60
39 31 42 45 46 47 42 45 34 34 26 27 34 38 39 44 48 54 56 58 58 61 59 57 57 56 56 56 57 56 57 58 59 61 60 59 58 58 59 56 57 56 56 58
41 37 36 42 40 37 40 37 36 38 35 30 29 35 48 45 50 50 54 56 56 60 59 58 58 57 57 57 56 56 56 57 58 61 61 60 60 60 60 57 55 56 56 57
39 38 31 33 43 46 42 40 40 32 32 35 33 34 50 48 51 54 54 56 55 60 61 59 58 57 56 56 56 56 57 58 59 60 61 60 61 61 60 58 56 55 56 56
39 36 26 31 37 41 40 41 40 39 37 33 29 34 52 52 51 53 53 55 57 57 57 57 56 56 55 55 56 57 56 56 57 58 58 57 59 60 60 60 60 59 57 57
43 34 31 26 29 35 32 38 40 35 32 34 35 40 44 48 48 52 53 54 53 54 54 54 56 56 56 56 56 57 57 57 57 57 56 56 56 57 58 61 61 61 61 60
37 29 32 34 36 37 36 37 39 37 36 32 38 38 47 46 47 50 53 54 50 49 50 51 51 53 55 55 56 58 57 57 58 57 57 57 56 57 57 57 58 59 61 61
37 29 31 30 36 38 35 39 41 39 39 40 40 38 48 50 50 49 50 51 48 47 47 48 49 50 50 51 52 53 53 54 57 57 56 57 57 57 57 57 57 57 57 58
36 32 28 22 33 32 28 36 39 41 43 41 35 43 48 48 48 48 49 47 45 45 45 45 45 47 47 48 49 48 50 52 52 53 53 54 56 57 56 57 57 57 56 57
34 32 29 23 27 17 38 44 42 40 42 43 47 49 50 45 43 46 47 45 43 43 42 42 43 44 45 47 47 47 48 48 48 47 47 48 50 51 53 54 57 57 57 57
38 32 26 21 21 30 38 40 38 35 37 43 44 45 45 44 43 39 43 43 42 41 41 41 41 42 44 44 45 45 44 44 43 43 42 43 45 45 46 46 47 49 50 54
36 34 29 25 20 19 35 45 46 43 32 42 47 45 44 46 35 34 39 41 41 41 40 39 39 39 40 42 43 42 40 38 38 38 39 40 41 40 39 41 41 43 46 44
28 29 27 26 23 30 44 46 47 31 33 42 43 44 42 36 37 36 38 39 40 40 39 39 38 36 37 40 41 39 39 35 36 36 35 35 36 37 37 37 39 39 39 37
29 26 26 26 24 23 44 45 34 39 43 43 42 41 38 36 35 35 36 36 36 37 37 38 36 34 36 36 38 35 36 37 35 34 33 33 33 34 35 34 35 35 35 34
29 34 30 33 29 40 43 43 44 43 41 41 41 41 40 36 36 35 34 33 33 34 34 36 35 34 34 34 34 32 35 37 35 33 31 31 32 32 33 32 31 31 32 32
32 35 35 35 34 35 38 38 39 38 37 40 41 41 39 35 34 32 32 31 31 31 31 34 33 31 30 32 32 32 34 36 34 32 31 31 30 30 31 32 31 30 30 29
30 32 34 33 34 36 34 34 36 35 36 36 37 37 35 33 31 31 29 29 30 29 30 30 30 29 29 30 30 31 32 34 32 31 30 30 30 29 28 28 29 29 30 31
30 28 28 29 33 33 32 33 33 32 32 33 32 30 32 32 29 29 27 28 27 26 27 26 27 28 28 29 28 29 30 30 30 29 29 28 28 28 28 26 24 29 30 30

GFSCGP_sfc_temp_084.txt.gz
Temp
49 41 34 39 42 43 42 39 37 39 48 46 47 48 53 55 53 53 54 56 57 58 63 61 56 57 56 55 57 58 56 56 59 59 60 61 60 61 61 63 63 63 63 63
43 37 45 47 45 43 41 37 36 42 48 47 44 45 52 53 55 57 56 57 57 56 56 55 55 56 57 56 57 58 59 58 60 58 61 61 60 61 62 63 62 61 60 61
40 44 49 46 43 40 39 37 37 39 45 46 43 42 47 55 57 59 58 59 59 60 57 55 55 56 57 56 56 57 58 60 60 60 60 59 60 59 60 61 60 60 59 60
41 46 46 43 41 42 34 45 44 41 38 30 42 29 44 48 51 54 56 56 59 60 59 57 56 56 58 57 58 58 58 60 59 59 59 59 58 57 58 60 61 59 59 60
39 40 40 39 42 45 39 45 42 41 36 36 36 31 38 47 48 51 54 56 59 60 59 57 56 57 60 59 58 59 57 58 60 59 60 59 58 58 59 59 59 59 59 60
42 45 44 44 45 46 46 42 41 40 41 27 35 35 33 41 46 52 56 59 62 61 59 58 55 59 60 59 59 58 57 59 60 59 59 59 57 57 58 57 57 58 59 59
38 39 43 46 40 43 41 35 25 24 28 25 39 34 38 49 54 56 57 59 61 63 57 55 54 56 58 56 57 57 57 58 59 57 59 59 58 57 58 58 57 58 58 58
29 29 39 44 41 37 36 35 29 22 24 28 39 31 39 50 54 55 56 58 59 58 59 57 55 56 58 57 57 57 57 58 59 58 58 59 60 59 59 59 59 58 59 59
31 31 41 43 44 43 39 33 40 33 34 30 33 39 48 51 50 52 53 55 55 57 57 58 55 57 58 57 57 57 57 58 59 58 58 58 59 59 58 58 59 59 59 59
37 30 40 42 44 43 41 43 34 33 22 23 31 33 38 43 45 49 50 52 55 57 60 55 54 56 57 58 57 57 56 56 59 58 58 58 58 59 60 59 55 56 58 60
40 37 35 41 37 35 38 36 37 36 34 27 24 31 47 46 47 49 50 53 53 54 56 55 55 55 57 58 58 56 55 55 56 59 57 59 58 57 56 55 54 55 55 57
40 37 29 34 41 43 41 38 40 32 29 33 29 30 49 50 49 54 53 53 53 56 56 56 54 55 55 56 57 56 54 54 55 56 57 59 58 58 58 58 56 54 55 55
40 34 27 31 36 39 38 40 39 36 36 32 30 32 50 52 53 53 53 52 51 53 53 52 54 55 56 56 56 56 54 54 55 56 58 58 58 58 57 56 56 54 54 55
43 33 31 27 29 33 28 36 39 37 28 29 33 35 45 47 48 51 51 51 49 51 54 53 53 53 55 57 57 58 56 55 55 55 55 54 55 57 58 59 57 56 56 54
37 30 31 32 35 35 34 34 36 34 36 31 35 36 43 46 48 48 50 49 47 46 48 50 51 52 54 55 56 56 56 56 56 55 54 54 54 55 55 55 56 57 57 57
37 28 30 29 34 35 32 36 36 36 37 37 38 37 48 51 50 48 47 46 44 43 44 46 47 48 49 50 50 51 52 54 57 55 55 58 55 55 54 54 55 55 55 55
34 29 26 20 30 30 27 33 36 37 41 40 35 42 48 48 48 47 44 43 41 41 41 42 43 45 45 46 47 47 49 51 51 51 51 51 54 56 55 56 56 56 56 56
32 32 28 24 27 14 34 40 40 37 40 43 43 44 44 44 41 41 42 41 39 39 39 39 41 42 43 45 45 45 46 45 45 45 45 46 47 48 49 50 49 52 55 56
36 31 25 20 21 28 34 38 36 33 35 42 39 43 46 41 41 36 41 39 37 38 38 38 39 41 42 43 43 41 40 41 40 39 40 41 42 43 43 42 43 45 48 46
34 34 29 25 20 15 32 41 45 43 30 38 42 44 40 45 34 31 36 38 36 35 37 37 37 37 39 41 42 38 36 35 34 35 36 38 39 39 38 39 39 41 40 37
28 30 27 25 25 28 38 41 46 30 31 35 37 35 35 32 34 34 35 35 34 34 34 37 36 34 35 39 40 37 35 32 34 34 35 35 36 36 36 37 37 37 36 35
29 27 27 29 25 21 40 42 36 38 37 34 34 33 32 32 32 32 32 32 33 33 34 35 33 32 34 35 36 35 34 35 34 33 33 33 33 34 35 34 34 35 34 32
27 31 28 31 29 36 36 36 37 37 34 36 34 34 33 32 30 30 30 30 31 32 32 34 32 31 31 32 32 32 34 35 34 32 31 31 32 32 32 31 31 31 32 31
29 34 30 33 33 32 34 35 34 34 32 34 34 33 33 30 29 28 30 29 29 29 29 31 30 29 28 30 30 30 34 34 33 30 29 30 29 29 30 31 31 30 30 30
27 30 28 32 34 34 31 32 32 31 32 30 31 31 30 30 28 28 27 27 27 27 28 29 28 27 27 28 28 29 31 33 31 30 30 28 28 27 27 28 28 28 29 30
28 26 25 26 32 31 29 30 31 29 28 30 29 28 29 29 27 27 25 25 25 25 26 25 26 25 26 27 27 27 28 30 29 28 28 27 26 26 24 24 24 29 29 30

GFSCGP_sfc_temp_087.txt.gz
Temp
52 46 42 46 50 50 46 44 42 47 53 50 50 51 56 60 62 61 63 66 67 69 75 75 71 69 67 66 66 66 64 63 64 63 62 61 60 61 61 63 64 64 64 64
46 42 49 50 49 47 46 43 43 47 51 50 49 49 56 59 60 62 63 65 67 69 72 72 68 65 65 65 65 64 66 64 64 66 65 64 62 62 63 63 65 64 63 63
43 47 51 48 46 43 44 42 42 43 48 51 48 48 53 58 61 63 64 66 68 69 71 72 66 64 64 63 63 62 66 65 64 65 64 63 63 62 62 61 62 63 63 63
46 51 48 46 44 46 39 48 47 44 42 38 49 37 51 55 57 60 62 64 65 68 70 71 67 64 63 63 62 64 65 66 66 66 65 63 62 60 59 62 60 60 61 61
43 44 43 43 45 48 44 48 46 45 42 40 41 37 45 54 55 59 62 64 66 68 70 71 66 65 65 62 60 61 64 64 64 62 63 62 61 61 62 60 59 58 58 59
47 50 48 48 48 50 50 46 45 44 42 32 40 40 44 50 52 54 59 62 65 68 70 68 65 64 65 61 60 60 59 63 62 61 62 63 62 61 59 59 58 57 57 58
41 43 48 49 44 47 46 41 33 30 29 31 43 39 45 53 53 54 55 58 62 65 68 63 61 62 63 59 59 59 59 62 62 61 62 62 62 63 61 58 58 57 56 57
35 31 42 48 46 42 41 40 35 26 28 33 43 37 47 53 56 58 59 59 61 62 64 63 63 63 62 60 59 59 59 62 60 61 61 62 62 61 61 60 59 59 58 58
35 34 44 46 48 48 40 36 44 34 37 33 40 46 51 55 56 58 58 59 57 58 61 64 63 63 62 61 58 59 60 61 60 60 60 61 62 61 60 61 60 59 60 59
41 33 43 45 48 47 45 47 33 34 24 24 37 40 44 48 50 54 55 56 56 57 60 63 64 62 62 63 59 59 60 61 60 60 61 61 60 61 61 60 59 59 59 60
45 41 37 43 41 39 40 37 37 37 34 30 30 39 51 49 53 52 54 55 53 54 58 60 62 63 63 60 59 58 59 60 59 60 62 60 60 60 61 61 62 60 59 59
43 40 34 37 45 47 45 41 41 31 30 33 33 37 53 53 55 55 53 53 52 53 57 59 58 58 59 57 57 57 58 59 60 61 63 61 60 59 59 60 61 61 63 64
44 37 32 32 39 43 40 38 37 36 35 32 29 38 54 55 54 56 51 51 51 50 54 56 56 56 56 56 57 57 59 61 61 62 62 60 60 59 59 59 59 59 61 63
45 37 35 32 33 37 33 38 41 38 32 34 35 38 46 50 50 53 50 50 49 47 49 52 55 55 56 57 57 57 60 63 63 63 64 61 60 61 60 60 59 59 60 62
42 34 36 37 38 38 37 37 39 36 38 32 38 39 45 48 50 51 48 48 45 43 44 45 47 50 53 55 57 59 60 62 63 62 63 63 63 64 64 64 63 63 62 62
41 32 34 34 37 37 35 39 40 39 39 39 40 39 50 53 54 47 45 44 41 40 41 42 43 45 46 48 50 50 53 59 62 60 58 60 61 62 62 62 62 62 62 63
36 34 31 28 34 35 30 36 39 41 43 42 35 44 49 47 42 42 41 41 38 37 38 39 40 41 43 44 46 46 47 49 49 49 49 50 53 53 53 57 58 59 59 60
35 34 32 28 30 22 38 45 43 40 42 43 41 42 46 42 39 38 41 39 36 35 36 36 37 39 40 42 42 42 44 44 43 43 43 45 46 46 47 48 48 50 49 46
39 35 29 26 27 33 38 41 40 37 37 36 35 37 39 39 38 34 37 36 34 33 34 34 36 38 40 39 39 39 38 39 38 38 39 41 42 42 42 41 42 44 42 39
38 38 33 28 23 21 35 41 46 44 31 35 34 33 41 40 33 30 34 35 34 33 33 33 34 35 37 39 39 36 35 35 34 35 36 38 39 39 38 39 38 38 38 36
30 31 28 28 26 32 35 40 46 31 30 35 33 31 30 28 31 32 33 32 33 32 32 33 33 32 33 37 37 34 35 33 35 37 37 36 37 37 37 37 38 37 35 34
32 29 29 31 26 24 36 42 33 36 35 34 32 31 29 29 29 29 30 30 31 31 31 31 30 30 32 34 36 34 33 35 35 35 34 35 35 36 37 36 35 35 35 33
29 30 28 32 30 33 34 32 33 34 33 33 32 32 30 28 28 28 28 29 29 29 29 30 29 28 29 31 32 32 33 34 33 33 32 32 33 34 35 34 34 34 34 33
28 33 30 29 30 30 32 33 32 32 30 31 32 31 30 28 28 27 27 27 28 28 29 30 29 27 26 29 29 30 32 33 33 32 31 32 32 33 34 34 33 32 32 32
28 30 27 30 31 32 30 30 30 30 30 29 29 29 28 27 25 25 24 25 25 26 27 28 28 27 27 29 29 29 31 33 32 31 31 30 31 31 30 30 31 31 31 32
29 26 26 25 30 28 26 28 29 27 27 28 28 26 27 27 25 26 24 25 25 25 26 26 26 26 26 27 27 28 30 32 32 30 29 28 29 29 30 29 27 28 29 30

GFSCGP_sfc_temp_090.txt.gz
Temp
56 51 49 54 53 54 54 51 53 58 61 57 57 60 65 70 71 71 73 75 77 78 84 86 86 87 85 83 80 80 77 69 69 69 68 69 66 66 64 64 64 65 65 65
50 47 57 57 56 52 52 49 50 57 59 57 57 58 65 68 69 71 73 75 77 79 82 82 84 85 81 81 79 79 78 69 71 76 77 74 67 67 66 64 64 65 65 66
48 54 58 54 49 46 49 48 50 50 56 58 56 55 64 66 70 72 74 76 77 77 77 80 82 84 81 78 77 78 78 72 75 77 77 72 67 65 64 62 62 63 65 65
51 58 53 52 50 51 45 55 52 50 49 46 55 47 60 64 66 69 70 72 74 76 78 79 81 84 81 79 78 77 77 76 75 75 75 71 71 64 64 62 63 63 63 63
49 50 50 48 51 54 50 54 52 51 50 49 52 48 58 63 62 65 68 70 71 75 77 78 81 83 84 79 75 74 76 76 75 74 75 71 69 70 72 68 62 62 62 62
55 57 54 55 57 55 57 51 51 52 50 41 51 50 58 61 59 62 67 69 70 72 75 79 82 83 81 77 68 70 74 75 75 74 73 72 70 68 68 62 60 59 58 60
51 50 54 55 49 53 53 47 38 36 36 39 51 48 56 61 61 63 64 68 71 72 73 75 76 77 76 70 63 66 72 73 72 71 71 69 69 70 68 61 58 57 57 56
40 37 48 53 52 47 48 49 42 33 37 44 50 43 55 61 64 67 68 69 71 71 72 74 74 74 74 66 61 62 67 71 70 69 68 68 71 69 68 61 59 57 58 57
42 42 53 53 56 55 46 41 52 41 45 39 49 54 58 62 63 65 66 67 67 69 70 73 74 74 74 67 61 61 67 72 70 68 65 68 68 67 64 62 60 58 59 58
48 39 48 50 55 53 51 55 38 42 30 31 45 48 54 52 57 62 62 63 64 66 68 69 73 73 73 70 62 62 68 71 68 68 65 68 67 66 66 64 60 59 59 59
44 46 42 48 46 45 45 44 44 44 42 34 38 47 56 55 58 59 61 62 62 60 61 64 68 70 71 68 62 60 66 66 66 65 66 67 65 66 64 63 61 59 59 59
50 46 39 42 49 55 52 48 47 39 34 41 36 44 61 61 62 62 62 61 61 55 55 59 61 65 64 61 60 60 62 63 66 64 65 64 63 66 64 64 63 59 60 60
50 45 36 37 44 49 46 44 45 43 43 37 34 46 60 63 62 63 61 59 57 51 50 50 57 59 59 59 58 59 60 62 66 63 65 63 63 65 65 66 67 67 64 61
44 45 43 39 40 45 39 44 47 44 37 42 43 47 53 56 57 60 59 57 54 48 46 48 47 53 57 58 58 58 60 63 63 63 65 64 64 63 63 64 65 66 68 66
48 40 44 45 46 46 45 44 46 43 44 38 46 46 51 54 55 57 56 53 51 44 43 43 43 44 47 55 57 59 64 66 66 65 64 63 63 64 63 63 63 62 62 65
47 38 41 39 43 44 40 44 46 46 46 46 47 46 57 57 57 49 45 46 44 42 39 40 41 42 43 45 50 52 58 64 66 66 63 66 66 67 67 65 65 64 62 63
41 40 38 32 41 40 36 42 44 46 48 47 41 47 52 47 43 42 42 40 40 38 37 36 38 39 40 41 44 46 47 49 50 50 49 50 52 52 52 58 62 63 64 65
40 40 39 34 36 25 43 50 48 45 45 41 41 45 46 44 38 37 37 38 37 37 34 34 35 38 37 39 41 42 43 44 44 43 44 45 46 46 48 48 48 46 45 44
46 42 36 32 33 39 42 44 44 41 37 36 37 40 42 40 37 32 35 35 34 33 34 33 34 35 37 37 38 39 38 38 38 38 39 41 42 42 42 41 41 41 39 37
42 44 38 35 25 25 38 46 51 50 32 35 38 35 31 38 31 27 32 33 32 32 32 32 32 33 34 36 37 35 35 36 35 36 37 39 39 39 38 38 37 37 37 35
37 34 33 34 32 38 39 43 50 33 30 34 36 32 28 26 28 30 31 31 31 31 31 31 31 30 31 34 35 33 34 32 34 34 36 37 38 37 38 37 37 36 34 34
35 32 34 34 30 27 35 44 34 32 34 34 32 31 29 29 29 29 29 29 29 29 30 29 29 29 30 32 33 32 30 32 33 34 36 37 38 39 39 38 37 37 35 34
31 32 31 29 27 32 34 33 34 35 32 33 32 32 30 28 27 28 28 29 29 29 30 30 28 28 29 30 31 30 31 35 35 34 34 37 38 38 38 38 37 37 37 36
32 37 34 32 31 31 34 35 35 33 30 31 32 30 30 27 27 26 27 27 28 29 30 32 31 28 28 29 30 31 33 33 32 32 34 34 33 34 36 36 35 35 35 35
31 32 30 30 32 34 31 30 30 30 31 29 29 29 28 27 26 26 26 26 26 27 27 28 28 29 29 30 29 30 32 33 32 32 32 32 34 33 31 30 31 32 31 32
32 28 29 28 31 30 27 29 30 28 27 29 28 28 29 29 27 27 26 26 27 26 27 28 28 28 28 29 29 31 32 34 34 31 31 30 31 32 32 30 27 28 29 29

GFSCGP_sfc_temp_093.txt.gz
Temp
62 55 52 57 60 60 58 56 55 60 69 63 61 62 67 72 74 72 76 77 79 81 87 90 90 91 91 91 90 88 85 79 72 69 67 68 67 67 68 67 68 68 68 67
58 50 60 63 62 58 54 53 52 59 65 63 61 60 67 71 73 74 75 77 80 82 85 87 89 89 88 88 87 85 85 83 73 70 73 77 73 73 71 69 67 67 66 66
54 58 63 59 58 53 53 52 52 54 59 64 59 56 62 71 75 76 78 79 80 80 81 84 86 87 87 86 85 85 85 84 74 75 78 77 73 69 66 67 67 67 67 66
56 63 59 57 55 55 46 58 55 53 52 44 61 48 63 69 70 72 74 74 76 78 80 82 84 85 86 87 85 85 85 83 73 78 80 75 68 65 68 68 68 64 65 65
50 55 55 52 55 58 50 58 56 55 50 49 54 51 58 68 65 69 71 73 75 77 78 80 83 85 87 88 85 83 84 83 77 79 81 76 74 76 74 70 68 66 63 64
56 64 61 58 60 59 61 56 54 53 50 41 49 51 56 62 64 64 69 72 75 77 78 81 83 85 86 89 84 81 81 81 79 79 79 77 75 76 74 70 67 64 62 62
53 54 53 61 54 59 56 49 38 37 39 37 58 53 56 66 66 66 68 71 74 75 76 78 80 83 85 85 80 78 78 79 79 77 77 77 75 75 72 71 67 62 60 60
40 38 52 58 55 51 50 50 41 33 36 44 57 46 57 69 69 71 71 72 73 73 74 77 79 80 82 81 74 72 78 79 78 76 76 76 76 72 74 69 65 62 58 59
42 42 58 59 60 58 49 45 55 45 46 42 49 57 63 67 63 65 68 70 70 70 69 74 77 79 79 75 66 65 76 78 76 75 75 74 72 71 70 67 63 60 59 58
43 36 50 57 59 59 54 57 41 45 33 34 47 52 49 54 58 64 66 66 67 66 64 63 73 78 79 71 64 63 72 74 74 73 73 71 69 71 70 65 60 59 58 58
42 44 44 54 49 49 49 45 48 49 47 38 38 45 58 59 62 62 65 66 65 62 57 55 63 75 77 72 65 63 68 72 71 72 69 68 68 68 67 67 61 59 58 58
43 40 37 46 56 60 55 50 49 40 38 45 42 43 62 63 65 65 65 65 65 61 54 52 52 62 67 65 64 62 67 68 68 70 67 67 68 67 66 65 61 60 58 58
36 36 33 33 44 52 49 52 54 48 47 40 38 45 64 65 63 65 65 63 63 58 52 48 49 49 58 60 60 61 63 64 67 66 65 67 67 65 64 64 63 60 59 58
37 34 38 34 43 47 41 45 49 47 40 43 45 50 57 59 60 61 62 59 60 55 47 44 44 46 48 54 59 60 61 64 66 66 65 66 68 67 67 68 66 62 63 60
36 40 45 46 50 51 48 47 49 45 47 42 48 49 54 56 56 58 55 56 53 50 44 41 41 42 44 45 48 59 61 62 64 63 65 65 68 68 68 67 67 68 66 64
40 39 47 44 50 50 45 48 49 49 49 50 50 50 56 58 56 50 48 47 47 43 42 39 39 39 40 41 43 47 52 59 68 64 62 65 68 65 65 66 65 64 65 66
39 45 44 35 46 45 38 45 47 49 51 47 41 47 54 51 44 36 37 40 38 40 39 37 36 37 37 38 40 41 46 50 50 49 50 52 54 54 54 59 58 57 59 60
38 43 43 34 39 29 44 54 53 47 45 47 46 47 48 44 35 34 34 33 32 33 33 34 34 35 36 37 37 40 42 43 43 43 44 46 48 47 47 48 46 44 43 43
49 43 37 35 38 42 45 47 46 44 35 40 40 42 42 38 37 31 33 32 31 31 32 32 33 33 33 35 35 37 37 38 38 38 39 40 42 41 41 39 39 39 38 36
47 48 41 39 33 29 37 47 52 49 29 36 38 36 31 37 31 26 31 31 31 31 31 31 32 32 32 33 35 33 34 35 34 35 37 38 38 37 36 36 35 35 35 34
40 40 36 36 37 36 39 47 50 32 27 36 36 32 30 27 28 30 31 31 31 31 30 30 30 29 30 32 34 31 31 31 32 35 35 37 37 36 36 35 35 34 33 33
36 32 35 37 34 28 38 45 32 31 34 35 34 31 30 30 30 30 30 30 31 30 30 30 29 29 30 32 32 31 30 32 32 33 34 34 35 37 38 38 34 34 34 33
33 34 31 32 29 34 36 34 35 36 33 33 34 33 31 29 28 29 29 30 30 30 31 31 29 28 29 30 32 30 31 32 32 31 31 32 33 32 32 34 35 34 37 35
34 41 34 33 32 33 35 36 35 34 31 32 32 31 30 28 28 28 28 28 28 29 29 30 29 27 27 29 29 31 32 33 32 31 30 29 29 29 31 32 32 30 32 32
33 35 34 31 33 34 32 31 32 32 31 30 30 30 29 29 27 27 27 27 27 28 28 29 28 27 27 29 29 30 32 33 32 31 31 31 31 29 27 27 29 29 29 30
33 28 29 28 32 31 28 30 32 29 29 31 31 29 30 30 28 29 28 29 30 29 30 29 29 28 29 29 29 30 31 31 30 29 30 31 32 31 28 26 24 28 28 29

GFSCGP_sfc_temp_096.txt.gz
Temp
62 53 48 53 57 57 57 55 54 60 66 63 60 59 65 71 71 69 72 73 74 76 81 84 83 83 81 80 80 80 77 73 72 71 68 67 67 68 68 69 70 70 68 68
55 50 57 60 60 58 56 53 53 59 63 60 59 59 65 67 68 70 71 72 74 76 80 82 83 80 78 79 79 78 79 73 72 72 71 70 68 67 67 66 67 67 67 67
50 55 62 59 56 54 55 53 52 51 58 60 58 54 60 66 69 71 73 75 77 77 78 79 80 78 77 77 77 78 80 75 74 72 71 71 70 69 66 65 64 65 66 66
53 60 57 56 55 56 48 59 57 53 50 42 58 42 55 65 67 69 71 72 74 76 77 78 78 78 77 77 77 78 79 80 74 72 70 69 69 65 66 65 66 65 66 66
49 53 53 51 54 60 53 60 56 54 49 48 48 45 53 63 62 67 69 71 72 75 75 75 77 78 81 78 75 76 78 80 73 72 72 71 69 68 67 66 65 65 65 65
53 60 57 56 59 60 59 56 54 53 49 37 47 46 48 55 63 66 68 71 72 73 74 76 78 78 79 78 76 75 77 78 73 72 72 73 68 69 68 66 64 63 63 63
46 50 57 60 53 55 55 47 33 31 34 33 50 48 51 60 65 66 67 69 70 70 69 70 74 77 78 76 75 75 76 77 73 71 73 73 71 70 70 66 64 63 61 61
33 34 50 57 53 44 47 48 36 28 31 37 51 42 51 66 69 70 68 69 68 66 66 65 64 72 76 76 74 74 75 76 75 73 73 72 69 70 69 66 65 62 61 61
32 37 55 57 53 48 46 41 50 39 42 34 39 53 59 62 62 66 66 65 63 63 62 60 62 65 76 71 69 70 73 75 75 72 68 69 69 69 67 65 64 62 61 61
37 27 48 53 54 49 49 53 40 42 28 28 35 40 40 49 57 63 63 62 61 61 58 55 58 58 66 68 66 67 69 71 71 68 67 67 66 67 65 64 62 60 59 59
43 35 38 44 41 43 49 42 45 44 42 30 34 39 49 47 55 59 61 62 58 57 54 51 52 55 56 66 64 64 66 66 66 67 66 64 65 65 65 64 61 59 58 58
42 34 31 37 50 52 56 48 45 36 37 44 38 34 48 55 60 60 60 61 58 56 52 49 47 49 49 52 64 63 64 62 64 65 65 64 63 64 64 62 60 58 58 58
36 34 28 33 41 53 50 52 50 44 46 35 33 34 47 51 57 57 54 56 56 53 49 46 44 44 45 46 51 62 60 61 63 64 63 63 62 63 63 62 60 58 58 58
37 32 29 26 36 48 44 49 47 44 37 38 39 38 46 52 52 51 51 53 53 51 47 43 41 41 42 43 45 47 58 61 62 63 63 62 62 62 62 62 60 59 58 57
35 30 32 33 35 46 42 42 39 39 44 39 44 43 47 49 47 47 48 48 47 44 42 40 38 39 39 40 41 44 48 59 61 61 62 62 63 63 64 63 61 61 60 59
37 33 35 32 42 46 38 38 41 48 47 48 48 46 49 49 42 39 39 39 37 36 36 37 37 37 37 37 38 41 42 47 60 58 59 61 63 64 63 62 63 61 60 60
34 33 39 35 47 46 37 45 48 44 43 43 35 40 44 40 33 31 32 33 32 33 33 33 34 34 35 35 36 37 39 43 47 49 50 51 53 52 51 52 51 49 51 49
34 35 43 35 40 27 42 52 49 39 38 39 40 40 40 33 31 31 32 31 30 31 31 31 33 33 34 35 35 36 37 39 40 41 43 45 46 45 44 44 42 41 41 41
45 43 39 35 32 35 39 43 42 40 31 36 35 36 37 35 35 29 31 31 30 30 30 30 32 32 33 33 34 35 34 35 36 37 37 39 41 40 39 37 37 37 36 35
49 48 42 40 33 27 32 40 49 48 26 35 34 31 32 33 27 26 31 32 31 30 30 30 30 31 32 32 33 32 32 32 33 34 36 37 37 37 35 35 34 35 34 33
38 39 35 35 33 31 34 42 49 30 26 33 33 31 29 26 28 30 31 31 31 30 30 30 29 28 29 32 32 31 30 29 32 34 34 34 36 35 35 35 35 34 33 33
32 29 30 34 29 25 35 40 30 31 34 34 32 31 29 29 29 30 30 29 29 29 29 29 28 28 29 30 32 30 29 31 31 31 31 32 32 33 34 34 34 35 34 33
29 33 30 30 27 33 34 31 33 35 32 32 31 31 30 28 27 28 28 28 28 28 28 29 27 27 28 29 30 30 30 32 31 29 28 27 29 30 30 29 30 32 33 32
36 40 33 32 31 31 33 34 33 32 30 31 31 30 30 27 28 27 27 27 28 28 28 28 28 26 26 28 29 30 31 32 31 29 28 26 26 26 27 28 27 27 29 28
33 36 33 30 32 32 31 31 31 31 31 30 30 30 29 29 27 27 27 27 27 28 28 28 27 27 26 28 29 29 31 31 30 30 30 28 27 25 25 26 26 26 27 28
33 27 28 26 31 30 27 30 31 29 29 30 30 29 29 29 28 28 27 28 29 28 29 29 28 27 27 28 28 29 32 31 30 29 29 29 30 27 25 24 23 28 28 28

GFSCGP_sfc_temp_099.txt.gz
Temp
51 44 40 42 46 48 47 45 44 50 57 54 53 50 57 62 63 63 62 60 63 67 72 74 73 74 76 77 79 70 71 71 71 69 66 66 66 68 68 68 66 70 68 67
44 40 50 53 52 49 48 44 43 50 56 55 51 49 52 56 58 62 61 63 64 64 69 72 75 71 71 71 71 68 73 70 71 70 70 67 67 67 67 66 67 69 67 67
42 48 56 53 50 48 48 45 45 46 52 51 48 46 49 59 62 66 69 68 70 68 67 70 73 73 69 70 71 70 71 70 70 69 68 65 64 65 64 64 65 65 67 67
46 53 52 49 47 50 43 53 51 49 47 36 46 34 47 54 59 63 66 70 69 66 67 68 69 67 67 69 70 71 70 69 69 68 67 65 64 63 65 66 66 64 65 65
43 46 46 44 47 52 46 55 50 50 47 39 42 35 44 54 54 59 65 65 68 66 64 63 64 69 70 69 68 71 70 69 69 68 67 66 64 65 66 64 63 64 64 64
47 55 48 47 50 52 54 51 47 44 42 31 41 39 40 48 54 60 61 61 62 62 61 62 63 63 64 68 66 67 69 70 68 67 66 66 65 63 63 62 62 62 62 63
41 43 49 52 45 49 47 43 27 26 27 27 45 40 43 55 60 57 55 57 57 57 58 57 58 58 59 60 65 66 69 68 67 66 66 66 65 64 62 61 61 60 61 61
28 26 41 49 43 39 42 42 28 22 24 30 45 36 45 59 62 52 58 56 55 54 55 53 54 55 56 61 64 67 65 66 66 66 65 65 66 67 67 63 61 61 62 62
28 30 44 45 48 48 38 34 42 31 38 29 36 44 52 51 52 50 54 52 50 51 51 50 51 52 52 59 59 59 63 64 65 64 64 64 66 66 64 63 62 60 58 60
35 25 41 47 46 47 44 47 32 33 25 24 34 36 33 38 41 46 49 48 48 48 47 47 48 49 50 51 57 58 60 61 64 64 65 65 64 64 63 62 59 58 57 59
37 32 33 41 39 37 37 35 37 38 37 28 27 31 36 38 46 47 47 47 46 45 44 45 45 47 47 48 49 54 59 59 60 65 64 63 62 62 62 61 59 58 58 57
36 31 25 33 46 46 45 39 40 28 32 37 33 30 43 44 47 48 49 49 47 45 43 43 43 43 44 44 46 48 52 60 60 62 63 61 61 62 61 59 57 58 57 57
35 30 20 28 39 44 40 44 45 42 37 34 29 30 43 46 45 46 44 44 43 42 41 40 40 40 40 41 43 44 46 48 60 61 61 60 61 61 60 59 58 58 57 57
36 31 26 22 33 37 32 38 46 42 32 33 32 32 38 39 38 38 39 39 39 39 38 37 36 37 38 39 40 42 43 46 51 60 60 59 59 60 60 60 58 58 58 57
34 28 31 32 35 36 35 36 38 36 34 32 31 30 35 34 34 34 37 37 36 35 35 35 34 34 35 36 38 40 41 43 46 58 60 59 60 61 60 59 58 58 58 58
36 29 33 31 36 37 34 38 36 34 35 35 36 31 38 37 35 33 32 33 32 32 32 32 33 34 33 34 35 38 39 40 43 47 53 58 59 61 60 59 59 58 58 57
34 32 31 28 36 36 30 34 35 33 34 35 27 31 37 31 29 28 29 30 29 30 30 30 31 32 33 33 35 35 37 39 39 40 43 48 49 49 49 50 48 48 46 45
33 33 33 29 35 23 32 40 37 31 31 34 32 32 32 29 29 30 30 29 28 29 29 29 30 31 32 33 34 36 37 36 36 36 37 40 42 42 42 42 40 39 39 38
40 35 32 30 28 32 34 34 31 33 27 32 30 31 33 32 35 27 31 30 28 28 29 28 30 30 31 32 33 33 34 34 34 33 35 36 37 37 36 35 35 36 35 34
45 42 34 32 26 21 27 33 39 39 21 31 31 29 28 32 21 22 29 30 28 28 28 28 28 30 30 32 33 30 29 30 30 32 32 34 36 35 34 34 33 33 33 32
32 31 27 27 25 27 29 34 40 19 22 30 31 28 26 23 25 27 29 28 28 28 27 28 27 26 28 30 32 29 29 27 28 30 32 32 32 34 35 35 34 34 32 32
27 26 24 27 23 20 31 34 25 30 31 31 29 28 24 24 25 26 26 26 27 27 27 27 26 26 27 29 31 29 29 29 28 28 28 28 29 30 32 32 33 34 33 31
26 30 25 26 24 30 31 29 31 31 29 29 29 28 26 23 23 25 25 26 26 26 26 27 26 25 28 29 29 28 29 30 28 27 26 26 26 27 28 28 30 30 30 29
31 36 28 28 27 28 30 32 31 30 28 30 30 28 27 25 25 24 25 26 26 26 25 26 26 24 24 26 28 28 30 30 30 27 26 25 25 25 26 26 27 27 26 26
28 31 29 27 28 28 28 29 30 30 30 29 29 28 27 27 25 25 24 24 25 25 25 26 24 24 24 26 26 28 29 30 29 29 28 26 25 24 24 25 26 26 27 27
30 26 25 21 28 26 26 28 30 28 28 29 28 27 28 27 26 26 25 26 26 25 26 25 25 25 24 25 25 28 30 30 28 27 28 28 27 25 24 23 23 28 28 29

GFSCGP_sfc_temp_102.txt.gz
Temp
47 39 34 39 42 45 43 41 38 44 51 49 47 49 53 59 54 55 60 57 57 60 66 67 69 70 71 71 73 71 69 70 70 68 67 66 66 66 65 66 67 67 65 65
42 36 44 48 47 45 43 39 39 45 50 49 47 47 54 53 55 56 56 55 56 58 63 66 67 67 66 70 70 68 70 69 70 69 69 69 69 66 66 66 67 68 67 67
39 44 52 49 45 43 43 40 41 41 48 50 46 44 49 55 55 59 61 62 62 62 64 66 67 65 63 63 66 67 72 70 70 71 69 64 65 63 62 65 66 67 67 66
43 49 48 45 43 45 37 47 46 45 42 34 43 31 46 51 53 58 60 62 64 66 69 63 60 58 58 61 62 68 73 70 71 70 68 66 66 64 66 66 66 66 66 66
40 43 41 41 43 48 41 48 45 45 40 35 39 33 43 49 48 53 57 58 59 58 56 55 55 56 58 58 59 64 71 70 71 68 68 66 65 66 63 63 64 64 64 65
43 48 45 43 48 47 49 44 44 45 36 26 35 34 38 44 49 54 53 53 52 52 52 53 55 56 55 58 60 61 67 68 68 68 68 66 64 63 62 63 63 63 63 63
39 40 45 48 40 44 42 36 26 21 24 25 41 36 40 48 54 56 49 48 49 49 48 48 49 50 52 52 57 60 66 67 67 67 66 65 64 63 63 62 62 62 62 62
25 25 38 44 40 35 36 34 27 19 22 29 41 31 37 46 50 51 50 47 47 46 46 46 48 49 49 50 51 57 62 66 65 64 64 64 64 63 63 62 61 61 62 61
27 28 42 43 45 41 37 32 40 31 34 29 34 41 47 48 46 46 45 44 42 43 43 44 46 46 46 47 48 50 59 61 63 63 63 62 62 63 63 61 62 62 61 61
34 23 38 42 44 44 40 46 28 29 21 22 32 35 33 36 40 42 39 38 40 41 41 42 43 43 45 45 46 49 51 54 60 61 62 63 62 61 61 61 61 60 59 60
36 30 31 37 37 36 37 33 36 35 32 26 25 28 34 34 37 37 38 39 38 38 38 39 40 41 42 44 44 46 48 49 53 59 59 60 60 61 60 60 59 58 58 57
34 29 24 30 41 45 42 36 37 26 31 34 30 28 36 35 35 36 37 38 39 38 36 36 38 39 39 40 42 44 46 45 48 56 58 59 61 61 60 59 58 58 56 57
35 27 21 25 36 41 36 37 38 38 34 32 28 28 37 35 35 37 35 36 37 36 35 34 35 36 37 38 39 41 43 43 46 50 58 59 60 60 59 58 58 57 57 57
38 29 26 22 31 36 32 34 37 38 30 29 27 28 31 32 31 33 34 35 36 35 33 33 33 34 35 36 37 38 40 42 44 49 59 59 59 59 59 59 58 57 57 57
34 28 30 30 33 34 34 34 34 33 33 29 27 27 29 29 30 30 33 34 33 31 31 31 31 32 33 34 35 37 39 40 43 44 47 52 59 59 59 58 58 57 58 57
36 28 31 28 34 34 31 33 33 33 32 31 30 28 32 32 32 29 29 30 29 29 30 30 31 32 32 33 33 36 37 38 40 40 41 44 49 58 58 58 58 56 54 55
31 30 30 27 33 33 27 28 29 29 31 31 25 29 32 27 27 26 26 27 26 27 28 28 29 30 31 32 33 33 35 38 37 37 38 39 41 44 46 47 45 44 43 43
31 31 32 28 31 20 28 33 34 29 29 31 30 31 29 26 26 28 28 26 25 26 26 27 28 29 31 32 32 33 33 34 35 35 35 36 37 38 39 39 38 37 37 36
36 33 30 28 26 27 31 31 28 29 24 29 28 29 29 29 31 25 27 28 25 25 26 27 28 28 30 31 32 32 30 31 30 31 32 33 35 35 35 34 34 34 34 33
38 38 31 30 24 20 26 30 36 36 18 29 29 26 26 31 19 20 26 27 26 26 26 26 27 28 28 30 32 29 28 27 27 28 30 32 33 33 33 33 32 33 33 32
30 30 25 27 24 26 27 32 39 20 20 29 27 25 23 20 22 25 27 26 27 26 25 26 26 26 27 29 31 27 27 25 27 28 28 28 29 31 32 33 33 32 32 31
27 24 23 25 22 20 28 32 25 27 29 28 26 24 22 22 23 23 24 24 25 24 25 25 24 24 25 28 29 28 27 28 27 27 26 26 27 28 29 30 31 31 31 30
24 28 24 25 22 28 29 27 29 31 28 28 26 25 23 21 22 22 23 25 24 24 23 24 23 23 25 26 27 26 28 29 28 27 25 25 26 27 27 27 27 27 28 28
28 33 25 25 25 27 29 29 29 29 28 27 27 26 25 22 22 22 23 23 23 23 23 24 23 22 22 24 26 27 27 30 29 27 25 25 24 24 26 27 27 27 26 26
27 28 27 24 26 27 27 28 29 28 27 27 27 26 25 24 23 23 22 22 22 22 22 22 21 21 21 23 23 26 27 28 27 28 27 25 25 24 24 25 26 26 28 28
29 25 22 21 26 25 25 27 29 27 27 28 26 25 27 26 24 25 23 23 22 22 22 21 22 21 21 22 22 24 27 28 26 26 27 27 27 25 24 23 23 28 29 29

GFSCGP_sfc_temp_105.txt.gz
Temp
46 39 35 40 42 43 41 38 37 42 48 44 43 44 48 54 54 54 56 56 58 59 65 65 65 63 62 64 66 68 70 70 69 68 67 66 66 66 66 67 67 66 67 66
40 34 43 46 44 42 41 37 36 42 47 45 44 43 49 52 53 56 56 58 56 56 58 63 64 62 62 62 62 64 69 69 68 70 70 69 67 66 67 67 66 67 66 65
37 42 50 45 42 40 39 36 36 37 44 45 42 40 45 52 55 57 60 57 56 54 57 61 63 59 58 58 57 61 67 70 69 71 70 64 63 63 64 64 65 66 66 66
39 46 44 41 39 41 35 43 42 40 36 29 37 27 40 47 50 54 57 48 48 48 50 52 52 53 52 53 54 57 65 68 69 70 68 66 66 65 67 66 66 67 67 66
37 40 39 37 40 44 39 44 41 40 35 35 36 30 37 45 44 50 48 48 47 49 50 49 50 51 51 53 54 55 59 68 70 69 69 67 66 67 64 65 65 65 65 65
39 45 41 40 44 44 46 40 40 38 34 25 34 31 33 38 45 49 45 45 45 46 47 49 50 52 52 52 52 56 60 67 69 68 68 66 66 64 63 64 64 64 64 64
35 37 41 45 37 40 38 32 20 17 21 23 38 33 36 42 45 45 43 42 42 43 43 44 45 46 48 49 50 54 61 64 67 67 68 67 66 64 63 64 65 63 63 63
23 24 35 41 37 33 33 31 23 18 19 25 37 29 33 43 45 45 44 42 41 40 40 41 43 44 45 46 47 49 52 55 67 67 67 67 64 63 63 63 64 63 63 64
25 26 40 41 42 39 33 26 36 29 31 24 29 38 42 38 37 39 36 38 37 36 36 36 40 42 43 43 44 47 49 51 54 66 66 65 62 61 61 61 62 62 62 60
32 23 36 40 41 41 37 41 24 27 19 17 29 32 27 30 32 35 34 34 34 35 33 35 37 39 41 42 43 44 47 48 51 58 63 62 61 61 60 60 59 59 59 60
32 29 30 35 32 31 33 32 33 33 31 21 22 24 32 30 31 32 33 34 32 33 32 35 36 38 39 41 41 43 45 46 47 50 57 60 60 59 59 59 58 59 59 59
34 25 23 28 39 42 39 34 33 27 26 32 29 23 34 32 32 32 33 35 35 32 34 35 35 36 37 37 39 41 43 44 46 48 52 59 59 59 59 58 58 58 58 58
33 27 18 25 34 38 33 34 34 36 34 29 25 23 34 32 32 32 31 32 33 32 33 33 33 33 34 35 37 38 40 42 45 47 52 58 58 58 58 58 58 58 57 57
37 27 24 20 28 35 28 31 33 33 29 27 26 24 27 28 28 29 29 31 31 32 31 31 31 32 33 34 35 36 38 40 42 44 45 47 55 58 58 58 58 57 58 55
34 26 29 30 32 32 30 31 32 31 33 26 25 24 25 26 26 26 29 30 29 29 29 29 29 31 32 32 33 34 36 38 40 41 41 42 48 57 58 57 57 57 56 57
34 25 29 26 33 31 27 28 30 29 30 29 27 23 29 30 29 27 26 27 26 26 27 28 29 30 31 31 31 33 33 35 37 36 38 40 42 44 45 52 56 53 51 51
30 27 27 26 31 30 20 25 26 27 28 30 25 25 28 25 25 24 24 25 24 25 26 26 27 28 30 30 31 30 32 34 34 34 36 37 38 38 38 40 41 42 42 41
29 29 29 27 29 17 26 31 30 26 27 28 28 27 26 24 24 25 26 24 24 25 25 26 27 28 29 31 31 31 32 31 31 31 32 34 36 35 35 35 35 35 36 36
35 31 29 27 24 26 29 28 27 27 23 27 26 27 27 27 29 24 26 26 25 25 25 25 27 27 29 30 30 30 28 29 29 29 29 30 33 34 33 32 32 32 33 33
37 34 31 28 24 19 24 28 34 34 16 27 26 25 25 28 20 18 25 25 25 25 25 25 25 27 27 28 31 27 25 25 25 27 28 29 30 31 31 31 31 32 32 31
29 29 25 27 24 24 25 29 36 19 19 26 26 23 21 18 20 23 25 24 25 24 24 24 25 24 25 28 29 28 26 24 25 26 27 28 29 29 29 30 31 31 31 31
25 23 22 25 23 19 27 30 25 26 28 26 24 22 19 19 20 23 23 22 22 21 22 22 21 22 24 26 27 25 26 27 26 25 25 25 27 28 28 28 28 29 29 29
23 25 23 23 20 26 28 26 29 30 27 25 24 24 22 20 20 21 21 22 21 20 20 21 20 20 22 24 25 24 25 28 26 25 23 24 25 27 27 27 27 27 28 28
27 31 24 23 24 26 26 27 28 27 25 26 26 25 23 20 20 20 20 19 19 18 18 20 20 19 19 21 23 24 25 25 27 26 24 24 24 24 26 27 27 27 27 27
25 28 25 23 24 26 26 26 26 27 27 26 25 24 23 23 20 19 15 16 16 16 18 19 19 19 19 21 21 22 25 26 25 26 26 25 25 23 23 24 25 26 27 28
28 24 19 21 25 25 22 27 28 25 24 26 25 24 24 23 20 21 19 20 19 19 20 19 20 20 20 20 20 22 25 26 25 25 25 24 24 23 23 23 23 27 27 28

GFSCGP_sfc_temp_108.txt.gz
Temp
43 37 32 39 40 40 37 34 33 37 43 40 39 41 46 50 49 49 51 54 55 55 63 62 61 60 59 58 60 62 63 68 67 67 66 66 66 66 66 67 67 68 68 67
37 33 42 43 42 40 37 34 32 38 43 41 39 40 46 49 48 50 53 54 55 55 48 53 56 57 55 58 57 59 61 65 68 70 70 69 68 67 68 67 67 67 68 67
36 41 46 43 38 37 36 33 34 36 39 40 38 36 41 48 52 54 54 57 50 45 46 48 50 50 50 50 51 55 58 64 68 70 70 67 66 65 64 65 66 66 67 67
40 45 44 40 37 40 31 42 40 38 33 28 38 25 38 43 46 50 54 55 44 45 47 48 48 50 50 50 50 52 55 59 67 68 68 68 66 65 67 67 67 67 66 66
38 39 38 35 38 42 36 43 39 37 31 30 33 27 35 43 41 45 44 43 43 44 45 46 47 48 50 52 50 50 52 55 65 67 69 67 66 68 67 66 66 66 66 66
39 43 42 40 43 43 44 38 37 35 29 22 32 28 30 35 35 38 42 43 43 43 43 44 46 47 46 48 49 49 54 57 62 66 68 66 66 65 63 65 64 65 65 65
35 36 38 42 34 38 37 30 18 16 18 20 34 29 31 35 36 36 36 38 39 39 39 39 39 40 43 44 46 48 51 54 61 64 66 66 66 65 64 65 65 64 64 64
24 22 33 39 36 30 29 30 23 15 18 22 34 25 31 38 40 38 37 37 36 37 37 37 36 39 40 42 43 45 48 50 53 63 67 66 64 63 63 64 65 65 64 64
25 25 37 41 42 38 30 26 34 27 29 22 25 32 38 38 37 36 35 35 33 32 34 35 36 36 38 40 42 43 45 47 50 53 63 64 64 63 62 63 64 65 63 62
32 22 36 39 39 38 34 38 23 27 13 15 23 26 23 28 30 33 31 31 31 32 32 32 34 34 36 38 40 43 44 45 48 50 53 63 62 62 61 61 61 62 62 61
31 28 29 33 30 28 31 29 30 30 27 19 15 20 31 28 29 29 30 31 30 30 30 30 32 34 33 37 38 40 42 43 45 48 51 59 61 61 61 61 61 61 60 60
32 25 23 27 37 39 36 31 30 21 25 30 25 21 32 30 30 30 30 32 32 30 29 30 30 33 33 35 37 37 41 42 43 47 51 59 59 60 60 59 59 59 59 59
33 26 17 25 30 37 33 33 34 32 30 28 19 18 31 29 30 30 28 29 30 30 29 30 31 32 32 33 34 36 37 39 43 45 46 49 52 59 58 58 58 58 58 58
36 27 22 19 28 33 27 31 32 30 25 25 21 23 25 25 26 27 27 28 28 29 29 29 29 30 32 32 33 34 35 37 39 42 43 43 45 52 58 58 58 58 58 57
31 25 26 28 32 32 29 27 28 30 32 26 24 22 23 24 25 25 26 27 27 27 27 27 27 28 30 30 31 32 33 35 37 39 38 39 41 43 46 53 56 56 56 56
35 25 27 24 31 30 25 26 26 26 28 25 24 22 27 27 27 25 25 25 25 25 26 27 27 28 29 29 29 31 32 33 34 35 36 37 38 38 39 40 42 43 43 45
29 27 25 23 28 28 22 24 25 25 26 28 25 24 27 24 24 22 23 24 23 24 25 25 25 27 28 28 28 28 30 32 32 31 32 34 34 33 36 37 36 36 36 37
29 28 28 25 26 17 24 31 30 25 25 27 27 26 25 23 23 24 25 23 23 24 24 24 25 26 27 30 29 29 30 30 30 30 30 31 32 32 34 34 33 34 34 33
33 30 26 25 23 23 27 27 26 26 22 26 25 27 28 26 27 23 25 25 23 23 23 23 25 26 27 28 29 28 27 27 27 27 28 30 31 30 31 32 32 32 32 32
35 33 29 28 24 18 23 27 32 32 16 26 26 25 24 28 20 18 24 24 23 23 23 22 23 25 25 26 28 27 25 25 24 25 27 29 30 30 29 30 31 32 32 31
28 28 25 27 23 23 25 27 32 20 18 25 25 22 21 18 18 21 24 23 23 22 21 22 22 22 23 25 27 25 26 23 24 25 27 27 28 29 30 30 30 31 31 31
24 22 21 25 23 19 27 30 25 24 26 25 23 20 18 17 19 20 21 20 19 18 19 19 19 20 22 24 25 24 23 27 25 25 24 25 27 27 28 29 29 30 30 30
23 24 22 21 19 25 27 26 28 29 25 24 23 22 18 14 17 18 19 19 17 16 16 18 16 18 20 22 23 23 23 26 27 25 23 23 23 24 27 26 27 28 29 28
27 30 23 22 24 24 26 27 27 27 24 24 24 21 21 18 17 15 14 15 16 16 16 18 18 17 17 19 20 22 25 26 26 25 24 23 23 22 24 25 26 26 26 25
25 27 25 22 24 25 25 24 26 25 25 23 24 23 20 19 16 15 12 13 14 15 16 18 17 17 17 18 18 20 23 24 25 24 22 21 21 20 20 23 24 24 26 27
28 25 18 14 24 23 24 22 26 23 22 23 24 23 23 22 19 19 18 18 18 17 18 17 18 18 18 18 18 20 23 24 22 21 21 19 19 18 18 17 17 26 27 28

GFSCGP_sfc_temp_111.txt.gz
Temp
50 47 43 47 47 46 43 41 40 45 50 45 46 48 52 56 56 56 58 60 61 62 67 68 63 62 62 64 65 68 69 69 73 73 69 68 66 69 71 72 72 72 71 70
46 42 49 48 47 44 43 40 40 45 48 47 47 46 52 54 54 57 58 59 61 62 63 59 58 57 57 58 59 61 63 66 70 76 75 74 72 70 71 69 69 70 70 70
43 46 49 46 44 42 41 40 40 40 45 48 45 43 49 55 56 57 57 52 51 50 50 52 54 54 55 56 56 58 60 62 64 71 76 75 73 71 66 66 67 68 69 70
44 48 46 44 42 44 37 45 44 41 39 34 45 31 44 49 50 47 46 46 45 45 46 48 49 50 52 54 55 56 57 59 62 65 73 72 72 69 70 70 70 68 68 69
42 42 42 40 42 45 41 46 42 42 38 36 38 32 42 49 43 39 41 42 42 42 41 42 43 45 47 49 49 51 54 57 61 64 69 73 72 74 75 72 70 68 67 68
43 47 46 45 47 46 45 42 41 40 36 27 36 35 37 36 34 35 39 41 40 39 39 40 42 43 43 46 46 47 49 53 59 63 66 71 72 72 73 71 68 67 67 66
38 40 44 46 40 42 41 36 27 24 24 25 37 34 38 35 37 37 36 37 39 40 37 36 37 38 40 41 42 44 47 48 53 57 65 71 72 72 72 71 71 68 66 65
29 29 39 42 40 36 36 34 27 18 22 28 37 30 36 39 42 41 40 39 39 38 36 34 36 37 36 38 40 41 45 45 49 52 58 70 69 69 71 72 72 70 69 67
29 28 41 42 43 42 34 29 39 30 32 26 31 35 37 39 38 38 35 37 35 34 34 32 34 35 36 36 37 40 42 45 47 49 52 65 68 67 68 70 71 70 70 67
34 25 38 40 43 42 39 42 28 30 18 18 30 32 32 28 30 33 31 31 32 32 31 31 31 32 35 36 36 39 42 43 45 47 51 54 67 66 66 68 69 70 69 67
37 32 32 37 34 33 33 32 34 34 31 24 23 26 31 27 29 28 30 31 30 30 29 29 30 31 32 33 34 36 38 41 43 45 48 54 62 64 65 65 68 69 66 65
37 30 25 30 40 41 38 35 31 25 25 29 27 25 31 29 29 29 31 31 32 30 29 29 29 30 31 31 32 34 35 37 41 45 47 49 53 61 61 61 61 62 62 64
36 29 22 27 31 38 34 36 34 32 31 25 23 23 31 29 29 30 29 30 31 31 29 29 28 29 29 31 32 32 34 35 38 43 44 45 46 51 59 59 59 60 60 60
39 30 25 24 31 35 28 31 33 30 26 29 26 23 25 26 27 27 27 30 29 29 27 28 28 29 31 31 30 29 33 34 36 40 40 42 42 45 48 56 57 58 58 58
34 26 27 29 33 33 29 28 28 24 31 28 23 22 23 25 25 25 27 28 27 27 26 26 26 27 29 29 30 31 31 33 33 36 37 38 40 41 43 43 45 47 46 46
34 27 26 23 33 31 25 27 27 25 27 25 24 22 28 28 28 26 25 25 25 25 25 26 27 27 28 29 28 29 30 31 33 33 34 36 38 38 37 38 39 40 40 40
30 28 27 24 29 28 23 25 25 25 27 28 25 26 28 25 25 23 24 25 24 24 24 25 25 27 27 28 29 27 28 30 31 30 31 32 34 34 33 36 36 35 34 36
30 29 29 26 26 19 25 30 30 26 26 29 28 28 27 25 25 25 25 24 23 23 24 25 26 26 27 30 30 31 31 29 28 29 30 30 31 32 32 33 32 32 33 32
32 31 27 25 24 24 26 28 27 26 23 27 27 29 28 27 29 24 26 25 23 23 24 23 25 26 27 29 30 31 29 29 28 27 28 30 30 30 31 31 32 32 32 32
34 32 29 28 23 20 26 29 32 32 22 27 28 27 29 30 24 21 24 24 23 23 23 22 24 25 25 26 29 27 27 27 25 26 27 29 31 30 30 31 31 32 32 31
29 29 27 28 25 24 27 29 33 22 22 26 26 25 26 22 23 23 24 22 23 22 21 21 22 22 23 25 27 25 26 25 26 27 27 27 29 29 30 31 32 32 32 32
25 23 24 26 24 20 28 30 26 26 27 26 24 22 20 21 21 21 21 20 20 19 20 20 19 20 22 23 25 24 24 27 27 27 26 26 27 28 29 30 31 31 31 31
25 25 23 23 22 26 28 27 30 31 27 25 25 23 21 20 19 20 19 21 20 19 20 21 19 19 20 21 23 22 24 26 25 25 24 24 26 27 28 28 28 29 29 29
29 31 25 25 25 25 26 28 29 29 26 27 26 25 23 19 18 17 19 20 20 20 20 22 21 19 18 20 21 22 24 24 24 23 23 24 23 24 26 28 28 28 27 27
28 30 27 23 25 26 26 27 27 26 26 25 25 24 22 21 19 19 18 19 20 20 20 21 21 20 20 22 22 23 25 25 25 24 23 23 24 23 24 24 26 26 26 26
30 26 24 24 27 27 25 27 28 25 24 25 25 23 24 24 21 23 22 22 23 22 23 23 23 22 23 24 23 25 27 27 25 24 24 23 24 24 24 24 24 25 25 26

GFSCGP_sfc_temp_117.txt.gz
Temp
67 60 56 62 65 65 62 58 57 63 69 64 62 62 67 72 73 72 73 74 75 73 73 72 71 71 71 71 70 71 71 73 74 77 78 81 81 83 83 82 84 83 84 83
62 54 63 67 65 61 58 55 56 62 67 62 60 60 66 70 71 73 72 71 68 67 67 67 67 67 66 66 66 67 67 69 71 74 76 79 82 85 85 85 83 84 84 83
58 62 65 60 59 56 56 54 55 55 60 63 59 57 63 71 69 70 67 65 65 63 62 63 63 63 63 62 63 63 64 65 67 68 71 74 77 78 82 81 81 83 83 83
59 66 60 59 55 58 51 61 58 54 51 46 60 44 57 64 66 65 63 60 60 60 60 60 60 60 60 60 62 62 61 61 63 65 65 67 70 74 82 82 81 81 81 82
54 58 55 53 56 60 53 59 54 53 50 49 50 45 54 63 61 60 56 55 56 58 57 56 56 56 58 59 58 58 57 58 60 61 61 62 65 71 76 78 80 79 80 80
58 63 59 58 60 58 59 54 52 51 47 36 47 48 51 53 48 51 52 53 53 54 54 54 54 53 53 55 54 53 53 55 57 57 57 56 58 63 69 73 77 76 77 78
55 56 60 57 53 58 53 47 37 35 37 36 53 49 51 51 51 48 48 50 51 51 50 49 48 47 47 47 48 48 48 49 51 52 53 53 54 58 63 67 72 76 75 75
42 39 55 58 52 51 52 49 38 28 32 39 53 42 49 53 54 52 49 49 47 46 46 44 42 42 42 42 43 42 42 44 47 47 48 49 51 54 61 67 72 71 79 78
43 44 54 53 56 53 48 43 51 38 40 35 42 50 52 50 48 47 44 45 41 42 40 40 40 39 38 38 38 39 38 40 42 41 42 44 48 51 55 65 72 76 77 80
47 36 52 53 53 53 48 53 37 38 24 26 39 44 34 31 35 39 38 40 39 39 37 37 36 36 36 36 37 38 36 37 38 39 41 44 46 51 55 64 71 75 78 79
51 43 44 47 44 43 46 40 42 43 38 30 29 30 33 29 31 33 38 41 38 37 35 34 33 34 33 35 34 35 34 35 36 38 40 42 47 50 54 64 71 75 76 76
50 41 36 42 52 53 50 46 44 32 32 36 36 33 36 33 35 36 36 38 41 38 37 35 33 32 31 31 32 31 32 33 34 36 39 44 45 47 50 58 71 74 73 74
47 39 30 36 42 47 41 45 47 43 39 32 27 31 37 35 36 35 34 37 37 37 36 36 33 32 31 32 31 31 31 31 32 36 38 41 41 43 43 45 49 51 65 66
46 38 33 31 33 42 37 41 43 41 32 35 35 29 29 30 31 33 32 33 34 34 33 33 32 32 33 32 31 31 31 31 32 34 36 38 38 39 40 42 42 45 46 46
43 33 35 37 41 42 39 38 40 33 37 29 32 29 28 29 30 30 31 31 31 31 31 31 31 31 33 33 33 33 31 31 31 32 33 35 37 38 38 38 38 39 40 40
46 32 33 30 41 40 35 37 38 34 33 29 30 27 31 33 33 31 29 29 28 29 28 29 31 32 31 32 33 34 32 31 32 32 31 33 34 35 36 35 35 36 36 36
38 33 31 29 39 35 29 30 32 31 32 33 29 30 33 30 30 27 29 29 27 28 28 29 30 30 31 33 35 35 34 33 31 31 31 32 32 32 32 33 33 32 32 34
34 31 35 31 33 24 28 36 36 32 33 36 34 33 34 32 30 29 30 28 28 27 28 28 29 30 31 35 35 37 38 36 32 32 31 32 32 32 32 32 32 31 31 31
40 35 31 29 32 31 30 32 33 30 29 37 35 35 35 35 35 29 30 30 27 27 28 27 29 31 31 32 34 34 34 34 32 30 31 32 32 31 31 31 31 32 32 31
41 38 31 34 29 26 34 40 44 42 27 39 40 37 36 37 31 27 29 30 29 27 27 26 27 29 27 28 32 28 28 29 28 30 31 33 34 32 32 32 32 32 32 32
31 31 30 32 31 32 40 41 42 27 27 39 41 40 37 33 29 28 30 29 30 28 26 27 26 25 26 27 29 26 26 25 29 30 32 31 32 31 32 32 33 33 33 33
36 33 32 35 31 27 38 39 31 33 38 39 37 32 29 28 27 27 27 27 28 28 28 27 25 25 27 28 27 26 25 28 29 30 30 31 30 31 31 29 31 31 31 31
33 38 33 33 30 33 36 36 40 41 37 36 34 33 30 28 28 29 29 30 29 28 29 30 26 26 27 29 28 26 27 30 29 30 29 30 31 29 30 29 26 27 29 29
36 39 37 33 31 32 34 38 41 40 36 37 36 34 32 28 29 28 30 31 31 31 30 32 31 28 26 29 30 30 30 31 31 30 31 31 30 31 29 30 29 25 24 25
38 38 34 30 31 33 33 35 35 35 35 34 34 34 31 31 29 29 29 30 31 31 32 32 31 31 30 31 31 31 32 32 32 32 31 32 33 31 32 27 27 27 25 25
41 34 33 31 35 36 31 33 35 33 32 33 33 32 34 33 32 34 35 37 37 36 36 36 35 34 34 33 32 34 34 34 32 32 33 32 33 33 33 32 31 29 28 27

GFSCGP_sfc_temp_120.txt.gz
Temp
64 55 51 58 63 63 61 59 57 62 67 63 62 63 66 70 70 70 72 73 73 74 70 69 67 66 65 65 64 64 63 64 65 66 66 68 69 74 76 78 78 77 77 75
58 52 62 65 64 61 60 56 54 59 65 63 61 60 65 67 68 70 71 71 65 65 65 65 65 64 62 62 61 61 63 62 62 64 65 65 65 68 70 76 77 78 76 76
54 60 68 63 60 56 57 54 54 54 60 62 58 54 59 67 71 73 69 66 63 60 59 59 60 59 58 57 58 59 60 60 60 60 62 64 66 67 68 70 74 77 77 76
58 65 61 60 57 59 50 60 58 55 51 43 57 41 53 60 62 66 60 58 57 57 58 57 56 55 54 55 55 56 56 56 58 58 57 57 58 59 63 66 71 76 77 77
53 57 57 55 55 59 54 60 56 54 49 47 47 43 50 58 56 51 53 54 54 55 54 53 52 52 52 52 50 50 51 52 52 54 55 54 54 57 61 63 65 68 72 75
58 67 62 59 61 60 61 54 53 52 48 36 45 45 46 49 49 48 51 52 51 51 50 50 50 49 48 48 46 46 46 47 48 49 50 51 51 52 53 56 59 63 66 71
55 56 62 63 53 57 56 47 34 33 35 34 50 47 41 48 48 48 46 47 47 47 46 45 43 42 42 42 42 43 43 42 44 45 46 47 48 49 50 52 55 59 62 65
43 41 56 61 54 49 49 47 36 26 29 35 47 38 40 51 50 48 48 47 45 43 42 41 40 40 39 39 39 39 39 38 40 41 43 44 45 46 48 50 53 57 61 65
43 44 58 57 57 54 46 41 51 39 41 33 39 46 47 46 43 43 44 43 41 40 39 38 39 38 37 37 37 37 36 36 37 38 39 41 43 44 46 48 52 54 58 65
48 37 52 54 58 55 49 52 36 39 24 23 36 38 29 31 34 38 38 38 39 39 37 37 36 35 36 36 36 36 36 34 34 36 38 39 42 44 46 48 49 52 55 61
51 45 43 51 47 45 46 42 42 41 36 26 25 30 32 30 32 33 37 39 37 36 35 34 33 34 35 35 34 34 34 33 33 35 38 39 43 45 47 49 51 52 55 59
51 43 34 41 53 55 51 45 44 31 29 36 33 29 36 34 36 37 36 38 38 36 34 33 32 32 32 32 33 33 32 32 32 34 38 39 41 42 43 44 47 53 57 61
49 39 30 35 43 49 44 45 46 44 38 31 27 28 36 37 36 36 34 35 36 34 32 32 31 31 31 32 32 32 32 32 32 33 35 37 38 38 38 40 42 44 45 46
46 39 32 28 34 40 33 36 44 42 32 34 33 27 30 32 32 32 32 33 32 31 29 30 30 30 31 32 32 32 32 32 32 32 33 34 35 36 37 39 38 39 41 39
44 33 34 37 40 41 39 38 41 36 39 31 32 30 29 30 30 30 32 31 30 29 28 28 29 29 31 32 32 33 32 32 32 32 32 32 33 35 36 36 37 37 36 35
45 32 34 29 39 39 35 38 40 37 37 34 32 32 33 33 31 30 29 28 27 27 27 28 29 30 30 32 31 33 32 31 32 31 31 32 32 33 34 34 34 34 34 34
38 33 30 27 40 38 30 34 36 38 39 38 31 32 32 29 28 27 27 27 26 27 27 27 29 29 30 32 32 33 34 33 31 31 31 31 32 32 32 33 33 32 32 33
35 32 34 29 34 23 31 39 41 37 36 36 33 32 33 30 29 28 29 27 27 27 27 26 27 28 29 32 31 34 34 32 32 31 31 31 31 30 31 32 32 32 32 31
41 36 30 28 31 32 32 35 35 31 30 39 35 33 33 31 30 26 31 29 26 25 26 25 27 28 27 29 30 30 30 30 30 30 30 31 30 30 30 30 31 31 32 31
41 39 32 32 26 24 33 41 45 42 27 39 38 35 33 32 26 24 29 29 27 26 26 25 25 27 25 26 29 26 26 27 27 28 29 30 31 28 28 29 29 32 32 31
31 31 29 30 27 31 42 43 46 27 28 40 41 39 36 32 29 28 30 29 29 27 25 26 24 23 25 26 26 25 25 25 28 29 30 28 29 29 27 27 28 29 29 29
33 30 31 32 28 27 43 41 32 34 41 40 36 33 27 27 27 26 27 27 28 27 26 25 23 23 25 26 25 24 24 27 28 29 29 29 27 27 27 24 25 26 26 27
34 38 32 29 29 35 38 37 41 43 38 36 33 31 29 26 25 27 28 29 28 27 27 28 22 22 24 26 26 24 25 26 27 28 28 28 28 27 26 23 22 22 23 22
40 42 37 33 33 34 36 41 42 40 36 37 35 33 31 27 28 27 30 30 30 31 30 32 29 23 22 25 27 27 28 29 27 28 28 29 28 25 25 26 23 21 20 20
40 40 36 30 33 34 35 36 36 36 36 35 35 34 31 30 29 29 28 29 30 30 31 32 30 29 28 29 28 28 29 30 30 29 28 29 30 29 26 24 24 23 23 24
42 35 33 32 36 36 32 34 36 33 33 34 34 33 34 33 31 33 33 36 36 34 36 34 33 31 31 30 29 31 31 31 30 29 30 29 29 29 29 28 27 31 29 28

GFSCGP_sfc_temp_123.txt.gz
Temp
55 44 40 46 51 53 53 51 48 52 59 56 53 53 55 60 57 55 58 56 56 55 58 58 57 55 55 55 55 56 56 57 57 57 56 56 56 60 60 61 66 70 73 74
49 43 52 57 57 55 52 48 47 53 59 56 51 49 54 56 57 58 58 52 52 52 53 55 53 52 51 51 51 51 51 52 53 54 55 56 56 58 60 63 63 65 69 72
46 52 61 58 55 53 50 48 47 48 52 50 48 46 50 57 60 56 54 53 51 49 48 49 49 47 47 46 46 47 47 48 49 51 52 53 55 55 55 58 60 63 67 71
50 58 57 54 51 53 44 53 53 50 43 34 46 31 45 53 52 49 49 47 46 46 47 47 45 44 43 43 44 44 45 44 47 48 46 45 46 48 52 53 57 58 61 65
47 51 50 49 51 55 47 54 49 47 40 38 42 31 42 51 42 43 44 44 43 44 43 42 42 41 42 42 41 41 42 43 44 43 44 42 43 48 50 51 51 54 57 61
51 58 54 52 57 54 55 49 46 43 37 28 39 37 33 36 40 41 43 43 42 40 40 39 40 40 39 39 39 38 39 40 41 41 41 40 40 44 46 48 47 49 52 56
47 50 55 59 48 51 47 39 24 23 24 26 44 40 37 40 41 41 40 40 41 39 37 36 37 36 36 35 36 37 38 38 39 38 38 39 41 42 43 44 46 47 48 51
35 32 50 55 49 44 43 40 28 22 21 27 41 32 33 41 43 44 42 40 39 37 37 35 35 34 34 35 35 36 36 36 37 36 36 38 40 41 42 44 45 46 48 50
37 39 51 54 53 49 42 33 45 34 34 28 32 35 38 41 38 39 39 38 34 33 33 33 33 33 33 34 34 35 35 35 36 35 36 37 39 40 41 43 45 46 48 51
42 31 47 51 52 49 44 47 28 28 21 20 28 33 29 30 31 35 35 34 33 32 31 31 31 31 33 33 35 35 35 34 34 35 36 38 40 42 44 45 45 46 48 50
44 37 37 46 41 39 40 34 37 34 30 20 15 17 32 28 32 32 35 36 32 31 29 29 30 31 32 33 33 34 33 33 33 34 35 37 39 41 42 43 45 46 48 49
43 36 26 35 46 49 44 40 38 22 26 30 28 21 34 31 34 35 35 36 35 32 28 28 29 30 31 31 32 32 32 32 32 34 35 35 37 39 40 39 41 43 44 49
42 32 22 28 35 42 36 39 39 37 32 28 19 19 33 34 34 35 32 33 32 31 29 30 30 29 29 31 31 32 31 31 32 33 33 34 35 35 36 37 38 39 40 41
43 34 27 23 29 35 30 37 39 35 26 25 23 20 28 32 33 32 31 31 30 29 28 28 28 28 29 30 30 31 30 31 32 32 32 32 33 34 34 36 36 36 37 37
37 28 26 31 37 37 34 33 36 29 33 24 23 25 27 31 30 29 30 30 29 27 26 26 26 26 27 28 29 31 30 30 31 31 30 31 32 34 34 34 34 35 35 35
38 25 23 19 35 35 30 33 34 31 32 26 26 25 32 32 31 28 27 27 26 25 26 26 27 27 27 28 27 29 30 29 30 29 28 30 31 32 32 33 32 32 32 32
31 25 19 19 34 35 24 28 30 33 36 35 28 29 31 28 27 26 26 26 24 25 25 25 25 25 25 26 28 27 28 30 29 28 29 28 29 29 30 32 32 30 30 30
28 26 27 22 26 18 26 37 37 33 36 33 30 30 31 28 27 27 27 26 25 25 24 24 24 25 25 27 27 28 29 29 28 27 27 28 26 27 28 29 29 30 29 28
36 29 22 20 22 28 30 33 33 30 31 36 32 32 29 28 28 25 28 26 24 23 23 23 24 25 25 25 27 26 27 28 28 27 26 28 26 25 25 26 27 27 28 27
37 34 25 26 23 21 28 39 43 40 24 38 34 30 28 28 24 22 27 26 24 23 22 21 22 25 24 24 26 22 23 25 25 26 26 27 27 25 23 24 24 26 25 25
29 29 26 25 24 28 37 41 44 24 25 37 35 32 29 26 26 25 27 25 25 21 20 21 20 19 19 21 21 21 20 22 22 25 27 26 26 25 24 24 24 24 25 24
29 24 24 27 25 23 39 39 30 31 34 36 36 33 28 24 24 23 23 22 24 22 20 18 16 17 20 20 19 20 21 20 21 21 22 24 24 24 23 22 22 22 22 21
29 31 26 28 24 31 34 31 36 36 31 30 30 29 26 22 22 23 24 25 24 21 20 19 16 14 18 20 21 22 22 20 21 23 21 19 22 22 22 20 20 21 20 19
33 39 28 27 27 31 34 36 36 35 32 31 30 28 27 23 24 23 25 26 25 24 22 23 20 17 18 17 21 21 24 24 20 22 21 22 18 20 19 20 21 20 19 19
31 33 29 27 29 31 34 34 33 33 33 31 31 29 27 27 25 24 23 23 23 23 22 23 23 23 21 23 20 21 24 25 25 22 23 22 25 21 18 21 20 21 23 23
31 27 24 22 30 29 28 32 34 32 31 32 30 28 29 29 27 27 26 27 28 26 28 27 25 24 23 23 23 25 27 26 24 25 25 23 24 23 24 22 22 29 28 28

GFSCGP_sfc_temp_126.txt.gz
Temp
51 43 39 43 46 48 47 45 42 46 54 51 49 43 48 56 53 49 48 48 48 48 49 49 48 47 46 45 45 46 45 46 47 47 46 48 49 52 54 56 58 59 62 62
44 39 50 52 52 49 47 44 43 48 54 51 45 46 46 51 46 47 45 43 43 43 44 45 44 43 42 42 42 43 43 43 44 46 46 47 47 50 51 54 55 57 58 59
41 48 56 53 49 47 47 44 43 43 47 46 43 42 43 49 48 47 45 44 42 41 40 40 40 39 40 39 39 41 41 41 43 43 43 44 45 46 47 49 51 54 55 55
46 54 52 50 48 49 41 50 48 45 40 31 42 28 40 43 41 41 41 39 38 38 39 39 38 37 37 37 38 39 39 40 42 41 40 39 38 38 42 44 48 50 52 53
44 46 46 45 48 51 45 50 46 43 36 34 34 30 36 42 36 36 38 38 36 36 36 36 36 37 37 37 36 37 38 39 40 40 39 38 37 39 41 42 44 47 49 50
48 52 50 49 53 52 52 45 42 39 35 26 36 33 31 31 35 36 38 38 37 36 36 36 36 36 35 36 36 36 37 37 38 38 38 36 35 36 37 39 40 42 45 47
43 46 52 53 44 49 45 36 24 23 23 24 38 33 30 35 38 36 35 35 35 35 33 32 32 32 33 33 35 38 38 36 37 38 37 36 36 36 36 38 40 41 42 44
33 31 44 51 45 42 40 38 27 22 22 24 38 28 28 38 40 40 38 35 34 32 31 31 31 31 32 34 35 36 36 35 36 36 36 38 38 38 39 40 41 42 44 45
34 36 47 50 50 47 40 32 41 31 30 24 29 29 37 38 36 37 36 34 31 30 29 29 30 32 33 33 34 34 34 34 35 36 36 36 38 40 40 42 43 43 45 47
41 31 43 47 49 47 43 45 29 28 22 20 26 27 23 28 32 35 32 30 29 29 28 29 30 31 31 34 33 34 33 33 33 34 35 36 36 38 40 42 43 44 46 47
42 36 36 43 39 37 37 32 34 33 30 21 16 16 25 26 29 29 31 31 28 27 26 27 28 29 30 31 31 32 31 31 32 34 34 35 36 37 39 40 40 41 43 44
41 33 27 34 43 45 40 37 35 24 27 27 26 22 33 31 31 32 32 34 33 30 26 27 27 27 28 29 29 30 31 31 31 33 34 34 35 35 36 36 38 39 39 40
41 31 22 28 33 39 34 36 37 34 29 25 17 18 32 32 30 32 30 31 30 30 27 27 27 26 27 27 27 29 29 29 30 31 31 32 33 34 33 34 35 37 37 38
42 32 27 25 29 32 28 34 35 31 21 25 21 18 29 31 31 31 31 29 25 26 27 26 26 25 26 28 27 27 28 29 28 29 29 29 30 32 32 33 34 34 35 35
36 29 24 30 34 35 31 31 33 26 32 24 22 25 25 30 29 31 27 28 27 26 25 25 24 25 26 27 27 28 29 28 27 27 27 26 28 31 32 32 31 31 31 32
35 25 21 15 34 32 27 32 32 31 31 25 23 26 29 29 29 27 27 26 25 25 25 25 25 25 25 26 26 28 28 28 28 26 26 26 27 28 29 30 30 29 29 29
29 24 18 16 32 31 24 27 28 27 32 33 26 30 28 27 28 26 26 26 24 24 24 24 24 24 24 25 27 26 27 28 27 25 26 25 25 25 27 27 28 27 26 26
27 26 25 22 24 16 28 35 35 32 33 32 29 29 31 29 26 26 27 25 25 24 24 24 24 24 24 26 27 28 28 28 27 26 25 25 23 22 24 25 24 25 24 24
35 28 22 19 22 27 30 33 31 29 29 33 29 29 27 26 26 23 27 26 23 22 23 22 23 25 24 24 26 26 26 27 27 25 25 25 24 22 21 21 22 23 23 22
34 33 26 23 21 18 28 36 40 38 20 34 33 28 26 25 22 21 25 25 23 23 22 21 22 24 22 22 24 21 22 23 22 23 25 26 26 23 21 20 21 22 22 22
29 28 25 25 23 27 36 39 41 20 24 34 32 29 27 24 26 25 26 24 24 22 20 20 18 16 16 18 20 19 19 19 18 20 24 24 24 23 23 23 22 22 22 22
29 26 25 27 23 21 36 38 28 30 32 34 32 31 27 22 23 22 22 21 22 20 19 16 15 14 16 17 16 18 18 16 16 15 15 18 19 21 21 21 22 22 21 21
28 31 25 27 27 30 32 32 34 35 31 32 32 31 25 22 21 22 22 24 23 21 18 17 12 14 14 16 17 18 17 18 18 19 16 10 14 18 17 19 20 20 20 20
33 38 29 28 28 29 32 32 34 33 30 31 31 29 27 23 22 22 24 25 25 23 21 20 20 16 15 15 19 18 21 20 20 21 20 21 18 18 16 19 21 21 20 19
31 34 29 26 26 30 31 30 30 28 29 28 29 29 27 25 23 23 22 23 22 22 23 23 22 21 19 20 19 18 21 23 23 21 21 21 22 20 20 22 22 21 23 23
32 28 25 24 30 30 25 29 31 28 27 28 27 27 28 27 25 26 25 26 26 25 25 23 22 22 21 21 21 23 25 25 23 24 23 20 20 20 20 18 18 27 27 27

GFSCGP_sfc_temp_129.txt.gz
Temp
48 41 38 41 44 45 43 40 38 41 50 46 45 43 45 45 43 40 40 40 40 40 43 43 43 41 41 41 40 41 40 41 41 42 40 42 43 44 46 49 51 52 54 56
42 38 48 49 48 45 43 39 39 44 49 47 41 40 37 41 40 39 38 37 37 38 39 41 40 39 38 38 38 39 39 39 40 41 40 41 41 43 44 47 48 50 51 52
40 46 52 48 45 43 42 39 39 41 43 43 39 37 38 41 42 42 39 38 37 36 35 37 37 36 36 35 36 37 37 38 39 40 40 39 40 41 41 42 43 46 48 49
43 50 49 46 44 45 37 47 46 42 38 31 39 27 38 37 36 37 36 34 33 34 35 36 35 34 34 34 36 36 37 38 39 39 37 36 34 33 37 38 41 43 45 47
42 45 43 42 45 48 43 48 45 42 34 31 31 28 29 36 32 33 34 34 33 33 33 33 33 33 34 34 35 38 40 38 38 37 37 36 34 35 36 37 38 40 43 45
45 49 48 47 50 50 50 43 39 35 33 26 33 31 28 30 32 33 35 34 33 32 32 32 33 33 32 35 37 38 38 36 39 38 38 37 36 36 36 37 37 38 40 43
41 44 48 51 43 45 42 36 25 23 23 24 35 30 32 32 35 35 33 32 31 31 30 29 29 32 33 34 36 35 35 35 37 37 37 37 37 37 37 38 39 39 41 43
32 31 42 47 43 40 37 36 27 22 21 26 35 27 30 36 38 37 35 33 32 30 28 28 29 32 32 33 33 33 34 34 35 36 36 37 38 37 38 40 41 41 42 43
31 33 45 47 46 45 38 32 37 31 29 23 27 29 34 35 34 35 33 31 28 27 27 27 30 31 31 32 31 32 32 32 32 33 34 36 37 36 37 39 41 42 44 45
39 31 41 45 46 44 41 44 29 28 22 21 25 27 25 27 31 33 30 27 27 26 26 26 30 28 30 30 29 31 31 30 31 33 33 35 35 36 37 38 38 39 41 43
41 36 35 41 37 36 36 32 34 33 29 21 21 18 26 28 30 29 29 28 25 25 24 24 25 27 27 28 28 29 29 29 30 31 32 32 32 34 35 35 36 37 39 39
41 34 27 34 41 41 38 35 34 24 26 27 25 25 33 28 29 30 30 31 29 25 25 24 23 22 24 27 27 27 28 28 28 30 30 30 31 34 33 33 34 36 36 38
40 31 22 29 33 37 33 35 36 33 28 25 17 21 31 29 29 30 27 28 26 26 25 24 23 23 24 26 26 27 28 27 27 28 28 28 28 31 31 31 32 32 34 35
42 32 28 27 30 32 28 33 35 31 20 25 24 24 27 27 26 27 27 27 24 24 23 23 23 25 25 26 26 26 27 27 27 27 26 26 26 28 29 30 29 30 32 32
36 30 24 30 33 33 31 30 32 26 31 22 28 26 26 29 28 27 27 26 25 24 25 24 24 24 25 26 26 27 27 26 26 25 24 24 25 27 27 28 28 28 28 30
34 25 20 16 32 32 27 30 31 28 29 27 24 29 30 29 28 26 26 26 25 25 25 25 25 26 25 25 26 28 27 26 27 24 23 23 24 24 26 25 26 26 26 27
29 21 17 18 29 29 21 28 28 27 31 31 26 31 27 26 28 26 25 26 24 25 25 25 24 24 25 25 27 26 27 27 26 25 23 22 22 21 22 24 23 23 23 25
25 22 24 19 25 14 28 34 34 31 33 33 29 26 30 28 27 27 27 25 26 25 25 25 23 24 24 26 26 28 28 27 25 25 24 23 21 20 20 21 21 21 22 23
32 27 21 21 21 26 33 32 31 29 29 32 28 30 26 25 25 23 27 27 24 21 21 19 21 24 23 24 26 26 25 25 24 23 24 24 23 21 19 19 19 20 21 21
33 30 27 23 17 16 29 35 39 37 19 31 31 27 25 25 20 19 25 25 23 22 21 20 21 23 21 20 24 19 19 21 20 21 23 24 25 22 20 19 19 21 21 21
25 24 25 25 23 27 36 37 39 19 24 31 30 28 25 23 22 24 25 24 23 21 21 21 19 17 15 15 20 17 15 14 15 19 22 21 21 22 21 21 21 21 21 22
28 24 23 26 23 21 37 35 29 30 30 31 29 28 25 22 22 22 22 21 22 21 20 15 17 13 12 15 18 16 16 12 13 14 15 16 16 18 18 19 19 20 20 20
28 32 27 30 29 32 33 31 33 33 31 30 29 29 24 21 20 21 21 23 22 21 19 18 15 13 13 15 13 16 12 14 16 15 13 9 13 15 14 16 18 18 19 19
32 37 30 32 31 31 32 32 32 32 31 31 31 27 26 23 21 21 23 23 23 23 19 19 18 13 12 10 15 13 15 15 15 14 14 16 14 16 17 17 19 18 18 18
30 34 32 29 28 31 32 32 31 28 29 30 29 28 26 24 23 24 23 24 23 22 23 22 21 21 18 18 17 14 18 20 21 19 18 18 20 14 14 18 21 19 20 23
32 32 28 26 32 32 27 27 30 27 26 28 28 26 27 27 25 26 25 25 25 24 24 22 22 21 20 21 21 22 24 24 22 22 21 18 19 18 18 14 14 25 26 27

GFSCGP_sfc_temp_135.txt.gz
Temp
53 52 47 49 49 50 48 46 44 48 54 51 52 52 50 45 45 43 43 43 44 44 45 46 45 45 44 44 44 44 44 45 45 46 44 46 45 46 49 50 50 49 50 51
50 46 52 52 50 49 46 43 44 48 51 50 51 50 46 45 43 43 42 41 42 43 44 44 44 43 42 42 43 44 44 45 44 45 45 45 44 46 47 48 48 47 48 48
47 51 51 50 48 46 45 43 43 46 50 51 48 48 44 43 43 42 41 41 40 40 40 41 41 41 42 41 42 42 43 44 44 44 46 46 46 46 46 46 46 47 47 48
47 52 49 48 47 48 42 50 48 46 44 41 47 38 46 43 43 43 42 41 40 39 40 40 39 40 40 41 43 41 42 43 44 44 42 41 39 39 42 42 44 45 46 47
47 47 45 44 47 50 46 50 48 47 45 41 42 41 42 40 43 44 43 41 39 38 38 38 37 39 40 41 41 40 41 41 41 40 40 39 38 40 42 43 41 43 44 46
49 54 52 52 51 51 52 48 44 41 42 35 43 42 45 43 45 42 43 41 38 37 37 37 38 39 39 40 39 39 39 39 39 37 38 37 36 37 38 39 39 40 44 46
45 47 52 53 48 50 48 44 35 34 32 33 39 37 44 46 43 44 44 40 38 37 36 36 37 36 37 37 37 37 37 36 37 36 36 36 36 36 36 37 38 38 40 42
38 37 46 50 49 45 43 44 35 26 28 35 38 35 44 43 43 42 41 40 37 36 35 35 36 35 35 36 36 36 34 34 36 35 35 36 36 36 37 37 37 37 37 39
37 39 49 50 50 50 41 39 44 38 34 31 39 41 42 39 39 39 39 37 36 34 34 34 35 35 35 35 35 34 33 34 34 33 34 35 35 35 35 35 35 35 35 38
43 37 45 47 51 48 46 48 36 36 27 25 35 37 37 36 40 39 38 37 35 33 32 32 32 32 34 34 34 34 34 32 32 33 34 34 34 34 33 33 32 33 34 36
45 43 40 45 43 43 42 39 38 39 36 29 27 32 37 36 40 40 39 38 34 32 30 28 28 30 30 31 31 31 30 29 30 33 33 31 30 30 30 30 30 31 33 34
46 41 35 40 43 45 44 42 42 34 33 34 32 31 39 38 36 39 39 37 35 32 30 28 27 26 27 27 28 28 29 28 29 31 30 28 28 28 28 28 29 30 31 33
44 39 33 35 40 42 40 41 40 38 36 33 28 31 36 35 37 38 37 36 34 32 30 29 28 27 26 28 28 27 28 27 27 28 27 26 26 26 26 27 28 30 30 31
46 39 34 34 37 39 35 37 39 39 32 35 33 34 39 41 38 37 35 35 33 32 30 29 29 28 28 28 27 27 27 27 26 25 25 24 24 25 25 27 28 29 31 30
43 37 30 35 38 39 37 37 37 33 38 32 35 35 39 41 41 39 37 32 30 29 29 29 28 28 28 29 28 28 28 26 26 24 23 23 25 25 26 27 28 28 29 29
39 32 29 25 35 36 32 35 36 34 35 33 32 33 44 44 38 35 33 31 30 29 29 29 29 30 29 30 28 29 28 26 27 24 23 24 24 24 25 25 26 26 27 27
36 30 30 29 34 34 28 32 32 36 37 37 31 41 41 36 35 33 31 31 30 30 29 29 29 29 29 29 29 28 28 28 27 25 23 23 23 22 22 25 24 24 24 25
31 32 32 28 30 21 35 38 39 36 39 39 40 41 36 34 29 31 33 32 31 30 30 30 30 28 28 30 30 30 29 29 27 26 25 23 22 21 22 22 23 23 24 23
36 34 28 27 26 33 38 38 35 33 36 42 40 35 29 28 30 26 33 34 31 30 28 25 26 27 28 28 29 28 28 27 27 26 26 26 24 22 22 21 23 23 23 23
35 36 34 27 23 22 35 40 42 41 29 40 38 34 29 30 29 33 30 31 28 25 25 24 25 27 25 25 27 23 23 23 23 24 25 27 27 25 22 23 23 24 24 23
28 28 27 28 26 32 41 41 42 28 33 37 37 35 31 30 34 29 30 28 26 24 23 24 23 22 22 23 24 20 20 18 19 23 25 24 26 24 24 25 25 25 24 23
31 28 27 30 25 23 41 39 35 40 37 38 36 33 29 26 24 25 24 23 24 23 23 22 21 20 20 22 22 19 18 18 20 21 21 21 22 23 23 22 24 24 24 23
32 36 32 34 34 40 43 43 43 41 40 37 37 34 29 23 22 23 24 25 24 22 22 22 20 18 19 21 22 19 18 20 20 20 18 20 21 21 23 23 23 24 23 23
36 39 35 35 37 39 41 41 41 40 39 39 38 34 31 26 23 23 25 26 25 24 22 23 21 19 18 20 23 21 20 21 21 20 20 21 22 22 22 25 26 25 23 22
37 38 36 34 36 38 40 39 41 38 38 35 34 33 31 28 25 25 25 26 25 24 24 25 25 24 22 23 22 23 23 24 23 22 22 23 23 22 23 24 25 25 26 26
37 34 34 35 40 41 37 35 37 36 34 36 33 31 32 32 28 29 28 28 27 26 26 26 26 25 25 26 26 27 28 27 25 24 24 24 24 24 24 24 23 25 26 26

GFSCGP_sfc_temp_138.txt.gz
Temp
64 62 60 62 61 60 58 56 56 62 64 58 61 63 67 60 60 58 58 57 56 55 56 56 55 56 56 56 55 55 55 55 55 57 55 56 56 58 59 60 58 57 57 57
60 57 64 61 60 57 56 54 56 60 62 57 61 61 65 60 61 60 59 57 56 56 57 55 55 55 55 55 54 53 54 54 54 55 55 55 55 57 57 58 58 57 56 55
57 61 60 58 57 55 56 54 55 54 60 63 58 58 64 59 58 57 56 57 54 54 53 53 53 53 54 53 52 51 52 53 53 51 54 54 55 56 56 55 55 56 55 54
58 62 58 57 56 57 53 59 57 55 53 51 57 48 60 60 57 55 57 55 55 53 53 53 52 52 52 51 52 51 51 51 51 50 48 47 47 47 50 50 52 51 51 50
55 54 53 53 56 59 54 57 55 55 53 52 54 48 57 57 57 60 59 58 55 52 52 50 49 50 52 52 51 50 50 50 50 48 47 46 44 45 46 46 45 46 49 48
59 62 59 59 58 59 60 55 54 53 53 43 53 51 54 57 57 59 61 58 54 51 51 50 50 50 51 52 50 50 49 49 48 47 46 43 41 41 41 42 41 43 44 45
54 55 61 61 55 57 57 52 45 42 41 42 50 47 53 60 58 57 57 56 53 50 50 49 49 49 49 48 48 48 47 46 46 44 43 41 40 39 38 39 39 39 40 42
46 43 55 60 56 54 53 52 44 34 39 44 48 43 55 56 55 54 54 55 52 48 49 48 47 47 47 46 47 46 46 45 44 43 42 41 40 38 38 38 38 38 38 40
47 46 56 56 57 58 48 46 54 44 47 40 47 54 61 53 53 53 52 50 50 48 47 47 46 45 45 45 44 44 44 43 41 41 41 40 38 36 36 36 37 37 38 39
52 43 52 51 57 54 52 57 42 45 31 32 43 46 46 46 52 54 52 51 51 47 44 43 44 41 43 43 44 42 41 39 39 40 40 38 36 36 35 35 35 36 36 37
55 50 45 50 49 50 48 47 48 48 46 36 34 38 48 41 51 51 54 54 50 47 42 36 35 39 37 38 39 35 33 34 37 39 38 35 33 32 33 32 34 35 36 34
53 49 43 47 51 53 54 52 51 40 39 44 41 37 53 51 49 52 55 53 52 46 42 38 30 30 30 31 31 31 31 32 33 37 36 32 32 32 31 31 32 34 33 34
50 46 39 40 46 50 48 51 51 49 46 39 34 37 52 49 50 54 53 53 48 44 42 39 34 31 30 31 30 30 30 30 30 32 31 30 30 30 29 30 32 31 31 32
50 47 40 40 43 49 42 46 48 46 37 40 40 38 47 53 55 57 54 52 49 43 39 39 38 34 34 31 29 29 29 29 29 29 29 28 28 29 30 31 32 32 32 31
50 41 38 45 48 48 47 46 46 40 45 37 38 42 48 52 53 53 53 50 45 40 38 38 36 35 35 34 33 33 31 29 29 27 27 27 28 29 30 31 32 34 31 31
45 40 36 32 44 43 39 44 46 42 42 41 41 43 54 55 51 49 47 45 41 38 39 37 37 38 37 36 34 34 32 30 30 27 25 27 28 27 29 29 30 30 31 30
43 35 34 34 41 40 34 37 38 44 47 46 40 49 56 50 49 47 46 43 40 40 39 38 38 38 37 36 36 35 33 32 32 28 26 26 26 26 27 28 28 28 27 29
38 36 40 34 35 25 40 47 48 44 48 52 50 51 53 51 44 41 44 43 41 40 39 39 39 38 37 39 38 37 36 35 33 32 30 27 25 25 26 27 27 28 29 27
46 42 36 31 33 40 43 48 44 41 43 52 51 52 48 40 40 38 41 44 42 38 37 34 35 36 37 37 37 36 35 35 34 32 32 32 28 26 26 26 27 28 28 28
42 45 38 35 28 27 43 48 50 48 34 51 50 48 44 40 39 43 40 42 38 32 32 30 32 35 30 31 34 29 30 30 28 28 30 33 32 30 27 28 28 29 29 28
35 35 33 35 30 38 51 50 51 32 39 49 50 49 43 39 42 36 39 37 34 30 28 29 29 28 27 28 29 25 24 23 25 27 28 28 30 29 30 30 30 30 30 29
37 33 32 35 29 29 54 47 40 49 49 50 48 44 35 34 30 32 32 30 30 28 28 28 26 25 26 27 26 24 22 24 25 25 25 26 27 28 29 28 29 30 30 29
37 44 41 42 42 50 52 53 54 52 52 48 48 46 37 31 30 30 30 33 31 28 28 28 26 24 25 27 27 24 23 25 24 25 24 25 26 28 29 29 29 30 30 30
45 51 42 43 47 50 50 54 53 53 51 50 50 47 41 32 31 30 32 35 34 33 30 30 27 24 23 26 28 26 25 25 25 25 25 26 27 28 29 31 31 30 30 28
47 48 44 44 45 50 50 51 53 52 49 46 46 45 41 39 33 33 32 35 34 33 32 32 31 30 27 28 27 27 26 27 27 26 27 28 28 28 28 28 29 29 27 28
47 42 40 39 50 49 49 46 46 46 45 46 44 42 43 42 37 37 37 38 37 35 34 34 34 33 31 31 30 31 31 31 29 28 30 30 30 30 30 29 27 26 26 26